[[{"header":{"parameterUnit":"m.s-1","parameterCategory":1,"la1":30.6,"la2":29.2853,"lo1":-89.7004,"lo2":-87.6739,"dy":0.0162,"dx":0.0183,"nx":112,"ny":82,"refTime":"2023-04-08T00:00:00:Z","depth":0,"parameterNumber":2,"parameterNumberName":"U-component_of_WINDS"},"data":[0.0,0.0,0.0,0.0,0.0,0.0,0.0,0.0,0.0,0.0,0.0,0.0,0.0,0.0,0.0,0.0,0.0,0.0,0.0,0.0,0.0,0.0,0.0,0.0,0.0,0.0,0.0,0.0,0.0,0.0,0.0,0.0,0.0,0.0,0.0,0.0,0.0,0.0,0.0,0.0,0.0,0.0,0.0,0.0,0.0,0.0,0.0,0.0,0.0,0.0,0.0,0.0,0.0,0.0,0.0,0.0,0.0,0.0,0.0,0.0,0.0,0.0,0.0,0.0,0.0,0.0,0.0,0.0,0.0,0.0,0.0,0.0,0.0,0.0,0.0,0.0,0.0,0.0,0.0,0.0,0.0,0.0,0.0,0.0,0.0,0.0,0.0,0.0,0.0,0.0,2.2485,2.2485,2.2746,2.2893,2.2893,2.2893,2.2893,2.2893,0.0,0.0,0.0,0.0,0.0,0.0,0.0,0.0,0.0,0.0,0.0,0.0,0.0,0.0,0.0,0.0,0.0,0.0,0.0,0.0,0.0,0.0,0.0,0.0,0.0,0.0,0.0,0.0,0.0,0.0,0.0,0.0,0.0,0.0,0.0,0.0,0.0,0.0,0.0,0.0,0.0,0.0,0.0,0.0,0.0,0.0,0.0,0.0,0.0,0.0,0.0,0.0,0.0,0.0,0.0,0.0,0.0,0.0,0.0,0.0,0.0,0.0,0.0,0.0,0.0,0.0,0.0,0.0,0.0,0.0,0.0,0.0,0.0,0.0,0.0,0.0,0.0,0.0,0.0,0.0,0.0,0.0,0.0,0.0,0.0,0.0,0.0,0.0,0.0,0.0,0.0,0.0,0.0,0.0,0.0,0.0,0.0,0.0,0.0,0.0,0.0,0.0,0.0,0.0,2.2827,2.2827,2.2867,2.2893,2.2893,2.2893,2.2893,2.2893,0.0,0.0,0.0,0.0,0.0,0.0,0.0,0.0,0.0,0.0,0.0,0.0,0.0,0.0,0.0,0.0,0.0,0.0,0.0,0.0,0.0,0.0,0.0,0.0,0.0,0.0,0.0,0.0,0.0,0.0,0.0,0.0,0.0,0.0,0.0,0.0,0.0,0.0,0.0,0.0,0.0,0.0,0.0,0.0,0.0,0.0,0.0,0.0,0.0,0.0,0.0,0.0,0.0,0.0,0.0,0.0,0.0,0.0,0.0,0.0,0.0,0.0,0.0,0.0,0.0,0.0,0.0,0.0,0.0,0.0,0.0,0.0,0.0,0.0,0.0,0.0,0.0,0.0,0.0,0.0,0.0,0.0,0.0,0.0,0.0,0.0,0.0,0.0,0.0,0.0,0.0,0.0,0.0,0.0,0.0,0.0,0.0,0.0,0.0,0.0,0.0,0.0,0.0,2.3033,2.318,2.3375,2.3388,2.3388,2.3388,2.3388,2.3388,2.3388,2.3388,0.0,0.0,0.0,0.0,0.0,0.0,0.0,0.0,0.0,0.0,0.0,0.0,0.0,0.0,0.0,0.0,0.0,0.0,0.0,0.0,0.0,0.0,0.0,0.0,0.0,0.0,0.0,0.0,0.0,0.0,0.0,0.0,0.0,0.0,0.0,0.0,0.0,0.0,0.0,0.0,0.0,0.0,0.0,0.0,0.0,0.0,0.0,0.0,0.0,0.0,0.0,0.0,0.0,0.0,0.0,0.0,0.0,0.0,0.0,0.0,0.0,0.0,0.0,0.0,0.0,0.0,0.0,0.0,0.0,0.0,0.0,0.0,0.0,0.0,0.0,0.0,0.0,0.0,0.0,0.0,0.0,0.0,0.0,0.0,0.0,0.0,0.0,0.0,0.0,0.0,0.0,0.0,0.0,0.0,0.0,0.0,0.0,0.0,0.0,0.0,0.0,0.0,2.3359,2.3514,2.3777,2.3803,2.3803,2.3803,2.3803,2.3803,2.3803,2.3803,0.0,0.0,0.0,0.0,0.0,0.0,0.0,0.0,0.0,0.0,0.0,0.0,0.0,0.0,0.0,0.0,0.0,0.0,0.0,0.0,0.0,0.0,0.0,0.0,0.0,0.0,0.0,0.0,0.0,0.0,0.0,0.0,0.0,0.0,0.0,0.0,0.0,0.0,0.0,0.0,0.0,0.0,0.0,0.0,0.0,0.0,0.0,0.0,0.0,0.0,0.0,0.0,0.0,0.0,0.0,0.0,0.0,0.0,0.0,0.0,0.0,0.0,0.0,0.0,0.0,0.0,0.0,0.0,0.0,0.0,0.0,0.0,0.0,0.0,0.0,0.0,0.0,0.0,0.0,0.0,0.0,0.0,0.0,0.0,0.0,0.0,0.0,0.0,0.0,0.0,0.0,0.0,0.0,0.0,0.0,0.0,0.0,0.0,0.0,0.0,0.0,0.0,2.3567,2.379,2.3803,2.3803,2.3803,2.3803,2.3803,2.3803,2.3803,2.3803,0.0,0.0,0.0,0.0,0.0,0.0,0.0,0.0,0.0,0.0,0.0,0.0,0.0,0.0,0.0,0.0,0.0,0.0,0.0,0.0,0.0,0.0,0.0,0.0,0.0,0.0,0.0,0.0,0.0,0.0,0.0,0.0,0.0,0.0,0.0,0.0,0.0,0.0,0.0,0.0,0.0,0.0,0.0,0.0,0.0,0.0,0.0,0.0,0.0,0.0,0.0,0.0,0.0,0.0,0.0,0.0,0.0,0.0,0.0,0.0,0.0,0.0,0.0,0.0,0.0,0.0,0.0,0.0,0.0,0.0,0.0,0.0,0.0,0.0,0.0,0.0,0.0,0.0,0.0,0.0,0.0,0.0,0.0,0.0,0.0,0.0,0.0,0.0,0.0,0.0,0.0,0.0,0.0,0.0,0.0,0.0,0.0,0.0,0.0,0.0,0.0,0.0,2.3968,2.4115,2.4289,2.4315,2.4315,2.4315,2.4315,2.4315,2.4315,0.0,0.0,0.0,0.0,0.0,0.0,0.0,0.0,0.0,0.0,0.0,0.0,0.0,0.0,0.0,0.0,0.0,0.0,0.0,0.0,0.0,0.0,0.0,0.0,0.0,0.0,0.0,0.0,0.0,0.0,0.0,0.0,0.0,0.0,0.0,0.0,0.0,0.0,0.0,0.0,0.0,0.0,0.0,0.0,0.0,0.0,0.0,0.0,0.0,0.0,0.0,0.0,0.0,0.0,0.0,0.0,0.0,0.0,0.0,0.0,0.0,0.0,0.0,0.0,0.0,0.0,0.0,0.0,0.0,0.0,0.0,0.0,0.0,0.0,0.0,0.0,0.0,0.0,0.0,0.0,0.0,0.0,0.0,0.0,0.0,0.0,0.0,0.0,0.0,0.0,0.0,0.0,0.0,0.0,0.0,0.0,0.0,0.0,0.0,0.0,0.0,0.0,2.4096,2.3716,2.37,2.4499,2.4599,2.4599,2.4599,2.4599,2.4599,2.4599,0.0,0.0,0.0,0.0,0.0,0.0,0.0,0.0,0.0,0.0,0.0,0.0,0.0,0.0,0.0,0.0,0.0,0.0,0.0,0.0,0.0,0.0,0.0,0.0,0.0,0.0,0.0,0.0,0.0,0.0,0.0,0.0,0.0,0.0,0.0,0.0,0.0,0.0,0.0,0.0,0.0,0.0,0.0,0.0,0.0,0.0,0.0,0.0,0.0,0.0,0.0,0.0,0.0,0.0,0.0,0.0,0.0,0.0,0.0,0.0,0.0,0.0,0.0,0.0,0.0,0.0,0.0,0.0,0.0,0.0,0.0,0.0,0.0,0.0,0.0,0.0,0.0,0.0,0.0,0.0,0.0,0.0,0.0,0.0,0.0,0.0,0.0,0.0,0.0,0.0,0.0,0.0,0.0,0.0,0.0,0.0,0.0,0.0,0.0,0.0,0.0,0.0,2.3954,2.2694,2.2397,2.4414,2.4613,2.4613,2.4613,2.4613,2.4613,0.0,0.0,0.0,0.0,0.0,0.0,0.0,0.0,0.0,0.0,0.0,0.0,0.0,0.0,0.0,0.0,0.0,0.0,0.0,0.0,0.0,0.0,0.0,0.0,0.0,0.0,0.0,0.0,0.0,0.0,0.0,0.0,0.0,0.0,0.0,0.0,0.0,0.0,0.0,0.0,0.0,0.0,0.0,0.0,0.0,0.0,0.0,0.0,0.0,0.0,0.0,0.0,0.0,0.0,0.0,0.0,0.0,0.0,0.0,0.0,0.0,0.0,0.0,0.0,0.0,0.0,0.0,0.0,0.0,0.0,0.0,0.0,0.0,0.0,0.0,0.0,0.0,0.0,0.0,0.0,0.0,0.0,0.0,0.0,0.0,0.0,0.0,0.0,0.0,0.0,0.0,0.0,0.0,0.0,0.0,0.0,0.0,0.0,0.0,0.0,0.0,0.0,0.0,2.4749,2.4537,2.4593,2.5175,2.5213,2.5213,2.5213,2.5213,2.5213,2.5213,0.0,0.0,0.0,0.0,0.0,0.0,0.0,0.0,0.0,0.0,0.0,0.0,0.0,0.0,0.0,0.0,0.0,0.0,0.0,0.0,0.0,0.0,0.0,0.0,0.0,0.0,0.0,0.0,0.0,0.0,0.0,0.0,0.0,0.0,0.0,0.0,0.0,0.0,0.0,0.0,0.0,0.0,0.0,0.0,0.0,0.0,0.0,0.0,0.0,0.0,0.0,0.0,0.0,0.0,0.0,0.0,0.0,0.0,0.0,0.0,0.0,0.0,0.0,0.0,0.0,0.0,0.0,0.0,0.0,0.0,0.0,0.0,0.0,0.0,0.0,0.0,0.0,0.0,0.0,0.0,0.0,0.0,0.0,0.0,0.0,0.0,0.0,0.0,0.0,0.0,0.0,0.0,0.0,0.0,0.0,0.0,0.0,0.0,0.0,0.0,0.0,0.0,2.5175,2.4698,2.4611,2.539,2.5518,2.5518,2.5518,2.5518,2.5518,2.5518,0.0,0.0,0.0,0.0,0.0,0.0,0.0,0.0,0.0,0.0,0.0,0.0,0.0,0.0,0.0,0.0,0.0,0.0,0.0,0.0,0.0,0.0,0.0,0.0,0.0,0.0,0.0,0.0,0.0,0.0,0.0,0.0,0.0,0.0,0.0,0.0,0.0,0.0,0.0,0.0,0.0,0.0,0.0,0.0,0.0,0.0,0.0,0.0,0.0,0.0,0.0,0.0,0.0,0.0,0.0,0.0,0.0,0.0,0.0,0.0,0.0,0.0,0.0,0.0,0.0,0.0,0.0,0.0,0.0,0.0,0.0,0.0,0.0,0.0,0.0,0.0,0.0,0.0,0.0,0.0,0.0,0.0,0.0,0.0,0.0,0.0,0.0,0.0,0.0,0.0,0.0,0.0,0.0,0.0,0.0,0.0,0.0,0.0,0.0,0.0,0.0,0.0,2.5315,2.3995,2.3583,2.5393,2.5598,2.5598,2.5598,2.5598,2.5598,2.5598,0.0,0.0,0.0,0.0,0.0,0.0,0.0,0.0,0.0,0.0,0.0,0.0,0.0,0.0,0.0,0.0,0.0,0.0,0.0,0.0,0.0,0.0,0.0,0.0,0.0,0.0,0.0,0.0,0.0,0.0,0.0,0.0,0.0,0.0,0.0,0.0,0.0,0.0,0.0,0.0,0.0,0.0,0.0,0.0,0.0,0.0,0.0,0.0,0.0,0.0,0.0,0.0,0.0,0.0,0.0,0.0,0.0,0.0,0.0,0.0,2.4205,2.3803,0.0,0.0,0.0,0.0,0.0,0.0,0.0,0.0,0.0,0.0,0.0,0.0,0.0,0.0,0.0,0.0,0.0,0.0,0.0,0.0,0.0,0.0,0.0,0.0,0.0,0.0,0.0,0.0,0.0,0.0,0.0,0.0,0.0,0.0,0.0,0.0,0.0,0.0,0.0,0.0,2.5826,2.5701,2.5714,2.616,2.6199,2.6199,2.6199,2.6199,2.6199,2.6199,2.6199,0.0,0.0,0.0,0.0,0.0,0.0,0.0,0.0,0.0,0.0,0.0,0.0,0.0,0.0,0.0,0.0,0.0,0.0,0.0,0.0,0.0,0.0,0.0,0.0,0.0,0.0,0.0,0.0,0.0,0.0,0.0,0.0,0.0,0.0,0.0,0.0,0.0,0.0,0.0,0.0,0.0,0.0,0.0,0.0,0.0,0.0,0.0,0.0,0.0,0.0,0.0,0.0,0.0,0.0,0.0,0.0,0.0,0.0,0.0,2.4877,2.4609,0.0,0.0,0.0,0.0,0.0,0.0,0.0,0.0,0.0,0.0,0.0,0.0,0.0,0.0,0.0,0.0,0.0,0.0,0.0,0.0,0.0,0.0,0.0,0.0,0.0,0.0,0.0,0.0,0.0,0.0,0.0,0.0,0.0,0.0,0.0,0.0,0.0,0.0,0.0,0.0,2.6613,2.676,2.6854,2.6854,2.6854,2.6854,2.6854,2.6854,2.6854,2.6854,2.668,0.0,0.0,0.0,0.0,0.0,0.0,0.0,0.0,0.0,0.0,0.0,0.0,0.0,0.0,0.0,0.0,0.0,0.0,0.0,0.0,0.0,0.0,0.0,0.0,0.0,0.0,0.0,0.0,0.0,0.0,0.0,0.0,0.0,0.0,0.0,0.0,0.0,0.0,0.0,0.0,0.0,0.0,0.0,0.0,0.0,0.0,0.0,0.0,0.0,0.0,0.0,0.0,0.0,2.5798,2.5825,2.5825,2.5825,2.5825,2.5825,2.5825,2.5705,2.5518,2.5518,0.0,0.0,0.0,0.0,0.0,0.0,0.0,0.0,0.0,0.0,0.0,0.0,0.0,0.0,0.0,0.0,0.0,0.0,0.0,0.0,0.0,0.0,2.2493,2.3102,2.377,2.4526,2.5569,0.0,0.0,0.0,0.0,0.0,0.0,0.0,0.0,0.0,0.0,0.0,2.7269,2.7309,2.7309,2.7309,2.7309,2.7309,2.7309,2.7309,2.7309,2.7309,2.7041,2.6894,0.0,0.0,0.0,0.0,0.0,0.0,0.0,0.0,0.0,0.0,0.0,0.0,0.0,0.0,0.0,0.0,0.0,0.0,0.0,0.0,0.0,0.0,0.0,0.0,0.0,0.0,0.0,0.0,0.0,0.0,0.0,0.0,2.3656,2.3701,0.0,0.0,0.0,0.0,0.0,0.0,0.0,0.0,0.0,0.0,0.0,0.0,0.0,2.5611,2.5877,2.6172,2.64,2.6614,2.6907,2.7081,2.7081,2.7081,2.7081,2.7081,2.7081,0.0,2.5518,2.5518,0.0,0.0,0.0,0.0,0.0,0.0,0.0,0.0,0.0,0.0,0.0,0.0,0.0,0.0,0.0,0.0,0.0,0.0,0.0,0.0,0.0,0.0,2.1387,2.3374,2.5379,2.6835,2.7014,2.7081,2.7081,2.7081,2.7081,2.7081,0.0,0.0,0.0,0.0,0.0,0.0,2.7309,2.7309,2.7309,2.7309,2.7309,2.7309,2.7309,2.7309,2.7309,2.7309,2.7269,2.7242,2.7242,2.7215,0.0,0.0,0.0,0.0,0.0,0.0,0.0,0.0,0.0,0.0,0.0,0.0,0.0,0.0,0.0,0.0,0.0,0.0,0.0,0.0,0.0,0.0,0.0,0.0,0.0,0.0,0.0,0.0,0.0,2.4182,2.4382,2.4716,2.4863,2.4983,0.0,0.0,0.0,0.0,0.0,0.0,0.0,0.0,0.0,2.6493,2.6493,2.656,2.6734,2.6854,2.6947,2.7068,2.7242,2.7309,2.7309,2.7309,2.7309,2.7309,2.7309,2.7015,2.6493,2.6493,2.6613,2.6614,0.0,0.0,0.0,0.0,2.1927,2.1793,2.0889,1.9959,1.9381,2.0578,0.0,0.0,0.0,0.0,0.0,0.0,0.0,2.2524,2.1149,2.2566,2.4365,2.43,2.594,2.7603,2.7764,2.7804,2.7697,2.7376,2.7309,2.7309,2.7309,2.7309,0.0,0.0,0.0,2.7575,2.7777,2.7804,2.7804,2.7804,2.7804,2.7804,2.7804,2.7804,2.7804,2.7804,2.7643,2.6918,2.5608,2.5417,2.5239,0.0,0.0,0.0,0.0,0.0,0.0,0.0,0.0,0.0,0.0,0.0,0.0,0.0,0.0,0.0,0.0,0.0,0.0,0.0,0.0,0.0,0.0,0.0,0.0,0.0,0.0,0.0,0.0,2.4826,2.5013,2.5558,2.5625,2.5678,0.0,0.0,0.0,0.0,0.0,0.0,2.66,2.6814,2.7041,2.7296,2.7309,2.7349,2.7416,2.7416,2.7456,2.7536,2.7536,2.7536,2.7536,2.7536,2.7536,2.7536,2.7536,2.7536,2.7523,2.7362,2.7349,2.7252,2.5607,2.5012,2.4865,2.3268,2.2671,2.2671,2.2671,2.2293,2.2041,2.3644,2.1105,1.7861,2.0092,0.0,0.0,0.0,0.0,2.5114,2.2472,2.377,2.555,2.4729,2.5756,2.7187,2.8012,2.8179,2.8058,2.7617,2.7536,2.7536,2.7536,2.7536,0.0,2.7776,2.7816,2.7938,2.8152,2.8179,2.8179,2.8179,2.8179,2.8179,2.8179,2.8179,2.8179,2.8179,2.7978,2.7038,2.5294,2.4472,2.3997,2.3896,0.0,0.0,0.0,0.0,0.0,0.0,0.0,0.0,0.0,0.0,0.0,0.0,0.0,0.0,0.0,0.0,0.0,0.0,0.0,0.0,0.0,0.0,0.0,0.0,0.0,0.0,0.0,0.0,0.0,2.5931,2.5971,0.0,0.0,0.0,0.0,2.7202,2.7229,2.7242,2.7269,2.7282,2.7296,2.7309,2.7309,2.7443,2.7669,2.7682,2.7857,2.8138,2.8138,2.8138,2.8138,2.8138,2.8138,2.8138,2.8138,2.8138,2.8098,2.7536,2.7469,2.7669,2.7544,2.7717,2.797,2.7886,2.7844,2.7844,2.7844,2.6368,2.4516,2.4644,2.1536,1.8209,2.05,1.9677,0.0,0.0,2.1234,2.1966,2.4003,2.3008,2.2052,2.4186,2.4753,2.5446,2.7701,2.8179,2.8179,2.8152,2.8138,2.8138,2.8138,0.0,2.8138,2.8165,2.8165,2.8165,2.8179,2.8179,2.8179,2.8179,2.8179,2.8179,2.8179,2.8179,2.8179,2.8179,2.8165,2.8123,2.7983,2.5859,2.4496,2.4196,2.1938,0.0,0.0,0.0,0.0,0.0,0.0,0.0,0.0,0.0,0.0,0.0,0.0,0.0,0.0,0.0,0.0,0.0,0.0,0.0,0.0,0.0,0.0,0.0,0.0,0.0,0.0,0.0,0.0,2.648,2.672,0.0,2.7094,2.7108,2.7148,2.7296,2.7483,2.7549,2.7549,2.7764,2.7871,2.7871,2.7871,2.7924,2.8031,2.8031,2.8085,2.8179,2.8179,2.8179,2.8179,2.8179,2.8179,2.8179,2.8179,2.8179,2.8165,2.7965,2.7938,2.8031,2.8031,2.8085,2.8179,2.8179,2.8179,2.8179,2.8179,2.7672,2.6715,2.5203,2.3567,2.1825,1.9662,1.9488,1.9836,1.9184,2.1178,2.3652,2.4477,2.5203,2.5926,2.6758,2.6927,2.7194,2.801,2.8179,2.8179,2.8179,2.8179,2.8179,2.8179,2.8179,2.8179,2.8179,2.8179,2.8179,2.8179,2.8179,2.8179,2.8179,2.8179,2.8179,2.8179,2.8179,2.8179,2.8179,2.68,2.5288,2.377,2.2901,2.1708,2.012,1.93,1.8734,0.0,0.0,0.0,0.0,0.0,0.0,0.0,0.0,0.0,0.0,0.0,0.0,0.0,0.0,0.0,0.0,0.0,0.0,0.0,0.0,0.0,0.0,0.0,0.0,0.0,2.66,2.6787,2.7081,2.7201,2.7389,2.759,2.751,2.7496,2.759,2.7777,2.7884,2.7884,2.8072,2.8179,2.8179,2.8179,2.8179,2.8179,2.8179,2.8179,2.8179,2.8179,2.8179,2.8192,2.8286,2.8339,2.8353,2.8446,2.8486,2.8486,2.8486,2.8486,2.8473,2.8259,2.8179,2.8179,2.8179,2.8179,2.8179,2.8179,2.8179,2.7926,2.6376,2.5343,2.4123,2.1048,2.1178,2.1911,1.9575,2.1739,2.4337,2.2783,2.4112,2.5841,2.5841,2.6448,2.7236,2.801,2.8179,2.8179,2.8179,2.8179,2.8179,2.8179,2.8179,2.8179,2.8179,2.8179,2.8179,2.8179,2.8179,2.8179,2.8179,2.8179,2.8179,2.8179,2.8179,2.7841,2.7054,2.5543,2.3652,2.1307,2.0443,1.9358,1.7842,1.7028,1.6542,1.6431,0.0,0.0,0.0,0.0,0.0,0.0,0.0,0.0,0.0,0.0,0.0,0.0,0.0,0.0,0.0,0.0,0.0,0.0,0.0,0.0,0.0,0.0,0.0,2.7309,2.7309,2.7429,2.7669,2.7496,2.7563,2.8125,2.7924,2.7829,2.8165,2.8179,2.8179,2.8179,2.8179,2.8192,2.8205,2.8205,2.8205,2.8219,2.8219,2.8219,2.8219,2.8219,2.8219,2.8219,2.8484,2.8617,2.8631,2.8868,2.9001,2.9001,2.9001,2.9001,2.8935,2.8446,2.8219,2.8219,2.8219,2.8219,2.8219,2.8219,2.8219,2.8219,2.8219,2.6698,2.48,2.4757,2.4714,2.4232,2.1889,2.2934,2.3718,1.9212,1.9724,2.1457,2.1457,2.3191,2.544,2.7656,2.8163,2.8205,2.8121,2.8163,2.8205,2.8192,2.8179,2.8179,2.8179,2.8179,0.0,2.8179,2.8179,2.8192,2.8205,2.8192,2.8192,2.8205,2.8192,2.7194,2.4861,2.4648,2.3555,2.1178,1.8976,1.7807,1.7807,1.5513,1.4299,1.4299,0.0,0.0,0.0,0.0,0.0,0.0,0.0,0.0,0.0,0.0,0.0,0.0,0.0,0.0,0.0,0.0,0.0,0.0,0.0,0.0,0.0,2.7804,2.7791,2.7362,2.7483,2.7602,2.7682,2.7857,2.8005,2.8165,2.8112,2.8098,2.8179,2.8179,2.8179,2.8179,2.8179,2.8286,2.847,2.8484,2.8577,2.8791,2.8791,2.8791,2.8791,2.8791,2.8791,2.8791,2.8841,2.8881,2.8881,2.8961,2.9001,2.9001,2.9001,2.9001,2.8975,2.8858,2.8791,2.8791,2.8791,2.8791,2.8791,2.8791,2.8791,2.8791,2.8791,2.8346,2.7511,2.5865,2.533,2.4849,2.2501,2.3556,2.5068,2.3787,2.5155,2.6847,2.6847,2.7337,2.7511,2.64,2.7554,2.826,2.6487,2.7597,2.8657,2.8259,2.8179,2.8179,2.8179,2.8179,2.8179,2.8179,2.8179,2.8272,2.8457,2.8326,2.8272,2.8457,2.8312,2.7194,2.4861,2.3083,2.1135,1.8845,1.8148,1.7807,1.7807,1.5513,1.4299,0.0,0.0,0.0,0.0,0.0,0.0,0.0,0.0,0.0,0.0,0.0,0.0,0.0,0.0,0.0,0.0,0.0,0.0,0.0,0.0,0.0,0.0,2.8072,2.8058,2.7724,2.7817,2.7924,2.7924,2.8085,2.8179,2.8179,2.8179,2.8232,2.8366,2.8379,2.8433,2.8511,2.8524,2.8604,2.8735,2.8791,2.8828,2.9001,2.9001,2.9001,2.9001,2.9001,2.9001,2.9001,2.9165,2.9219,2.9232,2.9308,2.9362,2.9375,2.9539,2.9593,2.9553,0.0,0.0,0.0,0.0,2.9001,2.9001,2.9001,2.9001,2.9001,2.9001,2.9001,2.8727,2.7422,2.7016,2.6302,2.2956,2.3,2.3587,2.1576,2.3543,2.6038,2.6038,2.7566,2.864,2.7203,2.8016,2.8596,2.7159,2.8059,0.0,2.8577,2.8524,2.8524,2.8524,2.8524,2.8524,2.8524,2.8524,2.8591,2.8764,2.8631,2.8192,2.7312,2.7129,0.0,0.0,0.0,1.8804,1.6429,1.6334,0.0,0.0,0.0,1.4299,1.4299,1.4299,0.0,0.0,1.4299,1.4299,0.0,0.0,0.0,0.0,0.0,0.0,0.0,0.0,0.0,0.0,0.0,0.0,0.0,0.0,0.0,0.0,2.8179,2.8179,2.8179,2.8219,2.8219,2.8192,2.8219,2.8232,2.8232,2.8272,2.8406,2.8631,2.8657,2.8764,2.8988,2.9001,0.0,0.0,0.0,2.9108,2.9148,2.9175,2.9188,2.9188,2.9188,2.9188,2.9202,2.9513,2.9633,2.9646,2.99,3.002,3.0034,3.0301,3.0453,3.0373,2.9539,2.9188,2.9188,2.9188,2.9188,2.9188,2.9188,0.0,0.0,2.9188,2.9188,2.9188,2.9188,2.9188,2.8341,2.4108,2.2891,2.1905,1.7614,1.9671,2.2849,2.2818,2.6034,2.9007,2.8732,2.8907,2.9007,2.8732,2.892,2.9095,2.9095,2.9041,2.9001,2.9001,2.9001,2.9001,2.9001,2.9001,2.9001,2.9041,2.9015,0.0,2.6042,2.5578,2.3412,1.8751,1.7943,1.664,1.4442,1.4333,1.4326,1.4326,1.4306,1.4299,1.4299,1.4299,1.4299,1.4299,1.4299,1.4299,0.0,0.0,0.0,0.0,0.0,0.0,0.0,0.0,0.0,0.0,0.0,0.0,0.0,0.0,0.0,2.8179,2.8179,2.8179,2.8179,2.8406,2.843,2.8219,2.8406,2.8524,2.8524,2.8724,2.8855,2.8908,2.8908,2.8935,2.8988,2.9001,2.9108,2.9392,2.9619,2.986,3.0145,3.0341,3.0448,3.0448,3.0448,0.0,3.0461,3.0515,3.0541,3.0541,3.0595,3.0621,3.0635,3.0688,3.0715,3.0688,3.0515,3.0448,3.0448,3.0448,3.0448,3.0448,3.0448,3.0448,3.0448,3.0448,3.0448,3.0448,3.0448,3.0448,0.0,2.9324,2.9095,2.8803,2.7652,2.8057,2.8699,2.8424,2.9057,2.9191,2.7182,2.8328,2.9146,2.7137,2.8373,2.9753,2.9753,2.9308,2.9001,2.9001,2.9001,2.9001,2.9001,2.9001,2.9081,2.9366,2.9135,2.892,2.8705,2.6668,2.4196,2.1339,1.7514,1.5132,1.4658,1.4536,1.4468,1.4468,1.436,1.4299,1.4299,1.4299,1.4299,1.4299,1.4299,1.4299,0.0,0.0,0.0,0.0,0.0,0.0,0.0,0.0,0.0,0.0,0.0,2.8179,2.8179,0.0,2.8179,2.8179,2.8312,2.8419,2.8419,2.8631,2.8711,2.8417,2.8644,2.8775,2.8775,2.8908,2.9055,2.9245,2.9348,2.9495,2.9686,2.9833,2.998,3.014,3.0274,3.0421,3.0627,3.0715,3.0795,3.0795,3.0795,3.0795,3.0795,3.0795,3.0795,3.0795,3.0795,3.0795,3.0808,3.0942,3.1102,3.1236,3.1236,3.1049,3.0795,3.0795,3.0795,3.0795,3.0795,3.0795,3.0795,3.0795,3.0795,3.0795,3.0795,3.0795,3.0551,2.9322,2.8938,2.8622,2.727,2.7848,2.8699,2.8561,2.9462,3.0022,2.8765,2.9462,2.9977,2.8719,2.9508,3.0354,3.0354,3.0114,2.982,2.9482,2.9428,2.9428,2.9428,2.9428,2.9495,2.9686,2.9566,2.8537,2.6255,2.2463,1.968,1.851,1.609,1.4694,1.4694,1.462,1.4579,1.4579,1.4512,1.4523,1.4523,1.4523,1.4482,1.4407,1.4407,1.4367,0.0,0.0,0.0,0.0,0.0,0.0,0.0,2.8179,2.8179,2.8179,2.8179,2.8179,2.8179,2.8232,2.8272,2.8272,2.8484,2.8684,2.8684,2.8895,2.9058,2.8885,2.9018,2.9108,2.9161,2.9215,2.9419,2.9713,2.9953,3.0194,3.048,3.0662,3.0795,3.0795,3.0849,3.0875,3.0875,3.0929,3.0969,3.0969,3.0969,3.0969,3.0969,3.0969,3.0969,3.0969,3.0969,3.0969,3.0982,3.1223,3.145,3.1711,3.1711,3.1383,3.0969,3.0969,3.0969,3.0969,3.0969,3.0969,3.0969,3.0969,3.0969,3.0969,3.0969,3.0969,3.0584,2.8575,2.8002,2.7521,2.5467,2.6407,2.787,2.781,2.9368,3.0795,3.0795,3.0795,3.0643,3.0122,3.003,3.003,3.003,3.003,3.0057,3.0063,3.0087,3.0087,3.0087,3.0087,3.0087,3.0087,2.9623,2.7327,2.235,1.8155,1.5596,1.5057,1.4896,1.4782,1.4782,1.4755,1.4741,1.4741,1.4708,1.4694,1.4694,1.4694,1.4633,1.4557,1.4557,1.4462,2.8367,2.7455,2.7722,2.8058,2.8138,2.8138,0.0,2.8179,2.8179,2.8179,2.8179,2.8179,2.8179,2.8406,2.8551,2.8551,2.8761,2.8948,2.8948,2.9245,2.9513,2.974,2.9566,2.9539,2.9793,3.006,3.0373,3.0621,3.0675,3.0715,3.0742,3.0768,3.0795,3.0795,3.1036,3.1183,3.1183,3.1436,3.1617,3.1617,3.1617,3.1617,3.1617,3.1617,3.1617,3.1617,3.1617,3.1617,3.1617,3.161,3.1684,3.1711,3.1711,3.1671,3.1617,3.1617,3.1617,3.1617,3.1617,3.1617,3.1617,3.1617,3.1617,3.1617,3.1617,3.1617,3.1523,3.1273,3.1178,3.1078,3.0473,3.0548,3.0683,3.0419,3.0597,3.0795,3.0795,3.0795,3.0122,2.7786,2.7366,2.7366,2.7366,2.7366,2.8099,3.0366,3.0688,3.0688,3.0688,3.0688,3.0688,3.0688,2.8606,2.512,1.9923,1.8966,1.7632,1.5308,1.514,1.5133,1.5133,1.5011,1.4989,1.4989,1.4808,1.4694,1.4694,1.4694,1.4687,1.4667,1.4667,1.4518,2.8579,2.7911,2.8031,2.8152,2.8179,2.8179,2.8179,2.8179,2.8179,2.8179,2.8326,2.8417,2.8417,2.8657,2.8815,2.8815,2.9098,2.9352,2.9482,2.9806,3.01,3.0394,3.0314,3.0287,3.0408,3.0541,3.0662,3.0782,3.0942,3.1049,3.1049,3.1209,3.1303,3.1303,3.1423,3.149,3.149,3.161,3.1805,3.1917,3.1917,3.2011,3.2233,3.2233,3.2233,3.2233,3.2233,3.2233,3.2233,3.2233,3.2233,3.2233,3.2233,3.2233,3.2179,3.1845,3.1711,3.1711,3.1711,3.1711,3.1711,3.1711,3.1711,3.1711,3.1711,3.1711,3.1711,3.1711,3.1711,3.1684,3.1517,3.149,3.145,3.133,3.1303,3.1303,3.1303,3.1303,3.1008,2.99,2.9699,2.9699,2.9699,2.8459,2.7783,2.8897,2.8765,2.9077,3.0597,2.9461,2.8554,2.8554,2.4909,2.1574,1.9414,1.7906,1.6601,1.55,1.5445,1.5445,1.5445,1.5303,1.5228,1.5228,1.5079,1.4997,1.4997,1.4997,1.4957,1.4875,1.4875,1.476,2.8532,2.8179,2.8179,2.8179,2.8179,2.8179,2.8179,2.8259,2.8312,2.8312,2.8511,2.8724,2.8724,2.8921,2.9148,2.9228,2.9526,2.982,3.0114,3.0341,3.0581,3.0875,3.0915,3.0942,3.1022,3.0955,3.0942,3.1036,3.1223,3.1343,3.1343,3.1623,3.1784,3.1784,3.1912,3.1965,3.1965,3.1965,3.2059,3.2225,3.2225,3.2393,3.2594,3.2594,3.2594,3.2594,3.2594,3.2594,3.2594,3.2594,3.2594,3.2594,3.2594,3.2594,3.2541,3.2112,3.1965,3.1965,3.1965,3.1965,3.1965,3.1965,3.1965,3.1965,3.1965,3.1965,3.1965,3.1965,3.1965,3.1965,3.1965,3.1898,3.1784,3.1784,3.173,3.1711,3.1711,3.1711,3.1474,3.0747,3.0592,3.0592,3.0592,2.9039,2.778,2.778,2.6822,2.6769,2.8637,2.7251,2.5814,2.5046,2.1676,1.9179,1.8416,1.67,1.5683,1.5593,1.5593,1.5593,1.5593,1.5533,1.5472,1.5472,1.5364,1.5309,1.5309,1.5309,1.5235,1.5092,1.5092,1.5011,2.8221,2.8179,2.8179,2.8179,2.8179,2.8179,2.8179,2.8419,2.8591,2.8591,2.8775,2.8988,2.8988,2.9272,2.9566,2.9847,3.014,3.048,3.0728,3.0768,3.0889,3.1183,3.1209,3.133,3.1657,3.1383,3.133,3.1671,3.1698,3.1698,3.1698,3.1931,3.2091,3.2091,3.242,3.2567,3.2567,3.2567,3.2567,3.2581,3.2581,3.2581,3.2594,3.2594,3.2594,3.2594,3.2594,3.2594,3.2594,3.2594,3.2594,3.2594,3.2594,3.2594,3.2594,3.2581,3.2567,3.2567,3.2567,3.2567,3.2567,3.2567,3.2567,3.2567,3.2567,3.2567,3.2567,3.2567,3.2567,3.2567,3.2567,3.2353,3.2091,3.2091,3.1877,3.1711,3.1711,3.1711,3.0938,2.8416,2.7924,2.7924,2.7924,2.7828,2.778,2.778,2.5614,2.4005,2.4103,2.4054,2.3023,2.0493,2.006,1.8922,1.6244,1.5943,1.5784,1.56,1.5593,1.5593,1.5593,1.5587,1.5587,1.5587,1.558,1.558,1.558,1.558,1.5499,1.5398,1.5398,1.5316,2.8179,2.8179,2.8179,2.8179,2.8339,2.8457,2.8457,2.8684,2.8855,2.8855,2.9242,2.9619,2.9619,3.002,3.0381,3.0488,3.0581,3.0755,3.1036,3.1076,3.1183,3.149,3.1517,3.1637,3.1931,3.169,3.1637,3.1931,3.1957,3.2038,3.2286,3.2393,3.2447,3.2447,3.2541,3.2594,3.2594,3.2594,3.2688,3.2888,3.3026,3.312,3.312,3.312,3.312,3.312,3.312,3.312,3.312,3.312,3.312,3.312,3.312,3.312,3.312,3.312,3.312,3.3066,3.2728,3.2594,3.2594,3.2594,3.2594,3.2594,3.2594,3.2594,3.2594,3.2594,3.2594,3.2594,3.2594,3.2527,3.2447,3.2447,3.092,2.9506,2.9506,2.8066,2.6534,2.5648,2.55,2.55,2.55,2.4018,2.2289,2.0551,2.2353,2.3286,2.1539,2.1294,2.1,2.0077,1.8468,1.7034,1.6107,1.6051,1.5988,1.5934,1.5934,1.5934,1.5934,1.5832,1.5784,1.5784,1.5689,1.5593,1.5593,1.5593,1.5566,1.5512,1.5512,1.5485,2.8179,2.8179,2.8205,2.8326,2.8457,2.8631,2.8738,2.8991,2.9205,2.9205,2.9673,3.0074,3.0074,3.0474,3.0822,3.0929,3.0942,3.1049,3.1343,3.1383,3.149,3.1784,3.1824,3.1944,3.2238,3.2139,3.2112,3.2251,3.2265,3.2393,3.2581,3.2688,3.2755,3.2755,3.2848,3.2902,3.2902,3.2902,3.2946,3.3133,3.332,3.3414,3.3414,3.3414,3.3414,3.3414,3.3414,3.3414,3.3414,3.3414,3.3414,3.3414,3.3414,3.3414,3.3414,3.3414,3.3414,3.336,3.2986,3.2902,3.2902,3.2902,3.2902,3.2902,3.2902,3.2902,3.2902,3.2902,3.2902,3.2902,3.2902,3.2822,3.2755,3.2755,3.1313,2.9873,2.9873,2.773,2.5773,2.5773,2.4976,2.4277,2.4277,2.2141,1.9845,1.8134,1.9791,2.0669,1.8946,1.87,1.866,1.866,1.7141,1.6083,1.6083,1.6083,1.6083,1.6083,1.6083,1.6083,1.6083,1.6037,1.5983,1.5983,1.5845,1.5798,1.5798,1.5798,1.5771,1.5716,1.5716,1.5689,2.8179,2.8192,2.8286,2.8537,2.8631,2.8724,2.8961,2.9285,2.9513,2.9526,3.0025,3.0426,3.0453,3.0635,3.0929,3.1162,3.1249,3.1356,3.165,3.1738,3.1797,3.2091,3.2131,3.2238,3.2581,3.2621,3.2621,3.2634,3.2621,3.2621,3.2634,3.2902,3.3,3.3,3.3267,3.3414,3.3414,3.3414,3.3414,3.3414,3.3414,3.3414,3.3414,3.3414,3.3414,3.3414,3.3414,3.3414,3.3414,3.3414,3.3414,3.3414,3.3414,3.3414,3.3414,3.3414,3.3414,3.3414,3.3414,3.3414,3.3414,3.3414,3.3414,3.3414,3.3414,3.3414,3.3414,3.3414,3.3414,3.3414,3.3414,3.32,3.3,3.3,3.2737,3.2439,3.2439,3.0218,2.8259,2.8259,2.6015,2.4117,2.3957,2.1866,2.0216,2.0216,1.8106,1.6537,1.6524,1.6402,1.632,1.632,1.6191,1.6103,1.6103,1.6103,1.6103,1.6103,1.6096,1.6096,1.6096,1.6083,1.6083,1.6083,1.6083,1.6083,1.6083,1.6083,1.6008,1.5915,1.5915,1.5791,2.8179,2.8353,2.8511,2.8591,2.8938,2.9285,2.9352,2.9593,2.9873,3.0132,3.0421,3.0755,3.0969,3.1249,3.1476,3.1543,3.1557,3.165,3.1944,3.1984,3.2104,3.2447,3.2474,3.2594,3.2888,3.2915,3.2959,3.3173,3.2986,3.3009,3.3187,3.3253,3.3293,3.3293,3.3374,3.3414,3.3414,3.3414,3.3414,3.3414,3.3414,3.3414,3.3414,3.3414,3.3414,3.3414,3.3414,3.3414,3.3414,3.3414,3.3414,3.3414,3.3414,3.3414,3.3414,3.3414,3.3414,3.3414,3.3414,3.3414,3.3414,3.3414,3.3414,3.3414,3.3414,3.3414,3.3414,3.3414,3.3414,3.3414,3.3414,3.336,3.3293,3.3293,3.1666,3.0137,3.0137,2.7947,2.601,2.601,2.3817,2.1268,1.9218,1.8299,1.7891,1.7891,1.7273,1.6781,1.6551,1.649,1.6469,1.6469,1.6435,1.6408,1.6408,1.6408,1.6408,1.6408,1.6307,1.6252,1.6252,1.6144,1.6083,1.6083,1.6083,1.6083,1.6083,1.6083,1.6062,1.6071,1.6071,1.6001,2.8353,2.847,2.8671,2.8925,2.9245,2.9553,2.9806,2.9993,3.0194,3.0488,3.0782,3.1036,3.1149,3.1463,3.1711,3.1711,3.1784,3.1917,3.2078,3.2211,3.2412,3.2755,3.2781,3.2902,3.3146,3.3173,3.324,3.34,3.3253,3.324,3.34,3.3414,3.3414,3.3414,3.3414,3.3414,3.3414,3.3414,3.3414,3.3414,3.3414,3.3414,3.3414,3.3414,3.3414,3.3414,3.3414,3.3414,3.3414,3.3414,3.3414,3.3414,3.3414,3.3414,3.3414,3.3414,3.3414,3.3414,3.3414,3.3414,3.3414,3.3414,3.3414,3.3414,3.3414,3.3414,3.3414,3.3414,3.3414,3.3414,3.3414,3.3414,3.3414,3.3414,3.2234,3.1113,3.1113,2.8952,2.6649,2.542,2.2958,2.0592,1.9044,1.7811,1.6978,1.6978,1.6978,1.6917,1.6748,1.6666,1.6567,1.6567,1.6564,1.6524,1.6524,1.6524,1.6524,1.6524,1.6449,1.6402,1.6402,1.632,1.6273,1.6273,1.6273,1.6273,1.6273,1.6212,1.6185,1.6178,1.611,1.6083,2.8537,2.8671,2.8845,2.9352,2.9513,2.9686,3.0279,3.04,3.0493,3.0782,3.1049,3.1189,3.1276,3.149,3.1724,3.1764,3.1931,3.2131,3.2211,3.2487,3.2755,3.3,3.304,3.3133,3.3387,3.3414,3.3414,3.3414,3.3414,3.3414,3.3414,3.3414,3.3414,3.3414,3.3414,3.3414,3.3414,3.3414,3.3414,3.3414,3.3414,3.3414,3.3414,3.3414,3.3414,3.3414,3.3414,3.3414,3.3414,3.3414,3.3414,3.3414,3.3414,3.3414,3.3414,3.3414,3.3414,3.3414,3.3414,3.3414,3.3414,3.3414,3.3414,3.3414,3.3414,3.3414,3.3414,3.3414,3.3414,3.3414,3.3414,3.3414,3.3414,3.3414,3.3414,3.3414,3.3414,3.1517,2.9014,2.6291,2.3826,2.2079,2.1725,1.9357,1.7549,1.7549,1.7241,1.6978,1.6978,1.6863,1.673,1.673,1.6659,1.6585,1.6585,1.6585,1.6585,1.6585,1.6564,1.6551,1.6551,1.653,1.6524,1.6524,1.6524,1.6524,1.6524,1.6395,1.6341,1.6334,1.6198,1.6137,2.8591,2.8965,2.9352,2.9459,2.9659,2.9927,3.0319,3.04,3.056,3.1036,3.1196,3.1303,3.1543,3.1684,3.1744,3.1984,3.2064,3.2265,3.2759,3.2866,3.3013,3.3307,3.3334,3.336,3.3414,3.3414,3.3414,3.3414,3.3414,3.3414,3.3414,3.3414,3.3414,3.3414,3.3414,3.3414,3.3414,3.3414,3.3414,3.3414,3.3414,3.3414,3.3414,3.3414,3.3414,3.3414,3.3414,3.3414,3.3414,3.3414,3.3414,3.3414,3.3414,3.3414,3.3414,3.3414,3.3414,3.3414,3.3414,3.3414,3.3414,3.3414,3.3414,3.3414,3.3414,3.3414,3.3414,3.3414,3.3414,3.3414,3.3414,3.3414,3.3414,3.3414,3.3414,3.3414,3.3414,3.305,3.1869,2.9116,2.819,2.717,2.4855,2.2235,2.0384,2.0384,1.8477,1.6978,1.6978,1.6958,1.6937,1.6937,1.6917,1.6904,1.6904,1.6904,1.6904,1.6904,1.6781,1.6655,1.6655,1.6533,1.6524,1.6524,1.6524,1.6524,1.6524,1.6497,1.6483,1.6483,1.6456,1.6442,2.8791,2.9152,2.9526,2.9673,2.9927,3.0221,3.0515,3.0702,3.0929,3.137,3.145,3.1503,3.1684,3.1797,3.1944,3.2078,3.2358,3.2652,3.2933,3.3106,3.3253,3.3387,3.3414,3.3414,3.3414,3.3414,3.3414,3.3414,3.3414,3.3414,3.3414,3.3414,3.3414,3.3414,3.3414,3.3414,3.3414,3.3414,3.3414,3.3414,3.3414,3.3414,3.3414,3.3414,3.3414,3.3414,3.3414,3.3414,3.3414,3.3414,3.3414,3.3414,3.3414,3.3414,3.3414,3.3414,3.3414,3.3414,3.3414,3.3414,3.3414,3.3414,3.3414,3.3414,3.3414,3.3414,3.3414,3.3414,3.3414,3.3414,3.3414,3.3414,3.3414,3.3414,3.3414,3.3414,3.3414,3.3414,3.3,3.1668,2.9104,2.6751,2.542,2.1725,1.8992,1.8992,1.7856,1.6978,1.6978,1.6978,1.6978,1.6978,1.6978,1.6978,1.6978,1.6978,1.6978,1.6978,1.691,1.687,1.687,1.6802,1.6761,1.6761,1.6761,1.6761,1.6761,1.668,1.6588,1.6588,1.6506,1.6524,2.9015,2.9352,2.9633,2.986,3.014,3.048,3.0728,3.1022,3.1316,3.161,3.1711,3.1738,3.1805,3.1944,3.2144,3.2265,3.2679,3.3,3.3066,3.3267,3.3414,3.3414,3.3414,3.3414,3.3414,3.3414,3.3414,3.3414,3.3414,3.3414,3.3414,3.3414,3.3414,3.3414,3.3414,3.3414,3.3414,3.3414,3.3414,3.3414,3.3414,3.3414,3.3414,3.3414,3.3414,3.3414,3.3414,3.3414,3.3414,3.3414,3.3414,3.3414,3.3414,3.3414,3.3414,3.3414,3.3414,3.3414,3.3414,3.3414,3.3414,3.3414,3.3414,3.3414,3.3414,3.3414,3.3414,3.3414,3.3414,3.3414,3.3414,3.3414,3.3414,3.3414,3.3414,3.3414,3.3414,3.3414,3.3414,3.3414,2.9927,2.6751,2.6188,2.2027,1.8581,1.7961,1.7398,1.6978,1.6978,1.6978,1.6978,1.6978,1.6978,1.6978,1.6978,1.6978,1.6978,1.6978,1.6978,1.6978,1.6978,1.6978,1.6978,1.6978,1.6978,1.6978,1.6978,1.6856,1.675,1.6743,1.668,1.6619,2.9366,2.9659,2.9887,2.9913,3.014,3.048,3.0728,3.1022,3.1316,3.161,3.1711,3.1744,3.2011,3.2078,3.2278,3.2812,3.2946,3.3066,3.3334,3.3387,3.3414,3.3414,3.3414,3.3414,3.3414,3.3414,3.3414,3.3414,3.3414,3.3414,3.3414,3.3414,3.3414,3.3414,3.3414,3.3414,3.3414,3.3414,3.3414,3.3414,3.3414,3.3414,3.3414,3.3414,3.3414,3.3414,3.3414,3.3414,3.3414,3.3414,3.3414,3.3414,3.3414,3.3414,3.3414,3.3414,3.3414,3.3414,3.3414,3.3414,3.3414,3.3414,3.3414,3.3414,3.3414,3.3414,3.3414,3.3414,3.3414,3.3414,3.3414,3.3414,3.3414,3.3414,3.3414,3.3414,3.3414,3.3414,3.3414,3.3414,3.3,3.1869,2.9369,2.6444,2.362,2.1103,1.8581,1.6978,1.6978,1.6978,1.6978,1.6978,1.6978,1.6978,1.6978,1.6978,1.6978,1.6978,1.6978,1.6978,1.6978,1.6978,1.6978,1.6978,1.6978,1.6978,1.6978,1.6965,1.6958,1.6958,1.6944,1.6937,2.9406,2.97,2.9967,3.014,3.0408,3.0702,3.0982,3.1276,3.153,3.1684,3.1711,3.1757,3.2051,3.2251,3.2554,3.2906,3.3133,3.328,3.3387,3.3414,3.3414,3.3414,3.3414,3.3414,3.3414,3.3414,3.3414,3.3414,3.3414,3.3414,3.3414,3.3414,3.3414,3.3414,3.3414,3.3414,3.3414,3.3414,3.3414,3.3414,3.3414,3.3414,3.3414,3.3414,3.3414,3.3414,3.3414,3.3414,3.3414,3.3414,3.3414,3.3414,3.3414,3.3414,3.3414,3.3414,3.3414,3.3414,3.3414,3.3414,3.3414,3.3414,3.3414,3.3414,3.3414,3.3414,3.3414,3.3414,3.3414,3.3414,3.3414,3.3414,3.3414,3.3414,3.3414,3.3414,3.3414,3.3414,3.3414,3.3414,3.2083,3.0596,2.9471,2.5676,2.2338,2.1259,1.8738,1.6978,1.6978,1.6978,1.6978,1.6978,1.6978,1.6978,1.6978,1.6978,1.6978,1.6978,1.6978,1.6978,1.6978,1.6978,1.6978,1.6978,1.6978,1.6978,1.6978,1.6978,1.6978,1.6978,1.6978,1.6978,2.9513,2.9766,2.998,3.0333,3.0627,3.0862,3.1156,3.145,3.1711,3.1711,3.1744,3.1891,3.2185,3.2527,3.2822,3.3053,3.328,3.3414,3.3414,3.3414,3.3414,3.3414,3.3414,3.3414,3.3414,3.3414,3.3414,3.3414,3.3414,3.3414,3.3414,3.3414,3.3414,3.3414,3.3414,3.3414,3.3414,3.3414,3.3414,3.3414,3.3414,3.3414,3.3414,3.3414,3.3414,3.3414,3.3414,3.3414,3.3414,3.3414,3.3414,3.3414,3.3414,3.3414,3.3414,3.3414,3.3414,3.3414,3.3414,3.3414,3.3414,3.3414,3.3414,3.3414,3.3414,3.3414,3.3414,3.3414,3.3414,3.3414,3.3414,3.3414,3.3414,3.3414,3.3414,3.3414,3.3414,3.3414,3.3414,3.3414,3.1831,3.0242,2.942,2.6086,2.2958,2.1362,1.9462,1.7908,1.7083,1.6978,1.6978,1.6978,1.6978,1.6978,1.6978,1.6978,1.6978,1.6978,1.6978,1.6978,1.6978,1.6978,1.6978,1.6978,1.6978,1.6978,1.6978,1.6978,1.6978,1.6978,1.6978,1.6978,2.9753,2.9913,2.998,3.0333,3.0627,3.0862,3.1156,3.145,3.1711,3.1711,3.1891,3.2185,3.2541,3.2835,3.3066,3.336,3.3414,3.3414,3.3414,3.3414,3.3414,3.3414,3.3414,3.3414,3.3414,3.3414,3.3414,3.3414,3.3414,3.3414,3.3414,3.3414,3.3414,3.3414,3.3414,3.3414,3.3414,3.3414,3.3414,3.3414,3.3414,3.3414,3.3414,3.3414,3.3414,3.3414,3.3414,3.3414,3.3414,3.3414,3.3414,3.3414,3.3414,3.3414,3.3414,3.3414,3.3414,3.3414,3.3414,3.3414,3.3414,3.3414,3.3414,3.3414,3.3414,3.3414,3.3414,3.3414,3.3414,3.3414,3.3414,3.3414,3.3414,3.3414,3.3414,3.3414,3.3414,3.3414,3.3414,3.3414,3.3364,3.2485,2.9775,2.9268,2.7374,2.1924,2.1051,2.0079,1.7346,1.6978,1.6978,1.6978,1.6978,1.6978,1.6978,1.6978,1.6978,1.6978,1.6978,1.6978,1.6978,1.6978,1.6978,1.6978,1.6978,1.6978,1.6978,1.6978,1.6978,1.6978,1.6978,1.6978,2.9753,3.006,3.0287,3.0581,3.0875,3.1169,3.1463,3.1597,3.1711,3.1711,3.1904,3.2198,3.2541,3.2835,3.3066,3.336,3.3414,3.3414,3.3414,3.3414,3.3414,3.3414,3.3414,3.3414,3.3414,3.3414,3.3414,3.3414,3.3414,3.3414,3.3414,3.3414,3.3414,3.3414,3.3414,3.3414,3.3414,3.3414,3.3414,3.3414,3.3414,3.3414,3.3414,3.3414,3.3414,3.3414,3.3414,3.3414,3.3414,3.3414,3.3414,3.3414,3.3414,3.3414,3.3414,3.3414,3.3414,3.3414,3.3414,3.3414,3.3414,3.3414,3.3414,3.3414,3.3414,3.3414,3.3414,3.3414,3.3414,3.3414,3.3414,3.3414,3.3414,3.3414,3.3414,3.3414,3.3414,3.3414,3.3414,3.3414,3.3414,3.31,3.2234,2.9003,2.6546,2.67,2.1924,1.8686,1.9662,1.817,1.6978,1.6978,1.6978,1.6978,1.6978,1.6978,1.6978,1.6978,1.6978,1.6978,1.6978,1.6978,1.6978,1.6978,1.6978,1.6978,1.6978,1.6978,1.6978,1.6978,1.6978,1.6978,2.9793,3.014,3.048,3.0715,3.1009,3.1303,3.1597,3.1711,3.1751,3.181,3.2064,3.2358,3.2701,3.2946,3.32,3.3387,3.3414,3.3414,3.3414,3.3414,3.3414,3.3414,3.3414,3.3414,3.3414,3.3414,3.3414,3.3414,3.3414,3.3414,3.3414,3.3414,3.3414,3.3414,3.3414,3.3414,3.3414,3.3414,3.3414,3.3414,3.3414,3.3467,3.3587,3.3587,3.3654,3.3748,3.3748,3.3748,0.0,3.3748,3.3748,3.3748,3.3748,3.3748,3.3748,3.3748,3.3748,3.3748,3.3748,3.3748,3.3748,3.3748,3.3748,3.3748,3.3748,3.3587,3.3414,3.3414,3.3414,3.3414,3.3414,3.3414,3.3414,3.3414,3.3414,3.3414,3.3414,3.3414,3.3414,3.3414,3.3414,3.3414,3.3414,2.9724,2.6955,2.7629,2.2493,1.879,1.9462,1.8065,1.6978,1.6978,1.6978,1.6978,1.6978,1.6978,1.6978,1.6978,1.6978,1.6978,1.6978,1.6978,1.6978,1.6978,1.6978,1.6978,1.6978,1.6978,1.6978,1.6978,1.6978,1.6978,0.0,3.0167,3.0493,3.0728,3.1022,3.133,3.161,3.1724,0.0,3.2051,3.2358,3.2701,3.2933,3.3213,3.3414,3.3414,3.3414,3.3414,3.3414,3.3414,3.3414,3.3414,3.3414,3.3414,3.3414,3.3414,3.3414,3.3414,3.3414,3.3427,3.344,3.344,3.3454,3.348,3.348,3.3467,3.344,3.3467,3.348,3.348,3.348,3.3627,3.3921,3.3921,3.4068,3.4322,3.4322,3.4322,3.4322,3.4322,3.4322,3.4322,3.4322,3.4322,3.4322,3.4322,3.4322,3.4322,3.4322,3.4322,3.4322,3.4322,3.4322,3.4322,3.4322,3.3921,3.348,3.348,3.348,3.348,3.348,3.348,3.348,3.348,3.348,3.348,3.348,3.348,3.348,3.348,3.348,3.348,3.348,3.1163,2.8552,2.619,2.3141,2.0304,1.793,1.7248,1.6978,1.6978,1.6978,1.6978,1.6978,1.6978,1.6978,1.6978,1.6978,1.6978,1.6978,1.6978,1.6978,1.6978,1.6978,1.6978,1.6978,1.6978,1.6978,1.6978,1.6978,1.6978,3.0226,0.0,3.0702,3.0768,3.1183,3.1583,0.0,3.1837,3.2024,3.2091,3.2519,3.2955,3.2973,3.3213,3.3414,3.3414,3.3414,3.3414,3.3414,3.3414,3.3414,3.3414,3.3414,3.3414,3.3414,3.3414,3.3414,3.3414,3.3414,3.3521,3.3761,3.3774,3.3881,3.4095,3.4108,3.4002,3.3774,3.3988,3.4108,3.4108,3.4108,3.4148,3.4215,3.4215,3.4255,3.4322,3.4322,3.4322,3.4322,3.4322,3.4322,3.4322,3.4322,3.4322,3.4322,3.4322,3.4322,3.4322,3.4322,3.4322,3.4322,3.4322,3.4322,3.4322,3.4322,3.4215,3.4108,3.4108,3.4108,3.4108,3.4108,3.4108,3.4108,3.4108,3.4108,3.4108,3.4108,3.4108,3.4108,3.4108,3.4108,3.4108,3.4108,3.18,3.0487,3.1954,2.6037,2.1934,2.3388,1.9741,1.6978,1.6978,1.6978,1.6978,1.6978,1.6978,1.6978,1.6978,1.6978,1.6978,1.6978,1.6978,1.6978,1.6978,1.6978,1.6978,1.6978,1.6978,1.6978,1.6978,1.6978,1.6978,3.0319,3.0614,3.0822,3.0955,3.133,3.1711,3.1711,3.1891,3.2144,3.2278,3.2666,3.3013,3.3146,3.3307,3.3414,3.3414,3.3414,3.3414,3.3414,3.3414,3.3414,3.3414,3.3414,3.3414,3.3414,3.3414,3.3414,3.3414,3.3547,3.3708,3.3881,3.4015,3.4162,3.4322,3.4456,3.4376,3.4095,3.4242,3.4322,3.4322,3.4322,3.4389,3.4523,3.4523,3.4589,3.4723,3.4723,3.4723,3.4723,3.4723,3.4723,3.4723,3.4723,3.4723,3.4723,3.4723,3.4723,3.4723,3.4723,3.4723,3.4723,3.4723,3.4723,3.4723,3.4723,3.4723,3.467,3.4402,3.4322,3.4322,3.4322,3.4322,3.4322,3.4322,3.4322,3.4322,3.4322,3.4322,3.4322,3.4322,3.4322,3.4322,3.4322,3.2039,3.0718,3.2194,2.7393,2.3654,2.3855,2.1152,1.8698,1.7341,1.7182,1.7182,1.7182,1.7182,1.7127,1.6992,1.6978,1.6978,1.6978,1.6978,1.6978,1.6978,1.6978,1.6978,1.6978,1.6978,1.6978,1.6978,1.6978,1.6978,3.0373,3.0654,3.0862,3.1156,3.145,3.1724,3.173,3.1957,3.2251,3.2594,3.2888,3.312,3.336,3.3414,3.3414,3.3414,3.3414,3.3414,3.3414,3.3414,3.3414,3.3414,3.3414,3.3414,3.3414,3.3454,3.348,3.348,3.3774,3.3975,3.4015,3.4255,3.4402,3.4456,3.4696,3.471,3.4456,3.4456,3.4456,3.4456,3.4456,3.4589,3.4882,3.4882,3.4963,3.5191,3.5191,3.5191,3.5191,3.5191,3.5191,3.5191,3.5191,3.5191,3.5191,3.5191,3.5191,3.5191,3.5191,3.5191,3.5191,3.5191,3.5191,3.5191,3.5191,3.5191,3.5097,3.4589,3.4456,3.4456,3.4456,3.4456,3.4456,3.4456,3.4456,3.4456,3.4456,3.4456,3.4456,3.4456,3.4456,3.4456,3.4456,3.2488,3.0942,3.0942,2.8584,2.5922,2.3434,2.2716,2.1333,1.8374,1.8058,1.7897,1.7419,1.7419,1.7311,1.7066,1.7046,1.7046,1.7046,1.7046,1.7046,1.7046,1.7046,1.7046,1.7046,1.7026,1.7012,1.7012,1.6992,1.6978,3.0581,3.0755,3.0862,3.1156,3.145,3.1778,3.1984,3.2313,3.2607,3.2902,3.3146,3.336,3.34,3.3414,3.3414,3.3414,3.3414,3.3414,3.3414,3.3414,3.3414,3.3414,3.3414,3.3414,3.3414,3.3654,3.3814,3.3814,3.4082,3.4362,3.4668,3.4721,3.4803,3.5057,3.511,3.511,3.5057,3.5057,3.5057,3.5057,3.5057,3.5084,3.5137,3.5137,3.5151,3.5191,3.5191,3.5191,3.5191,3.5191,3.5191,3.5191,3.5191,3.5191,3.5191,3.5191,3.5191,3.5191,3.5191,3.5191,3.5191,3.5191,3.5191,3.5191,3.5191,3.5191,3.5177,3.5084,3.5057,3.5057,3.5057,3.5057,3.5057,3.5057,3.5057,3.5057,3.5057,3.5057,3.5057,3.5057,3.5057,3.5057,3.5057,3.4689,3.4413,3.4413,3.1842,2.9768,2.9293,2.7039,2.4288,2.1378,2.1058,2.0059,1.7635,1.7419,1.7399,1.7358,1.7351,1.7351,1.7351,1.7351,1.7351,1.7351,1.7351,1.7351,1.7351,1.7222,1.7161,1.7154,1.7039,1.6978,3.0675,3.0902,3.1102,3.1396,3.169,3.1944,3.2078,3.2452,3.2862,3.2946,3.3213,3.3414,3.3414,3.3414,3.3414,3.3414,3.3414,3.3414,3.3414,3.3414,3.3414,3.3414,3.3414,3.348,3.3654,3.3801,3.3948,3.4108,3.4389,3.4616,3.4802,3.4962,3.5057,3.5191,3.5191,3.5191,3.5191,3.5191,3.5191,3.5191,3.5191,3.5191,3.5191,3.5191,3.5191,3.5191,3.5191,3.5191,3.5191,3.5191,3.5191,3.5191,3.5191,3.5191,3.5191,3.5191,3.5191,3.5191,3.5191,3.5191,3.5191,3.5191,3.5191,3.5191,3.5191,3.5191,3.5191,3.5191,3.5191,3.5191,3.5191,3.5191,3.5191,3.5191,3.5191,3.5191,3.5191,3.5191,3.5191,3.5191,3.5191,3.5191,3.5191,3.5191,3.5191,3.5191,3.3991,3.2505,3.0935,2.9546,2.7558,2.4611,2.4299,2.3762,2.2434,2.0883,1.925,1.7534,1.7419,1.7419,1.7419,1.7419,1.7419,1.7419,1.7419,1.7419,1.7419,1.7351,1.7317,1.7311,1.7249,1.7216,3.0795,3.1049,3.1316,3.1677,3.1931,3.2118,3.2185,3.2612,3.3,3.3066,3.3253,3.3414,3.3414,3.3414,3.3414,3.3414,3.3414,3.3414,3.3414,3.3414,3.344,3.3507,3.3521,3.3641,3.3961,3.4055,3.4189,3.4402,3.4696,3.487,3.487,3.5084,3.5191,3.5191,3.5191,3.5191,3.5191,3.5191,3.5191,3.5191,3.5191,3.5191,3.5191,3.5191,3.5191,3.5191,3.5191,3.5191,3.5191,3.5191,3.5191,3.5191,3.5191,3.5191,3.5191,3.5191,3.5191,3.5191,3.5191,3.5191,3.5191,3.5191,3.5191,3.5191,3.5191,3.5191,3.5191,3.5191,3.5191,3.5191,3.5191,3.5191,3.5191,3.5191,3.5191,3.5191,3.5191,3.5191,3.5191,3.5191,3.5191,3.5191,3.5191,3.5191,3.5191,3.5191,3.5191,3.4372,3.2201,3.1923,3.0792,2.7823,2.6907,2.5934,2.458,2.2475,2.0154,1.7643,1.7528,1.7528,1.7528,1.7528,1.7528,1.7528,1.7528,1.7528,1.7528,1.7494,1.7473,1.7473,1.7385,1.7419,3.1036,3.1209,3.1356,3.1931,3.2091,3.2171,3.25,3.2808,3.3053,3.332,3.34,3.3414,3.3414,3.3414,3.3414,3.3414,3.3414,3.3414,3.3414,3.3414,3.3521,3.3814,3.3855,3.3961,3.4255,3.4536,3.4762,3.4788,3.5004,3.5164,3.5164,3.5191,3.5191,3.5191,3.5191,3.5191,3.5191,3.5191,3.5191,3.5191,3.5191,3.5191,3.5191,3.5191,3.5191,3.5191,3.5191,3.5191,3.5191,3.5191,3.5191,3.5191,3.5191,3.5191,3.5191,3.5191,3.5191,3.5191,3.5191,3.5191,3.5191,3.5191,3.5191,3.5191,3.5191,3.5191,3.5191,3.5191,3.5191,3.5191,3.5191,3.5191,3.5191,3.5191,3.5191,3.5191,3.5191,3.5191,3.5191,3.5191,3.5191,3.5191,3.5191,3.5191,3.5191,3.5191,3.5191,3.5138,3.4927,3.4874,3.3778,3.0899,2.8145,2.4308,1.8949,1.8357,1.8129,1.7881,1.7881,1.7881,1.7881,1.7881,1.7881,1.7881,1.7881,1.7881,1.7881,1.7704,1.7575,1.7575,1.7433,1.7419,3.2963,3.3636,3.3834,3.4278,3.5744,3.6348,3.3502,3.304,3.3765,3.5472,3.4521,3.3414,3.3414,3.3414,3.3414,3.3414,3.3414,3.3414,3.3414,3.3587,3.3748,3.3868,3.4042,3.4269,3.4563,3.4748,3.4895,3.5017,3.5137,3.5191,3.5191,3.5191,3.5191,3.5191,3.5191,3.5191,3.5191,3.5191,3.5191,3.5191,3.5191,3.5191,3.5191,3.5191,3.5191,3.5191,3.5191,3.5191,3.5191,3.5191,3.5191,3.5191,3.5191,3.5191,3.5191,3.5191,3.5191,3.5191,3.5191,3.5191,3.5191,3.5191,3.5191,3.5191,3.5191,3.5191,3.5191,3.5191,3.5191,3.5191,3.5191,3.5191,3.5191,3.5191,3.5191,3.5191,3.5191,3.5191,3.5191,3.5191,3.5191,3.5191,3.5191,3.5191,3.5191,3.5191,3.5191,3.5191,3.5191,3.5191,3.4755,3.3672,3.0952,2.7597,2.3611,2.1609,1.9823,1.8033,1.7915,1.7915,1.7915,1.7915,1.7915,1.7915,1.7915,1.7915,1.7915,1.7812,1.7772,1.7772,1.7724,1.7704,3.4506,3.5821,3.6761,3.7054,3.8151,3.8259,3.5053,3.4482,3.4919,3.5882,3.5302,3.4386,3.355,3.4086,3.4386,3.35,3.3414,3.3454,3.3547,3.3748,3.3961,3.4148,3.4336,3.4576,3.4922,3.4949,3.4977,3.5177,3.5191,3.5191,3.5191,3.5191,3.5191,3.5191,3.5191,3.5191,3.5191,3.5191,3.5191,3.5191,3.5191,3.5191,3.5191,3.5191,3.5191,3.5191,3.5191,3.5191,3.5191,3.5191,3.5191,3.5191,3.5191,3.5191,3.5191,3.5191,3.5191,3.5191,3.5191,3.5191,3.5191,3.5191,3.5191,3.5191,3.5191,3.5191,3.5191,3.5191,3.5191,3.5191,3.5191,3.5191,3.5191,3.5191,3.5191,3.5191,3.5191,3.5191,3.5191,3.5191,3.5191,3.5191,3.5191,3.5191,3.5191,3.5191,3.5191,3.5191,3.5191,3.5191,3.4874,3.3936,3.2095,2.9712,2.6745,2.4688,2.2311,1.9445,1.9232,1.8853,1.7922,1.7915,1.7915,1.7915,1.7915,1.7915,1.7915,1.7915,1.7915,1.7915,1.7915,1.7915,3.5295,3.7458,3.9696,4.003,3.8545,3.7024,3.7207,3.7297,3.6588,3.395,3.55,3.6509,3.39,3.5536,3.6411,3.38,3.3414,3.3521,3.3841,3.3895,3.4108,3.4748,3.4815,3.4936,3.5164,3.5191,3.5191,3.5191,3.5191,3.5191,3.5191,3.5191,3.5191,3.5191,3.5191,3.5191,3.5191,3.5191,3.5191,3.5191,3.5191,3.5191,3.5191,3.5191,3.5191,3.5191,3.5191,3.5191,3.5191,3.5191,3.5191,3.5191,3.5191,3.5191,3.5191,3.5191,3.5191,3.5191,3.5191,3.5204,3.5204,3.5204,3.5204,3.5204,3.5204,3.5204,3.5204,3.5204,3.5204,3.5204,3.5204,3.5204,3.5204,3.5191,3.5191,3.5191,3.5191,3.5191,3.5191,3.5191,3.5191,3.5191,3.5191,3.5191,3.5191,3.5191,3.5191,3.5191,3.5191,3.5191,3.4108,3.1272,3.0899,2.9647,2.6745,2.6475,2.5176,2.2328,2.2156,2.0905,1.8033,1.7915,1.7915,1.7915,1.7915,1.7915,1.7915,1.7915,1.7915,1.7915,1.7915,1.7915,3.9832,4.1565,4.1901,4.0704,4.2649,4.3028,3.6141,3.5981,3.71,3.6312,3.6756,3.6509,3.39,3.4037,3.4286,3.35,3.3601,3.3774,3.3868,3.4293,3.4628,3.4788,3.495,3.5097,3.5191,3.5191,3.5191,3.5191,3.5191,3.5191,3.5191,3.5191,3.5191,3.5191,3.5191,3.5191,3.5191,3.5191,3.5191,3.5191,3.5191,3.5191,3.5191,3.5191,3.5191,3.5191,3.5191,3.5191,3.5191,3.5191,3.5191,3.5191,3.5191,3.5191,3.5191,3.5191,3.5191,3.5191,3.5191,3.5324,3.5498,3.5498,3.5645,3.5819,3.5819,3.5819,3.5819,3.5819,3.5819,3.5819,3.5819,3.5819,3.5712,3.5297,3.5191,3.5191,3.5191,3.5191,3.5191,3.5191,3.5191,3.5191,3.5191,3.5191,3.5191,3.5191,3.5191,3.5191,3.5191,3.5191,3.4861,3.3989,3.0258,2.7446,2.6583,2.2794,2.009,1.9232,1.9177,1.8791,1.7922,1.7915,1.7915,1.7915,1.7915,1.7915,1.7915,1.7915,1.7915,1.7915,1.7915,1.7915,4.2087,4.3434,4.3568,4.3577,4.5278,4.5117,3.8102,3.6129,3.5734,3.5734,3.6559,3.6524,3.39,3.4236,3.4621,3.355,3.3681,3.3921,3.4042,3.4469,3.4855,3.4976,3.5084,3.5191,3.5191,3.5191,3.5191,3.5191,3.5191,3.5191,3.5191,3.5191,3.5191,3.5191,3.5191,3.5191,3.5191,3.5191,3.5191,3.5191,3.5191,3.5191,3.5191,3.5191,3.5191,3.5191,3.5191,3.5191,3.5191,3.5191,3.5191,3.5191,3.5191,3.5271,3.5364,3.5364,3.5444,3.5538,3.5538,3.5658,3.5805,3.5805,3.5925,3.6072,3.6072,3.6072,3.6072,3.6072,3.6072,3.6072,3.6072,3.6072,3.5979,3.5631,3.5538,3.5538,3.5538,3.5538,3.5538,3.5538,3.5538,3.5538,3.5538,3.5538,3.5538,3.5538,3.5538,3.5538,3.5538,3.5538,3.5538,3.5538,3.2413,3.0342,3.0342,2.6027,2.2799,2.1665,2.0463,1.9248,1.8099,1.7935,1.7915,1.7915,1.7915,1.7915,1.7915,1.7915,1.7915,1.7915,1.7915,1.7915,4.2891,4.3988,4.4893,4.7304,4.6262,4.3974,4.1428,3.7183,3.375,3.375,3.5465,3.6243,3.385,3.5352,3.6179,3.3841,3.3721,3.4028,3.4322,3.4616,3.4949,3.5164,3.5191,3.5191,3.5191,3.5191,3.5191,3.5191,3.5191,3.5191,3.5191,3.5191,3.5191,3.5191,3.5191,3.5191,3.5191,3.5191,3.5191,3.5191,3.5191,3.5191,3.5191,3.5191,3.5191,3.5191,3.5191,3.5204,3.5231,3.5231,3.5244,3.5271,3.5271,3.5444,3.5672,3.5672,3.5845,3.6072,3.6072,3.614,3.6112,3.6112,3.6126,3.6153,3.6153,3.6153,3.6153,3.6153,3.6153,3.6153,3.6153,3.6153,3.6153,3.6153,3.6112,3.6072,3.6072,3.6072,3.6072,3.6072,3.6072,3.6072,3.6072,3.6072,3.6072,3.6072,3.6072,3.6072,3.6072,3.6072,3.6072,3.6072,3.5856,3.568,3.568,3.2889,2.9888,2.702,2.4204,2.1326,1.8435,1.8057,1.7956,1.7956,1.7956,1.7956,1.7956,1.7956,1.7956,1.7956,1.7956,1.7956,4.5875,4.6992,4.703,4.5955,4.3856,4.1332,3.8734,3.7282,3.646,3.646,3.5253,3.405,3.35,3.385,3.4118,3.3849,3.4028,3.4336,3.4629,3.4923,3.5124,3.5191,3.5191,3.5191,3.5191,3.5191,3.5191,3.5191,3.5191,3.5191,3.5191,3.5191,3.5191,3.5191,3.5191,3.5191,3.5191,3.5191,3.5191,3.5191,3.5191,3.5191,3.5191,3.5191,3.5191,3.5191,3.5191,3.5324,3.5538,3.5538,3.5672,3.5885,3.5885,3.5925,3.5979,3.5979,3.6019,3.6072,3.6072,3.6219,3.6393,3.6393,3.658,3.6754,3.6754,3.6754,3.6754,3.6754,3.6754,3.6754,3.6754,3.6754,3.6754,3.6754,3.6393,3.6072,3.6072,3.6072,3.6072,3.6072,3.6072,3.6072,3.6072,3.6072,3.6072,3.6072,3.6072,3.6072,3.6072,3.6072,3.6072,3.6072,3.4015,3.2671,3.2671,2.9954,2.702,2.4028,2.319,2.1478,1.8435,1.8247,1.8213,1.8213,1.8213,1.8213,1.8213,1.8213,1.8213,1.8213,1.8213,1.8213,4.7044,4.7189,4.6546,4.6802,4.4021,4.085,3.9463,3.7198,3.5451,3.5451,3.4336,3.3414,3.3414,3.3534,3.3694,3.3855,3.4255,3.4589,3.4788,3.5017,3.5191,3.5191,3.5191,3.5191,3.5191,3.5191,3.5191,3.5191,3.5191,3.5191,3.5191,3.5191,3.5191,3.5191,3.5191,3.5191,3.5191,3.5191,3.5191,3.5191,3.5191,3.5271,3.5404,3.5404,3.5404,3.5418,3.5551,3.5698,3.5845,3.5845,3.5939,3.6072,3.6072,3.6166,3.6273,3.6273,3.6366,3.6473,3.6473,3.658,3.6672,3.6672,3.6779,3.6885,3.6885,3.6885,3.6885,3.6885,3.6885,3.6885,3.6885,3.6885,3.6885,3.6885,3.6672,3.6473,3.6473,3.6473,3.6473,3.6473,3.6473,3.6473,3.6473,3.6473,3.6473,3.6473,3.6473,3.6473,3.6473,3.6473,3.6473,3.6473,3.5133,3.4186,3.4186,3.1487,2.9119,2.7555,2.6098,2.3919,2.0846,2.0668,1.9917,1.8321,1.8321,1.8321,1.8321,1.8321,1.8321,1.8321,1.8321,1.8321,4.7424,4.6785,4.5816,4.776,4.5049,4.1716,4.1252,3.7478,3.4086,3.4086,3.37,3.3427,3.348,3.3708,3.3921,3.4028,3.4442,3.4829,3.4882,3.5044,3.5191,3.5191,3.5191,3.5191,3.5191,3.5191,3.5191,3.5191,3.5191,3.5191,3.5191,3.5191,3.5191,3.5191,3.5191,3.5191,3.5191,3.5191,3.5217,3.5271,3.5324,3.5471,3.5712,3.5752,3.5752,3.5712,3.5965,3.6153,3.6153,3.6153,3.6179,3.6219,3.6219,3.6366,3.658,3.658,3.6727,3.6885,3.6885,3.6885,3.6885,3.6885,3.6885,3.6885,3.6885,3.6885,3.6885,3.6885,3.6885,3.6885,3.6885,3.6885,3.6885,3.6885,3.6885,3.6885,3.6885,3.6885,3.6885,3.6885,3.6885,3.6885,3.6885,3.6885,3.6885,3.6885,3.6885,3.6885,3.6885,3.6885,3.6885,3.6885,3.6885,3.6885,3.6885,3.4599,3.2968,3.2441,3.008,2.7286,2.4244,2.4063,2.2555,1.9235,1.8623,1.8389,1.8389,1.8389,1.8389,1.8389,1.8389,1.8389,4.7975,4.8247,4.7872,4.6008,4.5002,4.3927,4.1668,3.8929,3.6805,3.6805,3.4955,3.3494,3.3774,3.3855,3.4055,3.4614,3.4762,3.4909,3.5097,3.5177,3.5191,3.5191,3.5191,3.5191,3.5191,3.5191,3.5191,3.5191,3.5191,3.5191,3.5191,3.5191,3.5191,3.5191,3.5191,3.5191,3.5191,3.5191,3.5324,3.5578,3.5832,3.5979,3.6019,3.6273,3.6246,3.6019,3.6059,3.6219,3.6433,3.6433,3.6552,3.6779,3.6779,3.6834,3.6874,3.6874,3.6845,3.6885,3.6885,3.6885,3.6885,3.6885,3.6885,3.6885,3.6885,3.6885,3.6885,3.6885,3.6885,3.6885,3.6885,3.6885,3.6885,3.6885,3.6885,3.6885,3.6885,3.6885,3.6885,3.6885,3.6885,3.6885,3.6885,3.6885,3.6885,3.6885,3.6885,3.6885,3.6885,3.6885,3.6885,3.6885,3.6885,3.6885,3.6885,3.654,3.5181,3.2564,3.2037,3.0418,2.7409,2.7306,2.5845,2.2678,2.0066,1.8708,1.8708,1.8708,1.8708,1.8708,1.8708,1.8708,4.8457,4.8757,4.8617,4.7465,4.6102,4.4305,4.1764,3.9156,3.6889,3.5401,3.4337,3.3721,3.3855,3.4015,3.4269,3.4748,3.4949,3.5057,3.5177,3.5191,3.5191,3.5191,3.5191,3.5191,3.5191,3.5191,3.5191,3.5191,3.5191,3.5191,3.5191,3.5191,3.5191,3.5191,3.5191,3.5271,3.5431,3.5431,3.5591,3.5885,3.6179,3.6313,3.6326,3.662,3.658,3.6326,3.6473,3.662,3.6699,3.6699,3.6779,3.6885,3.6885,3.6885,3.6885,3.6885,3.6885,3.6885,3.6885,3.6885,3.6885,3.6885,3.6885,3.6885,3.6885,3.6885,3.6885,3.6885,3.6885,3.6885,3.6885,3.6885,3.6885,3.6885,3.6885,3.6885,3.6885,3.6885,3.6885,3.6885,3.6885,3.6885,3.6885,3.6885,3.6885,3.6885,3.6885,3.6885,3.6885,3.6885,3.6885,3.6885,3.6885,3.6885,3.6885,3.6885,3.6331,3.5002,3.4933,3.3583,3.0565,3.0418,2.9007,2.593,2.2867,2.0464,1.882,1.882,1.882,1.882,1.882,1.882,4.8815,4.8913,4.8913,4.8913,4.6915,4.4494,4.2577,3.9658,3.6982,3.5799,3.4652,3.4175,3.4972,3.473,3.4536,3.483,3.5057,3.5191,3.5191,3.5191,3.5191,3.5191,3.5191,3.5191,3.5191,3.5191,3.5191,3.5191,3.5191,3.5191,3.5191,3.5191,3.5191,3.5191,3.5271,3.5404,3.5631,3.5725,3.5965,3.6179,3.6473,3.662,3.662,3.6834,3.6779,3.662,3.6834,3.6885,3.6885,3.6885,3.6885,3.6885,3.6885,3.6885,3.6885,3.6885,3.6885,3.6885,3.6885,3.6885,3.6885,3.6885,3.6885,3.6941,3.7008,3.7048,3.7048,3.7099,3.7155,3.7155,3.7155,3.7155,3.7155,3.7155,3.7155,3.7059,3.6912,3.6885,3.6885,3.6885,3.6885,3.6885,3.6885,3.6885,3.6885,3.6885,3.6885,3.6885,3.6885,3.6885,3.6885,3.6885,3.6885,3.6885,3.6885,3.6885,3.6885,3.6885,3.6885,3.5861,3.3639,3.3515,3.1768,2.7987,2.6396,2.3719,1.9965,1.9965,1.956,1.882,1.882,1.882,4.8894,4.8913,4.8913,4.8913,4.6915,4.4984,4.4843,4.0915,3.8074,4.0772,3.7406,3.4843,3.7965,3.6496,3.483,3.5124,3.5191,3.5191,3.5191,3.5191,3.5191,3.5191,3.5191,3.5191,3.5191,3.5191,3.5191,3.5191,3.5191,3.5191,3.5191,3.5191,3.5191,3.5191,3.5458,3.5618,3.5578,3.6179,3.6473,3.6473,3.6739,3.6901,3.6901,3.6885,3.6885,3.6901,3.6885,3.6885,3.6885,3.6885,3.6885,3.6885,3.6885,3.6885,3.6885,3.6885,3.6885,3.6885,3.6885,3.6885,3.6885,3.6885,3.6885,3.6981,3.7275,3.7342,3.7422,3.7702,3.7782,3.7782,3.7782,3.7782,3.7782,3.7782,3.7782,3.7579,3.6992,3.6885,3.6885,3.6885,3.6885,3.6885,3.6885,3.6885,3.6885,3.6885,3.6885,3.6885,3.6885,3.6885,3.6885,3.6885,3.6885,3.6885,3.6885,3.6885,3.6885,3.6885,3.6885,3.6817,3.6664,3.6664,3.3918,2.7987,3.0565,2.8975,2.3048,2.3048,2.1625,1.882,1.882,1.882,4.8913,4.8913,4.8913,4.8913,4.8227,4.6635,4.3309,4.2386,4.1206,3.7496,3.6694,3.6577,3.6299,3.5464,3.4909,3.5151,3.5191,3.5191,3.5191,3.5191,3.5191,3.5191,3.5191,3.5191,3.5191,3.5191,3.5191,3.5191,3.5191,3.5191,3.5191,3.5378,3.5471,3.5471,3.5765,3.6006,3.6193,3.658,3.6739,3.6739,3.6845,3.6885,3.6885,3.6885,3.6885,3.6885,3.6885,3.6885,3.6885,3.6885,3.6885,3.6885,3.6885,3.6885,3.6885,3.6885,3.6885,3.6912,3.7155,3.7235,3.7261,3.7392,3.7489,3.7529,3.7635,3.7676,3.7676,3.7782,3.7809,3.7809,3.7809,3.7809,3.7809,3.7809,3.7809,3.7742,3.7499,3.7489,3.7489,3.7489,3.7489,3.7489,3.7489,3.7489,3.7489,3.7489,3.7489,3.7489,3.7489,3.7489,3.7489,3.7489,3.7489,3.7489,3.7489,3.7489,3.7489,3.7489,3.7489,3.7489,3.7489,3.7489,3.645,3.4321,3.5296,3.1727,2.3318,2.3318,2.2744,2.1667,1.9683,1.882,4.8913,4.8913,4.8913,4.8913,4.8913,4.7539,4.2386,4.2584,4.2258,3.6572,3.6309,3.6914,3.6429,3.5562,3.4977,3.5164,3.5191,3.5191,3.5191,3.5191,3.5191,3.5191,3.5191,3.5191,3.5191,3.5191,3.5191,3.5191,3.5191,3.5244,3.5338,3.5525,3.5671,3.5912,3.6112,3.6353,3.6647,3.6834,3.6885,3.6885,3.6885,3.6885,3.6885,3.6885,3.6885,3.6885,3.6885,3.6885,3.6885,3.6885,3.6885,3.6885,3.6885,3.6952,3.7088,3.7088,3.7099,3.7206,3.7448,3.7529,3.7555,3.7742,3.7809,3.7793,3.7929,3.7969,3.7996,3.8103,3.8103,3.8103,3.8103,3.8103,3.8103,3.8103,3.8103,3.8103,3.8103,3.7956,3.7809,3.7809,3.7809,3.7809,3.7809,3.7809,3.7809,3.7809,3.7809,3.7809,3.7809,3.7809,3.7809,3.7809,3.7809,3.7809,3.7809,3.7809,3.7809,3.7809,3.7809,3.7809,3.7809,3.7809,3.7342,3.6294,3.7272,3.4135,2.6654,2.6654,2.6128,2.5045,2.1948,1.9949,0.0,0.0,0.0,4.8913,4.8913,4.7558,4.2482,4.1582,4.1179,3.8877,3.6606,3.5858,3.8656,3.6988,3.5191,3.5191,3.5191,3.5191,3.5191,3.5191,3.5191,3.5191,3.5191,3.5191,3.5191,3.5191,3.5191,3.5191,3.5204,3.5338,3.5618,3.5591,3.5925,3.65,3.6513,3.6647,3.6885,3.6885,3.6885,3.6885,3.6885,3.6885,3.6885,3.6885,3.6885,3.6885,3.6885,3.6885,3.6885,3.6885,3.6885,3.6885,3.6885,3.7128,3.7382,3.7382,3.7569,3.7809,3.7809,3.7809,3.7823,3.7793,3.7849,3.7889,3.8183,3.8321,3.8388,3.8651,3.8718,3.8718,3.8718,3.8718,3.8718,3.8718,3.8718,3.8718,3.8718,3.825,3.7849,3.7849,3.7849,3.7849,3.7849,3.7849,3.7849,3.7849,3.7849,3.7849,3.7849,3.7849,3.7849,3.7849,3.7849,3.7849,3.7849,3.7849,3.7849,3.7849,3.7849,3.7849,3.7849,3.7849,3.6459,3.3551,3.6332,3.6389,3.3482,3.3241,3.1654,2.8763,2.5491,2.2303,4.8913,0.0,0.0,0.0,0.0,0.0,4.4701,4.5688,4.558,3.9513,3.9449,3.9633,3.6879,3.5704,3.5191,3.5191,3.5191,3.5191,3.5191,3.5191,3.5191,3.5191,3.5191,3.5191,3.5191,3.5191,3.5191,3.5191,3.5391,3.5551,3.5631,3.6032,3.6433,3.6794,3.6779,3.6805,3.6885,3.6885,3.6885,3.6885,3.6885,3.6885,3.6885,3.6885,3.6885,3.6885,3.6885,3.7048,3.7235,3.7008,3.7048,3.7275,3.7275,3.7448,3.7702,3.7702,3.7742,3.7849,3.8076,3.8143,3.8183,3.8397,3.8464,3.8477,3.8584,3.8584,3.8611,3.8691,3.8718,3.8718,3.8718,3.8718,3.8718,3.8718,3.8718,3.8718,3.8718,3.8584,3.8464,3.8464,3.8464,3.8464,3.8464,3.8464,3.8464,3.8464,3.8464,3.8464,3.8464,3.8464,3.8464,3.8464,3.8464,3.8464,3.8464,3.8464,3.8464,3.8464,3.8464,3.8464,3.8464,3.8464,3.8047,3.7238,3.8047,3.8047,3.718,3.225,3.0616,3.1907,2.6493,2.3507,4.8913,4.8913,4.8913,4.8913,0.0,0.0,4.4376,4.5913,4.5928,3.8331,3.9154,4.0056,3.5926,3.5191,3.5191,3.5191,3.5191,3.5191,3.5191,3.5191,3.5191,3.5191,3.5191,3.5191,3.5191,3.5191,3.5191,3.5191,3.5471,3.5738,3.5979,3.6433,3.6754,3.6885,3.6885,3.6885,3.6885,3.6885,3.6885,3.6885,3.6885,3.6885,3.6885,3.6885,3.6952,3.7128,3.7128,3.7301,3.7555,3.7382,3.7408,3.7569,3.7569,3.7742,3.7996,3.7996,3.8076,3.821,3.8397,3.8495,3.8477,3.8651,3.8718,3.8718,3.8718,3.8718,3.8718,3.8718,3.8718,3.8718,3.8718,3.8718,3.8718,3.8718,3.8718,3.8718,3.8718,3.8718,3.8718,3.8718,3.8718,3.8718,3.8718,3.8718,3.8718,3.8718,3.8718,3.8718,3.8718,3.8718,3.8718,3.8718,3.8718,3.8718,3.8718,3.8718,3.8718,3.8718,3.8718,3.8718,3.8718,3.8718,3.8718,3.8718,3.8718,3.8021,3.6675,3.406,3.3013,3.3477,2.9799,2.7443,0.0,0.0,0.0,4.8913,4.8933,0.0,4.3476,4.4618,4.463,3.757,3.8288,3.9373,3.6621,3.6111,3.6111,3.6111,3.5862,3.5559,3.5243,3.5191,3.5191,3.5191,3.5191,3.5191,3.5191,3.5191,3.5204,3.5244,3.5538,3.5965,3.6485,3.6794,3.6885,3.6885,3.6885,3.6885,3.6885,3.6885,3.6885,3.6885,3.6885,3.6885,3.6885,3.6925,3.7128,3.7382,3.7422,3.7595,3.7849,3.7849,3.7849,3.7849,3.7849,3.8036,3.8348,3.8348,3.8477,3.8718,3.8718,3.8718,3.8718,3.8718,3.8718,3.8718,3.8718,3.8718,3.8718,3.8718,3.8718,3.8718,3.8718,3.8718,3.8718,3.8718,3.8718,3.8718,3.8718,3.8718,3.8718,3.8718,3.8718,3.8718,3.8718,3.8718,3.8718,3.8718,3.8718,3.8718,3.8718,3.8718,3.8718,3.8718,3.8718,3.8718,3.8718,3.8718,3.8718,3.8718,3.8718,3.8718,3.8718,3.8718,3.8718,3.8718,3.8718,3.7296,3.4416,3.7329,3.7037,3.3923,3.3923,3.2383,4.8913,4.8913,4.8913,4.8913,4.9121,0.0,4.8186,4.8938,4.8845,4.5111,4.5142,4.5,4.2201,4.169,4.169,4.169,3.9926,3.7742,3.5507,3.5191,3.5191,3.5191,3.5191,3.5191,3.5191,3.5191,3.5297,3.5525,3.6032,3.6445,3.6779,3.6845,3.6885,3.6885,3.6885,3.6885,3.6885,3.6885,3.6885,3.6885,3.6885,3.6885,3.6885,3.7195,3.7342,3.7382,3.7635,3.7889,3.8183,3.8183,3.8183,3.8183,3.8183,3.8357,3.8624,3.8624,3.8691,3.8718,3.8718,3.8718,3.8718,3.8718,3.8718,3.8718,3.8718,3.8718,3.8718,3.8718,3.8718,3.8718,3.8718,3.8718,3.8718,3.8718,3.8718,3.8718,3.8718,3.8718,3.8718,3.8718,3.8718,3.8718,3.8718,3.8718,3.8718,3.8718,3.8718,3.8718,3.8718,3.8718,3.8718,3.8718,3.8718,3.8718,3.8718,3.8718,3.8718,3.8718,3.8718,3.8718,3.8718,3.8718,3.8718,3.8718,3.8718,3.8369,3.7749,3.8369,3.7037,3.3923,3.3923,3.3571,4.8913,4.8913,4.8913,4.8913,4.9199,0.0,0.0,4.934,4.9712,4.5836,4.6278,4.6569,4.3824,4.3318,4.3318,4.3318,4.1041,3.927,3.927,3.6935,3.5191,3.5191,3.5191,3.5191,3.5191,3.5324,3.5591,3.6032,3.634,3.6592,3.6885,3.6885,3.6885,3.6885,3.6885,3.6885,3.6885,3.6885,3.6885,3.6885,3.6885,3.7008,3.7155,3.7315,3.7585,3.7879,3.7969,3.8223,3.8477,3.8477,3.8477,3.8477,3.8477,3.8584,3.8718,3.8718,3.8718,3.8718,3.8718,3.8718,3.8718,3.8718,3.8718,3.8718,3.8718,3.8718,3.8718,3.8718,3.8718,3.8718,3.8718,3.8718,3.8718,3.8718,3.8718,3.8718,3.8718,3.8718,3.8718,3.8718,3.8718,3.8718,3.8718,3.8718,3.8718,3.8718,3.8718,3.8718,3.8718,3.8718,3.8718,3.8718,3.8718,3.8718,3.8718,3.8718,3.8718,3.8718,3.8718,3.8718,3.8718,3.8718,3.8718,3.8718,3.8718,3.8718,3.8718,3.8718,3.7878,3.6313,3.6313,3.6313,4.8913,4.8972,4.9031,4.9031,4.9375,4.9278,0.0,0.0,0.0,4.5683,4.6619,4.7482,4.5284,4.4832,4.4832,4.4832,4.2608,4.1604,4.3774,3.9874,3.6778,3.6778,3.5862,3.5401,3.5967,3.6281,3.6503,3.6473,3.7087,3.7264,3.6941,3.6885,3.6885,3.6885,3.6885,3.6885,3.6885,3.6885,3.6885,3.6885,3.6952,3.7155,3.7382,3.7489,3.7823,3.8321,3.833,3.8477,3.8718,3.8718,3.8718,3.8718,3.8718,3.8718,3.8718,3.8718,3.8718,3.8718,3.8718,3.8718,3.8718,3.8718,3.8718,3.8718,3.8718,3.8718,3.8718,3.8718,3.8718,3.8718,3.8718,3.8718,3.8718,3.8718,3.8718,3.8718,3.8718,3.8718,3.8718,3.8718,3.8718,3.8718,3.8718,3.8718,3.8718,3.8718,3.8718,3.8718,3.8718,3.8718,3.8718,3.8718,3.8718,3.8718,3.8718,3.8718,3.8718,3.8718,3.8718,3.8718,3.8718,3.8718,3.8718,3.8718,3.8718,3.8718,3.8718,3.8718,3.8718,3.8718,3.8718,3.8718,4.8913,4.9141,4.9453,4.9453,5.0058,5.0568,5.0319,0.0,5.1173,5.0608,0.0,5.0871,5.051,0.0,0.0,5.0462,4.8244,4.6569,4.6868,4.4329,4.2404,4.2404,3.8144,3.6163,3.8611,3.9403,3.8868,3.6678,3.9081,3.9551,3.7038,3.6885,3.6885,3.6885,3.6885,3.6885,3.6885,3.6885,3.6885,3.6885,3.7195,3.7342,3.7438,3.7929,3.824,3.8321,3.8544,3.8691,3.8718,3.8718,3.8718,3.8718,3.8718,3.8718,3.8718,3.8718,3.8718,3.8718,3.8718,3.8718,3.8718,3.8718,3.8718,3.8718,3.8718,3.8718,3.8718,3.8718,3.8718,3.8718,3.8718,3.8718,3.8718,3.8718,3.8718,3.8718,3.8718,3.8718,3.8718,3.8718,3.8718,3.8718,3.8718,3.8718,3.8718,3.8718,3.8718,3.8718,3.8718,3.8718,3.8718,3.8718,3.8718,3.8718,3.8718,3.8718,3.8718,3.8718,3.8718,3.8718,3.8718,3.8718,3.8718,3.8718,3.8718,3.8718,3.8718,3.8718,3.8718,3.8718,3.8718,3.8718,4.9676,4.9766,4.9902,4.9902,5.0371,5.0801,5.0801,5.1133,5.1377,5.1377,0.0,0.0,0.0,0.0,0.0,0.0,4.9149,4.7928,4.9493,4.6003,4.3318,4.3318,4.1297,4.0543,4.2107,4.1246,4.0231,3.9284,4.0448,3.9936,3.7038,3.6885,3.6885,3.6885,3.6885,3.6885,3.6885,3.6885,3.788,3.9785,3.9969,4.1116,4.3108,4.3342,4.2629,4.1174,4.1231,4.034,3.8718,3.8718,3.8718,3.8718,3.8718,3.8718,3.8718,3.8718,3.8718,3.8718,3.8718,3.8718,3.8718,3.8718,3.8718,3.8718,3.8718,3.8718,3.8718,3.8718,3.8718,3.8718,3.8718,3.8718,3.8718,3.8718,3.8718,3.8718,3.8718,3.8718,3.8718,3.8718,3.8718,3.8718,3.8718,3.8718,3.8718,3.8718,3.8718,3.8718,3.8718,3.8718,3.8718,3.8718,3.8718,3.8718,3.8718,3.8718,3.8718,3.8718,3.8718,3.8718,3.8718,3.8718,3.8718,3.8718,3.8718,3.8718,3.8718,3.8718,3.8718,3.8718,3.8718,3.8718,5.0176,5.0273,5.0351,5.0351,5.0664,5.0976,5.0976,5.1162,5.1377,5.1377,5.1377,0.0,0.0,0.0,5.1377,5.1377,0.0,4.9199,5.1134,4.8027,4.5552,4.5552,4.4883,4.4413,4.4377,4.354,4.2445,4.1292,4.2643,4.1578,3.7149,3.8376,3.887,3.8101,3.8073,3.8445,3.924,3.8583,3.9867,4.306,4.3245,4.4687,4.7225,4.7325,4.5798,4.3201,4.3201,4.1475,3.8718,3.8718,3.8718,3.8718,3.8718,3.8718,3.8718,3.8718,3.8718,3.8718,3.8718,3.8718,3.8718,3.8718,3.8718,3.8718,3.8718,3.8718,3.8718,3.8718,3.8718,3.87,3.8766,3.8838,3.8806,3.8945,3.8972,3.8972,3.8972,3.8972,3.8972,3.8972,3.8972,3.8945,3.8806,3.8758,3.8718,3.8718,3.8718,3.8718,3.8718,3.8718,3.8718,3.8718,3.8718,3.8718,3.8718,3.8718,3.8718,3.8718,3.8718,3.8718,3.8718,3.8718,3.8718,3.8718,3.8718,3.8718,3.8718,3.8718,3.8718,3.8718,3.8718,3.8718,5.0176,5.0469,5.0781,5.0781,5.1094,5.1358,5.1358,5.1377,5.1377,5.1377,5.1377,5.1377,5.1377,5.1377,5.1377,0.0,5.1328,0.0,0.0,5.1231,5.1134,5.1134,4.8836,4.6502,4.4584,4.6852,4.644,4.1586,4.6383,4.5853,3.737,4.2173,4.3933,4.1159,4.105,4.2389,4.5198,4.2929,4.3154,4.5988,4.6697,4.7099,4.7225,4.7534,4.6022,4.3201,4.3201,4.1475,3.8718,3.8718,3.8718,3.8718,3.8718,3.8718,3.8718,3.8718,3.8718,3.8718,3.8718,3.8718,3.8718,3.8718,3.8718,3.8718,3.8718,3.8718,3.8718,3.8718,3.8718,3.874,3.902,3.91,3.9167,3.9493,3.9559,3.9559,3.9559,3.9559,3.9559,3.9559,3.9559,3.9493,3.914,3.8846,3.8718,3.8718,3.8718,3.8718,3.8718,3.8718,3.8718,3.8718,3.8718,3.8718,3.8718,3.8718,3.8718,3.8718,3.8718,3.8718,3.8718,3.8718,3.8718,3.8718,3.8718,3.8718,3.8718,3.8718,3.8718,3.8718,3.8718,3.8718,5.1016,5.1113,5.123,5.123,5.128,5.1377,5.1377,5.1377,5.1377,5.1377,5.1377,5.1377,5.1377,5.1377,5.1377,0.0,5.1377,5.1377,0.0,5.1377,5.1377,5.1377,4.9176,4.828,4.9735,4.7575,4.553,4.4152,4.5853,4.4825,4.0005,4.3396,4.5039,4.4093,4.404,4.4634,4.5898,4.5114,4.6382,4.981,5.0073,5.1333,5.341,5.3559,5.1945,4.9088,4.9088,4.7365,4.4419,4.2461,4.169,4.1475,3.9502,3.8718,3.8718,3.8718,3.8718,3.8718,3.8718,3.8718,3.8718,3.8718,3.8718,3.8718,3.8718,3.8806,3.8953,3.8953,3.91,3.9346,3.9412,3.9452,3.9493,3.9559,3.9599,3.9599,3.9599,3.9599,3.9599,3.9599,3.9599,3.9559,3.9452,3.9372,3.9159,3.874,3.8718,3.8718,3.8718,3.8718,3.8718,3.8718,3.8718,3.8718,3.8718,3.8718,3.8718,3.8718,3.8718,3.8718,3.8718,3.8718,3.8718,3.8718,3.8718,3.8718,3.8718,3.8718,3.8718,3.8718,3.8718,3.8718,5.1377,5.1377,5.1377,5.1377,5.1377,5.1377,5.1377,5.1377,5.1377,5.1377,5.1377,5.1377,5.1377,5.1377,5.1377,5.1377,5.1377,5.1377,0.0,5.1377,5.1377,5.1377,5.0166,4.9816,5.105,4.9172,4.7183,4.5607,4.7387,4.6807,4.2912,4.6436,4.8036,4.7001,4.7001,4.7682,4.916,4.827,4.9635,5.3182,5.3384,5.4541,5.6582,5.6582,5.4949,5.2109,5.2109,5.0374,4.7437,4.5547,4.4136,4.2988,4.1073,3.9631,3.8718,3.8718,3.8718,3.8718,3.8718,3.8718,3.8718,3.8718,3.874,3.8865,3.8865,3.9033,3.9306,3.9306,3.9452,3.964,3.9746,3.9746,3.9786,3.9893,3.992,3.992,3.992,3.992,3.992,3.992,3.992,3.9893,3.9773,3.9746,3.9599,3.906,3.8993,3.8953,3.8846,3.8865,3.8838,3.8731,3.8718,3.8718,3.8718,3.8718,3.8718,3.8718,3.8718,3.8718,3.8718,3.8718,3.8758,3.8865,3.8758,3.8758,3.8865,3.8758,3.8718,3.8718,3.8718,3.8718]},{"header":{"parameterUnit":"m.s-1","parameterCategory":1,"la1":30.6,"la2":29.2853,"lo1":-89.7004,"lo2":-87.6739,"dy":0.0162,"dx":0.0183,"nx":112,"ny":82,"refTime":"2023-04-08T00:00:00:Z","depth":0,"parameterNumber":3,"parameterNumberName":"V-component_of_WINDS"},"data":[0.0,0.0,0.0,0.0,0.0,0.0,0.0,0.0,0.0,0.0,0.0,0.0,0.0,0.0,0.0,0.0,0.0,0.0,0.0,0.0,0.0,0.0,0.0,0.0,0.0,0.0,0.0,0.0,0.0,0.0,0.0,0.0,0.0,0.0,0.0,0.0,0.0,0.0,0.0,0.0,0.0,0.0,0.0,0.0,0.0,0.0,0.0,0.0,0.0,0.0,0.0,0.0,0.0,0.0,0.0,0.0,0.0,0.0,0.0,0.0,0.0,0.0,0.0,0.0,0.0,0.0,0.0,0.0,0.0,0.0,0.0,0.0,0.0,0.0,0.0,0.0,0.0,0.0,0.0,0.0,0.0,0.0,0.0,0.0,0.0,0.0,0.0,0.0,0.0,0.0,6.1777,6.1777,6.2389,6.2793,6.2793,6.2793,6.2793,6.2793,0.0,0.0,0.0,0.0,0.0,0.0,0.0,0.0,0.0,0.0,0.0,0.0,0.0,0.0,0.0,0.0,0.0,0.0,0.0,0.0,0.0,0.0,0.0,0.0,0.0,0.0,0.0,0.0,0.0,0.0,0.0,0.0,0.0,0.0,0.0,0.0,0.0,0.0,0.0,0.0,0.0,0.0,0.0,0.0,0.0,0.0,0.0,0.0,0.0,0.0,0.0,0.0,0.0,0.0,0.0,0.0,0.0,0.0,0.0,0.0,0.0,0.0,0.0,0.0,0.0,0.0,0.0,0.0,0.0,0.0,0.0,0.0,0.0,0.0,0.0,0.0,0.0,0.0,0.0,0.0,0.0,0.0,0.0,0.0,0.0,0.0,0.0,0.0,0.0,0.0,0.0,0.0,0.0,0.0,0.0,0.0,0.0,0.0,0.0,0.0,0.0,0.0,0.0,0.0,6.2609,6.2609,6.2719,6.2793,6.2793,6.2793,6.2793,6.2793,0.0,0.0,0.0,0.0,0.0,0.0,0.0,0.0,0.0,0.0,0.0,0.0,0.0,0.0,0.0,0.0,0.0,0.0,0.0,0.0,0.0,0.0,0.0,0.0,0.0,0.0,0.0,0.0,0.0,0.0,0.0,0.0,0.0,0.0,0.0,0.0,0.0,0.0,0.0,0.0,0.0,0.0,0.0,0.0,0.0,0.0,0.0,0.0,0.0,0.0,0.0,0.0,0.0,0.0,0.0,0.0,0.0,0.0,0.0,0.0,0.0,0.0,0.0,0.0,0.0,0.0,0.0,0.0,0.0,0.0,0.0,0.0,0.0,0.0,0.0,0.0,0.0,0.0,0.0,0.0,0.0,0.0,0.0,0.0,0.0,0.0,0.0,0.0,0.0,0.0,0.0,0.0,0.0,0.0,0.0,0.0,0.0,0.0,0.0,0.0,0.0,0.0,0.0,6.3282,6.3686,6.4114,6.415,6.415,6.415,6.415,6.415,6.415,6.415,0.0,0.0,0.0,0.0,0.0,0.0,0.0,0.0,0.0,0.0,0.0,0.0,0.0,0.0,0.0,0.0,0.0,0.0,0.0,0.0,0.0,0.0,0.0,0.0,0.0,0.0,0.0,0.0,0.0,0.0,0.0,0.0,0.0,0.0,0.0,0.0,0.0,0.0,0.0,0.0,0.0,0.0,0.0,0.0,0.0,0.0,0.0,0.0,0.0,0.0,0.0,0.0,0.0,0.0,0.0,0.0,0.0,0.0,0.0,0.0,0.0,0.0,0.0,0.0,0.0,0.0,0.0,0.0,0.0,0.0,0.0,0.0,0.0,0.0,0.0,0.0,0.0,0.0,0.0,0.0,0.0,0.0,0.0,0.0,0.0,0.0,0.0,0.0,0.0,0.0,0.0,0.0,0.0,0.0,0.0,0.0,0.0,0.0,0.0,0.0,0.0,0.0,6.4286,6.4604,6.5215,6.5288,6.5288,6.5288,6.5288,6.5288,6.5288,6.5288,0.0,0.0,0.0,0.0,0.0,0.0,0.0,0.0,0.0,0.0,0.0,0.0,0.0,0.0,0.0,0.0,0.0,0.0,0.0,0.0,0.0,0.0,0.0,0.0,0.0,0.0,0.0,0.0,0.0,0.0,0.0,0.0,0.0,0.0,0.0,0.0,0.0,0.0,0.0,0.0,0.0,0.0,0.0,0.0,0.0,0.0,0.0,0.0,0.0,0.0,0.0,0.0,0.0,0.0,0.0,0.0,0.0,0.0,0.0,0.0,0.0,0.0,0.0,0.0,0.0,0.0,0.0,0.0,0.0,0.0,0.0,0.0,0.0,0.0,0.0,0.0,0.0,0.0,0.0,0.0,0.0,0.0,0.0,0.0,0.0,0.0,0.0,0.0,0.0,0.0,0.0,0.0,0.0,0.0,0.0,0.0,0.0,0.0,0.0,0.0,0.0,0.0,6.4751,6.5251,6.5288,6.5288,6.5288,6.5288,6.5288,6.5288,6.5288,6.5288,0.0,0.0,0.0,0.0,0.0,0.0,0.0,0.0,0.0,0.0,0.0,0.0,0.0,0.0,0.0,0.0,0.0,0.0,0.0,0.0,0.0,0.0,0.0,0.0,0.0,0.0,0.0,0.0,0.0,0.0,0.0,0.0,0.0,0.0,0.0,0.0,0.0,0.0,0.0,0.0,0.0,0.0,0.0,0.0,0.0,0.0,0.0,0.0,0.0,0.0,0.0,0.0,0.0,0.0,0.0,0.0,0.0,0.0,0.0,0.0,0.0,0.0,0.0,0.0,0.0,0.0,0.0,0.0,0.0,0.0,0.0,0.0,0.0,0.0,0.0,0.0,0.0,0.0,0.0,0.0,0.0,0.0,0.0,0.0,0.0,0.0,0.0,0.0,0.0,0.0,0.0,0.0,0.0,0.0,0.0,0.0,0.0,0.0,0.0,0.0,0.0,0.0,6.5852,6.6256,6.6733,6.6806,6.6806,6.6806,6.6806,6.6806,6.6806,0.0,0.0,0.0,0.0,0.0,0.0,0.0,0.0,0.0,0.0,0.0,0.0,0.0,0.0,0.0,0.0,0.0,0.0,0.0,0.0,0.0,0.0,0.0,0.0,0.0,0.0,0.0,0.0,0.0,0.0,0.0,0.0,0.0,0.0,0.0,0.0,0.0,0.0,0.0,0.0,0.0,0.0,0.0,0.0,0.0,0.0,0.0,0.0,0.0,0.0,0.0,0.0,0.0,0.0,0.0,0.0,0.0,0.0,0.0,0.0,0.0,0.0,0.0,0.0,0.0,0.0,0.0,0.0,0.0,0.0,0.0,0.0,0.0,0.0,0.0,0.0,0.0,0.0,0.0,0.0,0.0,0.0,0.0,0.0,0.0,0.0,0.0,0.0,0.0,0.0,0.0,0.0,0.0,0.0,0.0,0.0,0.0,0.0,0.0,0.0,0.0,0.0,6.6429,6.6856,6.7276,6.7654,6.77,6.77,6.77,6.77,6.77,6.77,0.0,0.0,0.0,0.0,0.0,0.0,0.0,0.0,0.0,0.0,0.0,0.0,0.0,0.0,0.0,0.0,0.0,0.0,0.0,0.0,0.0,0.0,0.0,0.0,0.0,0.0,0.0,0.0,0.0,0.0,0.0,0.0,0.0,0.0,0.0,0.0,0.0,0.0,0.0,0.0,0.0,0.0,0.0,0.0,0.0,0.0,0.0,0.0,0.0,0.0,0.0,0.0,0.0,0.0,0.0,0.0,0.0,0.0,0.0,0.0,0.0,0.0,0.0,0.0,0.0,0.0,0.0,0.0,0.0,0.0,0.0,0.0,0.0,0.0,0.0,0.0,0.0,0.0,0.0,0.0,0.0,0.0,0.0,0.0,0.0,0.0,0.0,0.0,0.0,0.0,0.0,0.0,0.0,0.0,0.0,0.0,0.0,0.0,0.0,0.0,0.0,0.0,6.6604,6.7704,6.8296,6.7767,6.7737,6.7737,6.7737,6.7737,6.7737,0.0,0.0,0.0,0.0,0.0,0.0,0.0,0.0,0.0,0.0,0.0,0.0,0.0,0.0,0.0,0.0,0.0,0.0,0.0,0.0,0.0,0.0,0.0,0.0,0.0,0.0,0.0,0.0,0.0,0.0,0.0,0.0,0.0,0.0,0.0,0.0,0.0,0.0,0.0,0.0,0.0,0.0,0.0,0.0,0.0,0.0,0.0,0.0,0.0,0.0,0.0,0.0,0.0,0.0,0.0,0.0,0.0,0.0,0.0,0.0,0.0,0.0,0.0,0.0,0.0,0.0,0.0,0.0,0.0,0.0,0.0,0.0,0.0,0.0,0.0,0.0,0.0,0.0,0.0,0.0,0.0,0.0,0.0,0.0,0.0,0.0,0.0,0.0,0.0,0.0,0.0,0.0,0.0,0.0,0.0,0.0,0.0,0.0,0.0,0.0,0.0,0.0,0.0,6.8228,6.9051,6.957,6.9403,6.9389,6.9389,6.9389,6.9389,6.9389,6.9389,0.0,0.0,0.0,0.0,0.0,0.0,0.0,0.0,0.0,0.0,0.0,0.0,0.0,0.0,0.0,0.0,0.0,0.0,0.0,0.0,0.0,0.0,0.0,0.0,0.0,0.0,0.0,0.0,0.0,0.0,0.0,0.0,0.0,0.0,0.0,0.0,0.0,0.0,0.0,0.0,0.0,0.0,0.0,0.0,0.0,0.0,0.0,0.0,0.0,0.0,0.0,0.0,0.0,0.0,0.0,0.0,0.0,0.0,0.0,0.0,0.0,0.0,0.0,0.0,0.0,0.0,0.0,0.0,0.0,0.0,0.0,0.0,0.0,0.0,0.0,0.0,0.0,0.0,0.0,0.0,0.0,0.0,0.0,0.0,0.0,0.0,0.0,0.0,0.0,0.0,0.0,0.0,0.0,0.0,0.0,0.0,0.0,0.0,0.0,0.0,0.0,0.0,6.9403,6.9988,7.0351,7.0115,7.011,7.011,7.011,7.011,7.011,7.011,0.0,0.0,0.0,0.0,0.0,0.0,0.0,0.0,0.0,0.0,0.0,0.0,0.0,0.0,0.0,0.0,0.0,0.0,0.0,0.0,0.0,0.0,0.0,0.0,0.0,0.0,0.0,0.0,0.0,0.0,0.0,0.0,0.0,0.0,0.0,0.0,0.0,0.0,0.0,0.0,0.0,0.0,0.0,0.0,0.0,0.0,0.0,0.0,0.0,0.0,0.0,0.0,0.0,0.0,0.0,0.0,0.0,0.0,0.0,0.0,0.0,0.0,0.0,0.0,0.0,0.0,0.0,0.0,0.0,0.0,0.0,0.0,0.0,0.0,0.0,0.0,0.0,0.0,0.0,0.0,0.0,0.0,0.0,0.0,0.0,0.0,0.0,0.0,0.0,0.0,0.0,0.0,0.0,0.0,0.0,0.0,0.0,0.0,0.0,0.0,0.0,0.0,7.0266,7.0687,7.0866,7.0363,7.033,7.033,7.033,7.033,7.033,7.033,0.0,0.0,0.0,0.0,0.0,0.0,0.0,0.0,0.0,0.0,0.0,0.0,0.0,0.0,0.0,0.0,0.0,0.0,0.0,0.0,0.0,0.0,0.0,0.0,0.0,0.0,0.0,0.0,0.0,0.0,0.0,0.0,0.0,0.0,0.0,0.0,0.0,0.0,0.0,0.0,0.0,0.0,0.0,0.0,0.0,0.0,0.0,0.0,0.0,0.0,0.0,0.0,0.0,0.0,0.0,0.0,0.0,0.0,0.0,0.0,6.6389,6.5288,0.0,0.0,0.0,0.0,0.0,0.0,0.0,0.0,0.0,0.0,0.0,0.0,0.0,0.0,0.0,0.0,0.0,0.0,0.0,0.0,0.0,0.0,0.0,0.0,0.0,0.0,0.0,0.0,0.0,0.0,0.0,0.0,0.0,0.0,0.0,0.0,0.0,0.0,0.0,0.0,7.1078,7.1705,7.2115,7.1996,7.1982,7.1982,7.1982,7.1982,7.1982,7.1982,7.1982,0.0,0.0,0.0,0.0,0.0,0.0,0.0,0.0,0.0,0.0,0.0,0.0,0.0,0.0,0.0,0.0,0.0,0.0,0.0,0.0,0.0,0.0,0.0,0.0,0.0,0.0,0.0,0.0,0.0,0.0,0.0,0.0,0.0,0.0,0.0,0.0,0.0,0.0,0.0,0.0,0.0,0.0,0.0,0.0,0.0,0.0,0.0,0.0,0.0,0.0,0.0,0.0,0.0,0.0,0.0,0.0,0.0,0.0,0.0,6.8348,6.7614,0.0,0.0,0.0,0.0,0.0,0.0,0.0,0.0,0.0,0.0,0.0,0.0,0.0,0.0,0.0,0.0,0.0,0.0,0.0,0.0,0.0,0.0,0.0,0.0,0.0,0.0,0.0,0.0,0.0,0.0,0.0,0.0,0.0,0.0,0.0,0.0,0.0,0.0,0.0,0.0,7.2995,7.3399,7.3656,7.3656,7.3656,7.3656,7.3656,7.3656,7.3656,7.3656,7.3303,0.0,0.0,0.0,0.0,0.0,0.0,0.0,0.0,0.0,0.0,0.0,0.0,0.0,0.0,0.0,0.0,0.0,0.0,0.0,0.0,0.0,0.0,0.0,0.0,0.0,0.0,0.0,0.0,0.0,0.0,0.0,0.0,0.0,0.0,0.0,0.0,0.0,0.0,0.0,0.0,0.0,0.0,0.0,0.0,0.0,0.0,0.0,0.0,0.0,0.0,0.0,0.0,0.0,7.0881,7.0954,7.0954,7.0954,7.0954,7.0954,7.0954,7.0624,7.011,7.011,0.0,0.0,0.0,0.0,0.0,0.0,0.0,0.0,0.0,0.0,0.0,0.0,0.0,0.0,0.0,0.0,0.0,0.0,0.0,0.0,0.0,0.0,7.3143,7.369,7.4257,7.397,7.1462,0.0,0.0,0.0,0.0,0.0,0.0,0.0,0.0,0.0,0.0,0.0,7.4793,7.4903,7.4903,7.4903,7.4903,7.4903,7.4903,7.4903,7.4903,7.4903,7.4294,7.3891,0.0,0.0,0.0,0.0,0.0,0.0,0.0,0.0,0.0,0.0,0.0,0.0,0.0,0.0,0.0,0.0,0.0,0.0,0.0,0.0,0.0,0.0,0.0,0.0,0.0,0.0,0.0,0.0,0.0,0.0,0.0,0.0,6.4884,6.5118,0.0,0.0,0.0,0.0,0.0,0.0,0.0,0.0,0.0,0.0,0.0,0.0,0.0,7.0367,7.0977,7.1784,7.2532,7.3244,7.3927,7.428,7.428,7.428,7.428,7.428,7.428,0.0,7.011,7.011,0.0,0.0,0.0,0.0,0.0,0.0,0.0,0.0,0.0,0.0,0.0,0.0,0.0,0.0,0.0,0.0,0.0,0.0,0.0,0.0,0.0,0.0,7.5993,7.5569,7.5167,7.4742,7.4346,7.428,7.428,7.428,7.428,7.428,0.0,0.0,0.0,0.0,0.0,0.0,7.4903,7.4903,7.4903,7.4903,7.4903,7.4903,7.4903,7.4903,7.4903,7.4903,7.4793,7.472,7.472,7.4647,0.0,0.0,0.0,0.0,0.0,0.0,0.0,0.0,0.0,0.0,0.0,0.0,0.0,0.0,0.0,0.0,0.0,0.0,0.0,0.0,0.0,0.0,0.0,0.0,0.0,0.0,0.0,0.0,0.0,6.6439,6.699,6.7907,6.8311,6.8641,0.0,0.0,0.0,0.0,0.0,0.0,0.0,0.0,0.0,7.2789,7.2789,7.2973,7.3325,7.3656,7.4037,7.4368,7.472,7.4903,7.4903,7.4903,7.4903,7.4903,7.4903,7.4096,7.2789,7.2789,7.2995,7.3369,0.0,0.0,0.0,0.0,7.5229,7.5227,7.5483,7.5977,7.6489,7.6135,0.0,0.0,0.0,0.0,0.0,0.0,0.0,7.6193,7.6586,7.6181,7.583,7.6343,7.6008,7.5711,7.6151,7.6261,7.5968,7.5087,7.4903,7.4903,7.4903,7.4903,0.0,0.0,0.0,7.5763,7.6188,7.6261,7.6261,7.6261,7.6261,7.6261,7.6261,7.6261,7.6261,7.6261,7.5821,7.575,7.612,7.569,7.5296,0.0,0.0,0.0,0.0,0.0,0.0,0.0,0.0,0.0,0.0,0.0,0.0,0.0,0.0,0.0,0.0,0.0,0.0,0.0,0.0,0.0,0.0,0.0,0.0,0.0,0.0,0.0,0.0,6.8325,6.8839,7.022,7.0403,7.055,0.0,0.0,0.0,0.0,0.0,0.0,7.3083,7.367,7.4294,7.4867,7.4903,7.5014,7.5197,7.5197,7.5307,7.5527,7.5527,7.5527,7.5527,7.5527,7.5527,7.5527,7.5527,7.5527,7.5491,7.505,7.5014,7.5257,7.5708,7.5989,7.6243,7.6705,7.6843,7.6843,7.6843,7.6953,7.7025,7.6589,7.7247,7.8141,7.7516,0.0,0.0,0.0,0.0,7.6161,7.6942,7.6551,7.6222,7.7108,7.6977,7.6774,7.7225,7.7289,7.6959,7.5747,7.5527,7.5527,7.5527,7.5527,0.0,7.6313,7.6423,7.6628,7.7215,7.7289,7.7289,7.7289,7.7289,7.7289,7.7289,7.7289,7.7289,7.7289,7.6738,7.6619,7.713,7.6739,7.6398,7.6225,0.0,0.0,0.0,0.0,0.0,0.0,0.0,0.0,0.0,0.0,0.0,0.0,0.0,0.0,0.0,0.0,0.0,0.0,0.0,0.0,0.0,0.0,0.0,0.0,0.0,0.0,0.0,0.0,0.0,7.1123,7.1233,0.0,0.0,0.0,0.0,7.461,7.4683,7.472,7.4793,7.483,7.4867,7.4903,7.4903,7.527,7.6019,7.6056,7.6408,7.7179,7.7179,7.7179,7.7179,7.7179,7.7179,7.7179,7.7179,7.7179,7.7069,7.5527,7.5344,7.6019,7.6065,7.6542,7.724,7.727,7.7286,7.7286,7.7286,7.7678,7.82,7.816,7.8992,7.9864,7.9267,7.9475,0.0,0.0,7.9073,7.8873,7.8359,7.8616,7.8849,7.8344,7.8207,7.8026,7.742,7.7289,7.7289,7.7215,7.7179,7.7179,7.7179,0.0,7.7179,7.7252,7.7252,7.7252,7.7289,7.7289,7.7289,7.7289,7.7289,7.7289,7.7289,7.7289,7.7289,7.7289,7.7252,7.7268,7.7277,7.7849,7.7838,7.7031,7.7623,0.0,0.0,0.0,0.0,0.0,0.0,0.0,0.0,0.0,0.0,0.0,0.0,0.0,0.0,0.0,0.0,0.0,0.0,0.0,0.0,0.0,0.0,0.0,0.0,0.0,0.0,0.0,0.0,7.2753,7.3289,0.0,7.4441,7.4478,7.4588,7.4867,7.538,7.5689,7.5689,7.6151,7.6445,7.6445,7.6445,7.6592,7.6885,7.6885,7.7032,7.7289,7.7289,7.7289,7.7289,7.7289,7.7289,7.7289,7.7289,7.7289,7.7252,7.6702,7.6628,7.6885,7.6885,7.7032,7.7289,7.7289,7.7289,7.7289,7.7289,7.7472,7.7724,7.8146,7.8614,7.9034,7.96,7.9642,7.9556,7.9716,7.921,7.8588,7.8376,7.8146,7.7909,7.771,7.7651,7.7599,7.735,7.7289,7.7289,7.7289,7.7289,7.7289,7.7289,7.7289,7.7289,7.7289,7.7289,7.7289,7.7289,7.7289,7.7289,7.7289,7.7289,7.7289,7.7289,7.7289,7.7289,7.7289,7.7695,7.8118,7.8512,7.8729,7.8945,7.9042,7.9246,7.898,0.0,0.0,0.0,0.0,0.0,0.0,0.0,0.0,0.0,0.0,0.0,0.0,0.0,0.0,0.0,0.0,0.0,0.0,0.0,0.0,0.0,0.0,0.0,0.0,0.0,7.2958,7.3597,7.4404,7.4735,7.5124,7.5674,7.5454,7.5417,7.5674,7.6188,7.6481,7.6481,7.6995,7.7289,7.7289,7.7289,7.7289,7.7289,7.7289,7.7289,7.7289,7.7289,7.7289,7.7326,7.7582,7.7729,7.7766,7.8023,7.8133,7.8133,7.8133,7.8133,7.8096,7.7509,7.7289,7.7289,7.7289,7.7289,7.7289,7.7289,7.7289,7.7381,7.784,7.8141,7.8445,7.9244,7.921,7.901,7.9621,7.9058,7.8379,7.8804,7.8407,7.7937,7.7937,7.7774,7.7585,7.735,7.7289,7.7289,7.7289,7.7289,7.7289,7.7289,7.7289,7.7289,7.7289,7.7289,7.7289,7.7289,7.7289,7.7289,7.7289,7.7289,7.7289,7.7289,7.7289,7.7411,7.7607,7.8035,7.8588,7.9175,7.9403,7.9674,8.0067,8.0324,8.0186,7.9651,0.0,0.0,0.0,0.0,0.0,0.0,0.0,0.0,0.0,0.0,0.0,0.0,0.0,0.0,0.0,0.0,0.0,0.0,0.0,0.0,0.0,0.0,0.0,7.4903,7.4903,7.5234,7.6019,7.5417,7.5601,7.7142,7.6592,7.646,7.7252,7.7289,7.7289,7.7289,7.7289,7.7326,7.7362,7.7362,7.7362,7.7399,7.7399,7.7399,7.7399,7.7399,7.7399,7.7399,7.8259,7.8626,7.8662,7.9449,7.9816,7.9816,7.9816,7.9816,7.9633,7.8023,7.7399,7.7399,7.7399,7.7399,7.7399,7.7399,7.7399,7.7399,7.7399,7.7813,7.8356,7.837,7.8383,7.8493,7.9097,7.8841,7.865,7.983,7.9665,7.9215,7.9215,7.8766,7.8151,7.756,7.7378,7.7362,7.7393,7.7378,7.7362,7.7326,7.7289,7.7289,7.7289,7.7289,0.0,7.7289,7.7289,7.7326,7.7362,7.7326,7.7326,7.7362,7.7326,7.7599,7.8255,7.8322,7.8576,7.921,7.9806,8.0115,8.0115,8.075,8.1093,8.1093,0.0,0.0,0.0,0.0,0.0,0.0,0.0,0.0,0.0,0.0,0.0,0.0,0.0,0.0,0.0,0.0,0.0,0.0,0.0,0.0,0.0,7.6261,7.6225,7.505,7.538,7.5836,7.6056,7.6408,7.6812,7.7252,7.7105,7.7069,7.7289,7.7289,7.7289,7.7289,7.7289,7.7582,7.8222,7.8259,7.8516,7.9103,7.9103,7.9103,7.9103,7.9103,7.9103,7.9103,7.9376,7.9486,7.9486,7.9706,7.9816,7.9816,7.9816,7.9816,7.9743,7.9286,7.9103,7.9103,7.9103,7.9103,7.9103,7.9103,7.9103,7.9103,7.9103,7.9222,7.9474,7.9902,8.0032,8.0183,8.0792,8.0491,8.0115,8.0464,8.0087,7.966,7.966,7.9534,7.9474,7.9768,7.9459,7.9253,7.9739,7.9444,7.8736,7.7509,7.7289,7.7289,7.7289,7.7289,7.7289,7.7289,7.7289,7.7546,7.8185,7.7693,7.7546,7.8185,7.7656,7.7599,7.8255,7.8716,7.9221,7.9837,7.9998,8.0115,8.0115,8.075,8.1093,0.0,0.0,0.0,0.0,0.0,0.0,0.0,0.0,0.0,0.0,0.0,0.0,0.0,0.0,0.0,0.0,0.0,0.0,0.0,0.0,0.0,0.0,7.6995,7.6959,7.6041,7.6298,7.6592,7.6592,7.7032,7.7289,7.7289,7.7289,7.7436,7.7803,7.7839,7.7986,7.8332,7.8369,7.8589,7.9082,7.9103,7.9339,7.9816,7.9816,7.9816,7.9816,7.9816,7.9816,7.9816,8.0131,8.0277,8.0314,8.0661,8.0807,8.0844,8.1158,8.1305,8.1195,0.0,0.0,0.0,0.0,7.9816,7.9816,7.9816,7.9816,7.9816,7.9816,7.9816,7.9874,8.0207,8.0304,8.0499,8.1395,8.1382,8.1255,8.1771,8.1268,8.0585,8.0585,8.0199,7.9905,8.0282,8.0085,7.9921,8.0297,8.0069,0.0,7.8516,7.8369,7.8369,7.8369,7.8369,7.8369,7.8369,7.8369,7.8552,7.9029,7.8662,7.8655,7.946,7.9069,0.0,0.0,0.0,8.0248,8.0528,8.0508,0.0,0.0,0.0,8.1093,8.1093,8.1093,0.0,0.0,8.1093,8.1093,0.0,0.0,0.0,0.0,0.0,0.0,0.0,0.0,0.0,0.0,0.0,0.0,0.0,0.0,0.0,0.0,7.7289,7.7289,7.7289,7.7399,7.7399,7.7326,7.7399,7.7436,7.7436,7.7546,7.7913,7.8662,7.8736,7.9029,7.9779,7.9816,0.0,0.0,0.0,8.011,8.022,8.0293,8.033,8.033,8.033,8.033,8.0367,8.1085,8.1415,8.1452,8.215,8.248,8.2517,8.3251,8.3528,8.3308,8.1158,8.033,8.033,8.033,8.033,8.033,8.033,0.0,0.0,8.033,8.033,8.033,8.033,8.033,8.0591,8.1713,8.2022,8.229,8.3314,8.2732,8.1871,8.1758,8.0874,8.0105,8.0163,8.01,8.0105,8.0163,8.0136,8.0073,8.0073,7.9926,7.9816,7.9816,7.9816,7.9816,7.9816,7.9816,7.9816,7.9926,7.9853,0.0,8.0748,8.0814,8.098,8.1423,8.1565,8.1562,8.1385,8.1285,8.1246,8.1246,8.1131,8.1093,8.1093,8.1093,8.1093,8.1093,8.1093,8.1093,0.0,0.0,0.0,0.0,0.0,0.0,0.0,0.0,0.0,0.0,0.0,0.0,0.0,0.0,0.0,7.7289,7.7289,7.7289,7.7289,7.7913,7.8112,7.7399,7.7913,7.8369,7.8369,7.8919,7.9412,7.9559,7.9559,7.9633,7.9779,7.9816,8.011,8.0755,8.1379,8.2039,8.2684,8.3361,8.3654,8.3654,8.3654,0.0,8.3691,8.3838,8.3911,8.3911,8.4058,8.4132,8.4168,8.4315,8.4389,8.4315,8.3838,8.3654,8.3654,8.3654,8.3654,8.3654,8.3654,8.3654,8.3654,8.3654,8.3654,8.3654,8.3654,8.3654,0.0,8.3972,8.4052,8.3946,8.3551,8.3251,8.2907,8.2259,8.1913,8.1865,8.2431,8.2126,8.1881,8.2446,8.2111,8.1746,8.1746,8.0661,7.9816,7.9816,7.9816,7.9816,7.9816,7.9816,8.0036,8.0681,8.0183,8.0136,8.0919,8.0873,8.1035,8.1592,8.2617,8.3166,8.3131,8.2439,8.2054,8.2054,8.1439,8.1093,8.1093,8.1093,8.1093,8.1093,8.1093,8.1093,0.0,0.0,0.0,0.0,0.0,0.0,0.0,0.0,0.0,0.0,0.0,7.7289,7.7289,0.0,7.7289,7.7289,7.7656,7.7949,7.7949,7.8662,7.8883,7.8075,7.8699,7.9192,7.9192,7.9559,7.9963,8.0351,8.0771,8.1175,8.1562,8.1966,8.237,8.281,8.3177,8.3581,8.4005,8.4389,8.4609,8.4609,8.4609,8.4609,8.4609,8.4609,8.4609,8.4609,8.4609,8.4609,8.4646,8.5013,8.5453,8.582,8.582,8.5306,8.4609,8.4609,8.4609,8.4609,8.4609,8.4609,8.4609,8.4609,8.4609,8.4609,8.4609,8.4609,8.4656,8.5007,8.5097,8.508,8.5031,8.4761,8.4394,8.3987,8.3634,8.3476,8.3835,8.3634,8.3492,8.3851,8.3618,8.3398,8.3398,8.2737,8.1929,8.1138,8.0991,8.0991,8.0991,8.0991,8.1175,8.1562,8.1232,8.1433,8.2485,8.2747,8.2971,8.328,8.3503,8.3601,8.3601,8.3178,8.2947,8.2947,8.2562,8.2362,8.2362,8.2362,8.2131,8.1708,8.1708,8.1477,0.0,0.0,0.0,0.0,0.0,0.0,0.0,7.7289,7.7289,7.7289,7.7289,7.7289,7.7289,7.7436,7.7546,7.7546,7.8259,7.8809,7.8809,7.9522,7.9837,7.936,7.9727,8.011,8.0257,8.0404,8.0828,8.1636,8.2296,8.2957,8.3601,8.4242,8.4609,8.4609,8.4756,8.4829,8.4829,8.4976,8.5086,8.5086,8.5086,8.5086,8.5086,8.5086,8.5086,8.5086,8.5086,8.5086,8.5123,8.5783,8.6407,8.6978,8.6978,8.6224,8.5086,8.5086,8.5086,8.5086,8.5086,8.5086,8.5086,8.5086,8.5086,8.5086,8.5086,8.5086,8.5184,8.5714,8.5862,8.5976,8.6321,8.6038,8.5617,8.5431,8.4991,8.4609,8.4609,8.4609,8.4622,8.4768,8.4801,8.4801,8.4801,8.4801,8.4293,8.288,8.2663,8.2663,8.2663,8.2663,8.2663,8.2663,8.2789,8.3329,8.4516,8.4957,8.5185,8.5124,8.4478,8.4101,8.4101,8.3947,8.387,8.387,8.3678,8.3601,8.3601,8.3601,8.3255,8.2554,8.2554,8.2016,7.4384,7.5432,7.6166,7.6959,7.7179,7.7179,0.0,7.7289,7.7289,7.7289,7.7289,7.7289,7.7289,7.7913,7.8442,7.8442,7.9155,7.9669,7.9669,8.0351,8.1085,8.1709,8.1232,8.1158,8.1856,8.259,8.3308,8.4132,8.4278,8.4389,8.4462,8.4535,8.4609,8.4609,8.527,8.5673,8.5673,8.6371,8.6721,8.6721,8.6721,8.6721,8.6721,8.6721,8.6721,8.6721,8.6721,8.6721,8.6721,8.6848,8.6904,8.6978,8.6978,8.6867,8.6721,8.6721,8.6721,8.6721,8.6721,8.6721,8.6721,8.6721,8.6721,8.6721,8.6721,8.6721,8.6755,8.6804,8.6838,8.6708,8.6053,8.5819,8.5605,8.4869,8.4639,8.4609,8.4609,8.4609,8.4768,8.5357,8.5492,8.5492,8.5492,8.5492,8.5213,8.4432,8.4315,8.4315,8.4315,8.4315,8.4315,8.4315,8.4879,8.5487,8.6084,8.622,8.6183,8.5992,8.5863,8.5824,8.5824,8.5132,8.4739,8.4739,8.3978,8.3601,8.3601,8.3601,8.3563,8.3447,8.3447,8.2601,7.5807,7.6555,7.6885,7.7215,7.7289,7.7289,7.7289,7.7289,7.7289,7.7289,7.7693,7.8075,7.8075,7.8736,7.9302,7.9302,7.9947,8.0645,8.1138,8.1893,8.27,8.3508,8.3287,8.3214,8.3544,8.3911,8.4242,8.4572,8.5013,8.5306,8.5306,8.5747,8.6004,8.6004,8.6334,8.6518,8.6518,8.6848,8.7234,8.7692,8.7692,8.7949,8.8409,8.8409,8.8409,8.8409,8.8409,8.8409,8.8409,8.8409,8.8409,8.8409,8.8409,8.8409,8.8262,8.7344,8.6978,8.6978,8.6978,8.6978,8.6978,8.6978,8.6978,8.6978,8.6978,8.6978,8.6978,8.6978,8.6978,8.6904,8.6591,8.6518,8.6407,8.6077,8.6004,8.6004,8.6004,8.6004,8.6069,8.6377,8.6405,8.6405,8.6405,8.6781,8.6958,8.6677,8.5815,8.5049,8.4639,8.4959,8.5185,8.5185,8.6159,8.6933,8.7121,8.7523,8.77,8.7624,8.7594,8.7594,8.7594,8.6786,8.6363,8.6363,8.5517,8.5055,8.5055,8.5055,8.4824,8.4362,8.4362,8.3708,7.6951,7.7289,7.7289,7.7289,7.7289,7.7289,7.7289,7.7509,7.7656,7.7656,7.8332,7.8919,7.8919,7.9596,8.022,8.044,8.1122,8.1929,8.2737,8.3361,8.4022,8.4829,8.4939,8.5013,8.5233,8.5049,8.5013,8.527,8.5783,8.6114,8.6114,8.6885,8.7325,8.7325,8.7528,8.7675,8.7675,8.7675,8.7932,8.8536,8.8536,8.8849,8.94,8.94,8.94,8.94,8.94,8.94,8.94,8.94,8.94,8.94,8.94,8.94,8.9253,8.8078,8.7675,8.7675,8.7675,8.7675,8.7675,8.7675,8.7675,8.7675,8.7675,8.7675,8.7675,8.7675,8.7675,8.7675,8.7675,8.7491,8.7325,8.7325,8.7178,8.6978,8.6978,8.6978,8.7064,8.7281,8.7295,8.7295,8.7295,8.7741,8.8107,8.8107,8.7219,8.6377,8.5899,8.6267,8.6626,8.681,8.7753,8.8332,8.8295,8.8755,8.894,8.8718,8.8718,8.8718,8.8718,8.8094,8.7748,8.7748,8.7132,8.6824,8.6824,8.6824,8.6401,8.5593,8.5593,8.5132,7.7273,7.7289,7.7289,7.7289,7.7289,7.7289,7.7289,7.7949,7.8552,7.8552,7.9192,7.9779,7.9779,8.0424,8.1232,8.2003,8.281,8.3601,8.4425,8.4535,8.4866,8.5673,8.5747,8.6077,8.6831,8.6224,8.6077,8.6867,8.6941,8.6941,8.6941,8.7729,8.8169,8.8169,8.8923,8.9326,8.9326,8.9326,8.9326,8.9363,8.9363,8.9363,8.94,8.94,8.94,8.94,8.94,8.94,8.94,8.94,8.94,8.94,8.94,8.94,8.94,8.9363,8.9326,8.9326,8.9326,8.9326,8.9326,8.9326,8.9326,8.9326,8.9326,8.9326,8.9326,8.9326,8.9326,8.9326,8.9326,8.8739,8.8169,8.8169,8.7582,8.6978,8.6978,8.6978,8.7214,8.7945,8.8061,8.8061,8.8061,8.8092,8.8107,8.8107,8.8598,8.9007,8.8981,8.8994,8.9226,8.9881,9.0018,8.9985,8.9832,8.9846,8.9517,8.8756,8.8718,8.8718,8.8718,8.8679,8.8679,8.8679,8.8641,8.8641,8.8641,8.8641,8.8179,8.7325,8.7325,8.6863,7.7289,7.7289,7.7289,7.7289,7.7729,7.8185,7.8185,7.8809,7.9412,7.9412,8.0477,8.1379,8.1379,8.248,8.3471,8.3765,8.4022,8.4499,8.527,8.538,8.5673,8.6518,8.6591,8.6921,8.7729,8.7068,8.6921,8.7729,8.7802,8.8023,8.8556,8.8849,8.8996,8.8996,8.9253,8.94,8.94,8.94,8.9657,9.0207,9.0739,9.0996,9.0996,9.0996,9.0996,9.0996,9.0996,9.0996,9.0996,9.0996,9.0996,9.0996,9.0996,9.0996,9.0996,9.0996,9.0996,9.0849,8.9767,8.94,8.94,8.94,8.94,8.94,8.94,8.94,8.94,8.94,8.94,8.94,8.94,8.9216,8.8996,8.8996,8.9166,8.9315,8.9315,8.9696,9.012,9.0376,9.0418,9.0418,9.0418,9.0823,9.1303,9.175,9.0282,8.9238,8.9716,8.9775,8.9844,9.0095,9.0518,9.0799,9.0769,9.074,9.0671,9.0364,9.0364,9.0364,9.0364,8.9787,8.9517,8.9517,8.8979,8.8718,8.8718,8.8718,8.8564,8.8256,8.8256,8.8102,7.7289,7.7289,7.7362,7.7693,7.8185,7.8662,7.8956,7.9653,8.0241,8.0241,8.1525,8.2627,8.2627,8.3728,8.4682,8.4976,8.5013,8.5306,8.6114,8.6224,8.6518,8.7325,8.7435,8.7766,8.8573,8.8152,8.8078,8.861,8.8647,8.8849,8.9363,8.9657,8.984,8.984,9.0097,9.0244,9.0244,9.0244,9.0519,9.1033,9.1546,9.1803,9.1803,9.1803,9.1803,9.1803,9.1803,9.1803,9.1803,9.1803,9.1803,9.1803,9.1803,9.1803,9.1803,9.1803,9.1803,9.1657,9.0629,9.0244,9.0244,9.0244,9.0244,9.0244,9.0244,9.0244,9.0244,9.0244,9.0244,9.0244,9.0244,9.0024,8.984,8.984,8.9981,9.0098,9.0098,9.0699,9.1193,9.1193,9.1415,9.1603,9.1603,9.2223,9.2864,9.3293,9.1877,9.0882,9.1337,9.1148,9.0957,9.0957,9.1097,9.121,9.121,9.121,9.121,9.121,9.121,9.121,9.121,9.0663,9.0355,9.0355,8.9863,8.9594,8.9594,8.9594,8.944,8.9133,8.9133,8.8979,7.7289,7.7326,7.7582,7.8405,7.8662,7.8919,7.9706,8.0461,8.1085,8.1122,8.2353,8.3454,8.3528,8.4168,8.4976,8.5764,8.5857,8.6151,8.6958,8.7051,8.7362,8.8169,8.828,8.8573,8.9363,8.9473,8.9473,8.951,8.9473,8.9473,8.951,9.0244,9.0665,9.0665,9.14,9.1803,9.1803,9.1803,9.1803,9.1803,9.1803,9.1803,9.1803,9.1803,9.1803,9.1803,9.1803,9.1803,9.1803,9.1803,9.1803,9.1803,9.1803,9.1803,9.1803,9.1803,9.1803,9.1803,9.1803,9.1803,9.1803,9.1803,9.1803,9.1803,9.1803,9.1803,9.1803,9.1803,9.1803,9.1803,9.1803,9.1216,9.0665,9.0665,9.0096,8.9581,8.9581,9.0148,9.0659,9.0659,9.1287,9.1807,9.1808,9.2409,9.2864,9.2864,9.3418,9.3787,9.371,9.3018,9.2556,9.2556,9.1825,9.1325,9.1325,9.1325,9.1325,9.1325,9.1287,9.1287,9.1287,9.121,9.121,9.121,9.121,9.121,9.121,9.121,9.0787,8.997,8.997,8.9556,7.7289,7.7766,7.8332,7.8552,7.9507,8.0461,8.0645,8.1305,8.2076,8.2647,8.3581,8.4499,8.5086,8.5857,8.6481,8.6664,8.6701,8.6958,8.7766,8.7876,8.8206,8.8996,8.9069,8.94,9.0207,9.028,9.0555,9.1143,9.0629,9.0537,9.1179,9.1363,9.1473,9.1473,9.1693,9.1803,9.1803,9.1803,9.1803,9.1803,9.1803,9.1803,9.1803,9.1803,9.1803,9.1803,9.1803,9.1803,9.1803,9.1803,9.1803,9.1803,9.1803,9.1803,9.1803,9.1803,9.1803,9.1803,9.1803,9.1803,9.1803,9.1803,9.1803,9.1803,9.1803,9.1803,9.1803,9.1803,9.1803,9.1803,9.1803,9.1657,9.1473,9.1473,9.1801,9.2068,9.2068,9.2674,9.3196,9.3196,9.378,9.4471,9.4989,9.525,9.5367,9.5367,9.5521,9.5172,9.3864,9.3518,9.3403,9.3403,9.321,9.3056,9.3056,9.3056,9.3056,9.3056,9.2479,9.2172,9.2172,9.1556,9.121,9.121,9.121,9.121,9.121,9.121,9.1095,9.0855,9.0855,9.0748,7.7766,7.8222,7.8772,7.947,8.0351,8.1195,8.1893,8.2406,8.2957,8.3765,8.4572,8.527,8.5727,8.6444,8.6978,8.6978,8.7325,8.7692,8.8133,8.85,8.905,8.984,8.9913,9.0244,9.1069,9.1143,9.1326,9.1767,9.1363,9.1326,9.1767,9.1803,9.1803,9.1803,9.1803,9.1803,9.1803,9.1803,9.1803,9.1803,9.1803,9.1803,9.1803,9.1803,9.1803,9.1803,9.1803,9.1803,9.1803,9.1803,9.1803,9.1803,9.1803,9.1803,9.1803,9.1803,9.1803,9.1803,9.1803,9.1803,9.1803,9.1803,9.1803,9.1803,9.1803,9.1803,9.1803,9.1803,9.1803,9.1803,9.1803,9.1803,9.1803,9.1803,9.2142,9.2485,9.2485,9.3061,9.3706,9.4047,9.4718,9.5341,9.5741,9.6098,9.6288,9.6288,9.6288,9.5942,9.498,9.4518,9.4258,9.4258,9.3941,9.371,9.371,9.371,9.371,9.371,9.3287,9.3018,9.3018,9.2556,9.2287,9.2287,9.2287,9.2287,9.2287,9.1941,9.1787,9.1748,9.1364,9.121,7.8405,7.8772,7.925,8.0645,8.1085,8.1562,8.3051,8.3381,8.3638,8.4572,8.5306,8.5837,8.593,8.6518,8.7014,8.7124,8.7729,8.828,8.85,8.9106,8.984,9.0665,9.0776,9.1033,9.173,9.1803,9.1803,9.1803,9.1803,9.1803,9.1803,9.1803,9.1803,9.1803,9.1803,9.1803,9.1803,9.1803,9.1803,9.1803,9.1803,9.1803,9.1803,9.1803,9.1803,9.1803,9.1803,9.1803,9.1803,9.1803,9.1803,9.1803,9.1803,9.1803,9.1803,9.1803,9.1803,9.1803,9.1803,9.1803,9.1803,9.1803,9.1803,9.1803,9.1803,9.1803,9.1803,9.1803,9.1803,9.1803,9.1803,9.1803,9.1803,9.1803,9.1803,9.1803,9.1803,9.2348,9.3083,9.3807,9.4463,9.4927,9.5048,9.5678,9.6146,9.6146,9.6241,9.6288,9.6288,9.5634,9.5181,9.5181,9.448,9.4057,9.4057,9.4057,9.4057,9.4057,9.3941,9.3864,9.3864,9.3749,9.371,9.371,9.371,9.371,9.371,9.2979,9.2672,9.2633,9.1864,9.1518,7.8552,7.958,8.0645,8.0938,8.1489,8.2223,8.3161,8.3381,8.3821,8.527,8.571,8.6004,8.6664,8.6904,8.7215,8.7876,8.8096,8.8647,9.0005,9.0298,9.0702,9.151,9.1583,9.1657,9.1803,9.1803,9.1803,9.1803,9.1803,9.1803,9.1803,9.1803,9.1803,9.1803,9.1803,9.1803,9.1803,9.1803,9.1803,9.1803,9.1803,9.1803,9.1803,9.1803,9.1803,9.1803,9.1803,9.1803,9.1803,9.1803,9.1803,9.1803,9.1803,9.1803,9.1803,9.1803,9.1803,9.1803,9.1803,9.1803,9.1803,9.1803,9.1803,9.1803,9.1803,9.1803,9.1803,9.1803,9.1803,9.1803,9.1803,9.1803,9.1803,9.1803,9.1803,9.1803,9.1803,9.1893,9.2227,9.3051,9.3295,9.3597,9.4198,9.4891,9.5385,9.5385,9.5892,9.6288,9.6288,9.6172,9.6057,9.6057,9.5942,9.5865,9.5865,9.5865,9.5865,9.5865,9.5172,9.4758,9.4758,9.4066,9.371,9.371,9.371,9.371,9.371,9.3557,9.348,9.348,9.3326,9.3249,7.9103,8.0094,8.1122,8.1525,8.2223,8.303,8.3838,8.4352,8.4976,8.6187,8.6407,8.6554,8.6904,8.7362,8.7766,8.8133,8.8904,8.9711,9.0482,9.0959,9.1363,9.173,9.1803,9.1803,9.1803,9.1803,9.1803,9.1803,9.1803,9.1803,9.1803,9.1803,9.1803,9.1803,9.1803,9.1803,9.1803,9.1803,9.1803,9.1803,9.1803,9.1803,9.1803,9.1803,9.1803,9.1803,9.1803,9.1803,9.1803,9.1803,9.1803,9.1803,9.1803,9.1803,9.1803,9.1803,9.1803,9.1803,9.1803,9.1803,9.1803,9.1803,9.1803,9.1803,9.1803,9.1803,9.1803,9.1803,9.1803,9.1803,9.1803,9.1803,9.1803,9.1803,9.1803,9.1803,9.1803,9.1803,9.1912,9.2296,9.3014,9.3677,9.4047,9.5048,9.5752,9.5752,9.6049,9.6288,9.6288,9.6288,9.6288,9.6288,9.6288,9.6288,9.6288,9.6288,9.6288,9.6288,9.5903,9.5672,9.5672,9.5288,9.5057,9.5057,9.5057,9.5057,9.5057,9.4595,9.4373,9.4373,9.3912,9.371,7.9853,8.0645,8.1415,8.2039,8.281,8.3601,8.4425,8.5233,8.604,8.6848,8.6978,8.7051,8.7234,8.7766,8.8316,8.8647,8.9784,9.0665,9.0849,9.14,9.1803,9.1803,9.1803,9.1803,9.1803,9.1803,9.1803,9.1803,9.1803,9.1803,9.1803,9.1803,9.1803,9.1803,9.1803,9.1803,9.1803,9.1803,9.1803,9.1803,9.1803,9.1803,9.1803,9.1803,9.1803,9.1803,9.1803,9.1803,9.1803,9.1803,9.1803,9.1803,9.1803,9.1803,9.1803,9.1803,9.1803,9.1803,9.1803,9.1803,9.1803,9.1803,9.1803,9.1803,9.1803,9.1803,9.1803,9.1803,9.1803,9.1803,9.1803,9.1803,9.1803,9.1803,9.1803,9.1803,9.1803,9.1803,9.1803,9.1803,9.2793,9.3677,9.3836,9.4939,9.5872,9.603,9.6213,9.6288,9.6288,9.6288,9.6288,9.6288,9.6288,9.6288,9.6288,9.6288,9.6288,9.6288,9.6288,9.6288,9.6288,9.6288,9.6288,9.6288,9.6288,9.6288,9.6288,9.5595,9.5297,9.5258,9.4595,9.4249,8.0681,8.1489,8.2113,8.2186,8.281,8.3601,8.4425,8.5233,8.604,8.6848,8.6978,8.7215,8.7949,8.8133,8.8683,9.0152,9.0519,9.0849,9.1583,9.173,9.1803,9.1803,9.1803,9.1803,9.1803,9.1803,9.1803,9.1803,9.1803,9.1803,9.1803,9.1803,9.1803,9.1803,9.1803,9.1803,9.1803,9.1803,9.1803,9.1803,9.1803,9.1803,9.1803,9.1803,9.1803,9.1803,9.1803,9.1803,9.1803,9.1803,9.1803,9.1803,9.1803,9.1803,9.1803,9.1803,9.1803,9.1803,9.1803,9.1803,9.1803,9.1803,9.1803,9.1803,9.1803,9.1803,9.1803,9.1803,9.1803,9.1803,9.1803,9.1803,9.1803,9.1803,9.1803,9.1803,9.1803,9.1803,9.1803,9.1803,9.1912,9.2227,9.2971,9.3764,9.4515,9.5189,9.5872,9.6288,9.6288,9.6288,9.6288,9.6288,9.6288,9.6288,9.6288,9.6288,9.6288,9.6288,9.6288,9.6288,9.6288,9.6288,9.6288,9.6288,9.6288,9.6288,9.6288,9.6211,9.6172,9.6172,9.6095,9.6057,8.0791,8.1599,8.2333,8.281,8.3544,8.4352,8.5123,8.593,8.6628,8.6904,8.6978,8.7252,8.8059,8.861,8.929,9.0408,9.1033,9.1436,9.173,9.1803,9.1803,9.1803,9.1803,9.1803,9.1803,9.1803,9.1803,9.1803,9.1803,9.1803,9.1803,9.1803,9.1803,9.1803,9.1803,9.1803,9.1803,9.1803,9.1803,9.1803,9.1803,9.1803,9.1803,9.1803,9.1803,9.1803,9.1803,9.1803,9.1803,9.1803,9.1803,9.1803,9.1803,9.1803,9.1803,9.1803,9.1803,9.1803,9.1803,9.1803,9.1803,9.1803,9.1803,9.1803,9.1803,9.1803,9.1803,9.1803,9.1803,9.1803,9.1803,9.1803,9.1803,9.1803,9.1803,9.1803,9.1803,9.1803,9.1803,9.1803,9.2194,9.2616,9.2939,9.3977,9.4866,9.5154,9.5841,9.6288,9.6288,9.6288,9.6288,9.6288,9.6288,9.6288,9.6288,9.6288,9.6288,9.6288,9.6288,9.6288,9.6288,9.6288,9.6288,9.6288,9.6288,9.6288,9.6288,9.6288,9.6288,9.6288,9.6288,9.6288,8.1085,8.1782,8.237,8.3197,8.4005,8.4792,8.56,8.6407,8.6978,8.6978,8.7215,8.7619,8.8426,8.9216,9.0024,9.0812,9.1436,9.1803,9.1803,9.1803,9.1803,9.1803,9.1803,9.1803,9.1803,9.1803,9.1803,9.1803,9.1803,9.1803,9.1803,9.1803,9.1803,9.1803,9.1803,9.1803,9.1803,9.1803,9.1803,9.1803,9.1803,9.1803,9.1803,9.1803,9.1803,9.1803,9.1803,9.1803,9.1803,9.1803,9.1803,9.1803,9.1803,9.1803,9.1803,9.1803,9.1803,9.1803,9.1803,9.1803,9.1803,9.1803,9.1803,9.1803,9.1803,9.1803,9.1803,9.1803,9.1803,9.1803,9.1803,9.1803,9.1803,9.1803,9.1803,9.1803,9.1803,9.1803,9.1803,9.1803,9.2281,9.2732,9.2955,9.3864,9.4718,9.5131,9.5657,9.604,9.6269,9.6288,9.6288,9.6288,9.6288,9.6288,9.6288,9.6288,9.6288,9.6288,9.6288,9.6288,9.6288,9.6288,9.6288,9.6288,9.6288,9.6288,9.6288,9.6288,9.6288,9.6288,9.6288,9.6288,8.1746,8.2186,8.237,8.3197,8.4005,8.4792,8.56,8.6407,8.6978,8.6978,8.7619,8.8426,8.9253,9.006,9.0849,9.1657,9.1803,9.1803,9.1803,9.1803,9.1803,9.1803,9.1803,9.1803,9.1803,9.1803,9.1803,9.1803,9.1803,9.1803,9.1803,9.1803,9.1803,9.1803,9.1803,9.1803,9.1803,9.1803,9.1803,9.1803,9.1803,9.1803,9.1803,9.1803,9.1803,9.1803,9.1803,9.1803,9.1803,9.1803,9.1803,9.1803,9.1803,9.1803,9.1803,9.1803,9.1803,9.1803,9.1803,9.1803,9.1803,9.1803,9.1803,9.1803,9.1803,9.1803,9.1803,9.1803,9.1803,9.1803,9.1803,9.1803,9.1803,9.1803,9.1803,9.1803,9.1803,9.1803,9.1803,9.1803,9.1822,9.2053,9.2842,9.3003,9.3537,9.4963,9.52,9.549,9.6222,9.6288,9.6288,9.6288,9.6288,9.6288,9.6288,9.6288,9.6288,9.6288,9.6288,9.6288,9.6288,9.6288,9.6288,9.6288,9.6288,9.6288,9.6288,9.6288,9.6288,9.6288,9.6288,9.6288,8.1746,8.259,8.3214,8.4022,8.4829,8.5637,8.6444,8.6811,8.6978,8.6978,8.7655,8.8463,8.9253,9.006,9.0849,9.1657,9.1803,9.1803,9.1803,9.1803,9.1803,9.1803,9.1803,9.1803,9.1803,9.1803,9.1803,9.1803,9.1803,9.1803,9.1803,9.1803,9.1803,9.1803,9.1803,9.1803,9.1803,9.1803,9.1803,9.1803,9.1803,9.1803,9.1803,9.1803,9.1803,9.1803,9.1803,9.1803,9.1803,9.1803,9.1803,9.1803,9.1803,9.1803,9.1803,9.1803,9.1803,9.1803,9.1803,9.1803,9.1803,9.1803,9.1803,9.1803,9.1803,9.1803,9.1803,9.1803,9.1803,9.1803,9.1803,9.1803,9.1803,9.1803,9.1803,9.1803,9.1803,9.1803,9.1803,9.1803,9.1803,9.1875,9.2142,9.3045,9.3735,9.3692,9.4963,9.5852,9.5576,9.5991,9.6288,9.6288,9.6288,9.6288,9.6288,9.6288,9.6288,9.6288,9.6288,9.6288,9.6288,9.6288,9.6288,9.6288,9.6288,9.6288,9.6288,9.6288,9.6288,9.6288,9.6288,9.6288,8.1856,8.281,8.3601,8.4389,8.5196,8.6004,8.6811,8.6978,8.7088,8.7399,8.8096,8.8904,8.9693,9.0519,9.1216,9.173,9.1803,9.1803,9.1803,9.1803,9.1803,9.1803,9.1803,9.1803,9.1803,9.1803,9.1803,9.1803,9.1803,9.1803,9.1803,9.1803,9.1803,9.1803,9.1803,9.1803,9.1803,9.1803,9.1803,9.1803,9.1803,9.195,9.2281,9.2281,9.2464,9.2721,9.2721,9.2721,0.0,9.2721,9.2721,9.2721,9.2721,9.2721,9.2721,9.2721,9.2721,9.2721,9.2721,9.2721,9.2721,9.2721,9.2721,9.2721,9.2721,9.2281,9.1803,9.1803,9.1803,9.1803,9.1803,9.1803,9.1803,9.1803,9.1803,9.1803,9.1803,9.1803,9.1803,9.1803,9.1803,9.1803,9.1803,9.2858,9.3618,9.3462,9.483,9.5831,9.5657,9.601,9.6288,9.6288,9.6288,9.6288,9.6288,9.6288,9.6288,9.6288,9.6288,9.6288,9.6288,9.6288,9.6288,9.6288,9.6288,9.6288,9.6288,9.6288,9.6288,9.6288,9.6288,9.6288,0.0,8.2884,8.3638,8.4425,8.5233,8.6077,8.6848,8.7014,0.0,8.8059,8.8904,8.9693,9.0482,9.1253,9.1803,9.1803,9.1803,9.1803,9.1803,9.1803,9.1803,9.1803,9.1803,9.1803,9.1803,9.1803,9.1803,9.1803,9.1803,9.184,9.1877,9.1877,9.1913,9.1987,9.1987,9.195,9.1877,9.195,9.1987,9.1987,9.1987,9.2391,9.3198,9.3198,9.3602,9.4299,9.4299,9.4299,9.4299,9.4299,9.4299,9.4299,9.4299,9.4299,9.4299,9.4299,9.4299,9.4299,9.4299,9.4299,9.4299,9.4299,9.4299,9.4299,9.4299,9.3198,9.1987,9.1987,9.1987,9.1987,9.1987,9.1987,9.1987,9.1987,9.1987,9.1987,9.1987,9.1987,9.1987,9.1987,9.1987,9.1987,9.1987,9.2633,9.3389,9.4038,9.4794,9.5522,9.6155,9.628,9.6288,9.6288,9.6288,9.6288,9.6288,9.6288,9.6288,9.6288,9.6288,9.6288,9.6288,9.6288,9.6288,9.6288,9.6288,9.6288,9.6288,9.6288,9.6288,9.6288,9.6288,9.6288,8.2904,0.0,8.4352,8.4535,8.5673,8.6775,0.0,8.7472,8.7986,8.8169,8.9344,9.0391,9.0592,9.1253,9.1803,9.1803,9.1803,9.1803,9.1803,9.1803,9.1803,9.1803,9.1803,9.1803,9.1803,9.1803,9.1803,9.1803,9.1803,9.2097,9.2758,9.2794,9.3088,9.3675,9.3712,9.3418,9.2794,9.3382,9.3712,9.3712,9.3712,9.3822,9.4006,9.4006,9.4116,9.4299,9.4299,9.4299,9.4299,9.4299,9.4299,9.4299,9.4299,9.4299,9.4299,9.4299,9.4299,9.4299,9.4299,9.4299,9.4299,9.4299,9.4299,9.4299,9.4299,9.4006,9.3712,9.3712,9.3712,9.3712,9.3712,9.3712,9.3712,9.3712,9.3712,9.3712,9.3712,9.3712,9.3712,9.3712,9.3712,9.3712,9.3712,9.4356,9.4706,9.4303,9.5296,9.5962,9.5578,9.5959,9.6288,9.6288,9.6288,9.6288,9.6288,9.6288,9.6288,9.6288,9.6288,9.6288,9.6288,9.6288,9.6288,9.6288,9.6288,9.6288,9.6288,9.6288,9.6288,9.6288,9.6288,9.6288,8.3161,8.3968,8.4682,8.5049,8.6077,8.6978,8.6978,8.7619,8.8316,8.8683,8.9748,9.0702,9.1069,9.151,9.1803,9.1803,9.1803,9.1803,9.1803,9.1803,9.1803,9.1803,9.1803,9.1803,9.1803,9.1803,9.1803,9.1803,9.217,9.2611,9.3088,9.3455,9.3859,9.4299,9.4666,9.4446,9.3675,9.4079,9.4299,9.4299,9.4299,9.4483,9.485,9.485,9.5034,9.5401,9.5401,9.5401,9.5401,9.5401,9.5401,9.5401,9.5401,9.5401,9.5401,9.5401,9.5401,9.5401,9.5401,9.5401,9.5401,9.5401,9.5401,9.5401,9.5401,9.5401,9.5254,9.452,9.4299,9.4299,9.4299,9.4299,9.4299,9.4299,9.4299,9.4299,9.4299,9.4299,9.4299,9.4299,9.4299,9.4299,9.4299,9.4893,9.5247,9.4841,9.5728,9.6438,9.6348,9.6658,9.7043,9.7414,9.7442,9.7442,9.7442,9.7442,9.7134,9.6365,9.6288,9.6288,9.6288,9.6288,9.6288,9.6288,9.6288,9.6288,9.6288,9.6288,9.6288,9.6288,9.6288,9.6288,8.3308,8.4078,8.4792,8.56,8.6407,8.7014,8.7178,8.7802,8.861,8.94,9.0207,9.0996,9.1657,9.1803,9.1803,9.1803,9.1803,9.1803,9.1803,9.1803,9.1803,9.1803,9.1803,9.1803,9.1803,9.1913,9.1987,9.1987,9.2794,9.3345,9.3455,9.4116,9.452,9.4666,9.5327,9.5364,9.4666,9.4666,9.4666,9.4666,9.4666,9.5034,9.5675,9.5675,9.6061,9.6685,9.6685,9.6685,9.6685,9.6685,9.6685,9.6685,9.6685,9.6685,9.6685,9.6685,9.6685,9.6685,9.6685,9.6685,9.6685,9.6685,9.6685,9.6685,9.6685,9.6685,9.6428,9.5034,9.4666,9.4666,9.4666,9.4666,9.4666,9.4666,9.4666,9.4666,9.4666,9.4666,9.4666,9.4666,9.4666,9.4666,9.4666,9.5195,9.5585,9.5585,9.6113,9.6743,9.7376,9.7426,9.7738,9.8536,9.8634,9.8663,9.8788,9.8788,9.8173,9.6788,9.6673,9.6673,9.6673,9.6673,9.6673,9.6673,9.6673,9.6673,9.6673,9.6557,9.648,9.648,9.6365,9.6288,8.4022,8.4499,8.4792,8.56,8.6407,8.7161,8.7876,8.8629,8.9436,9.0244,9.1069,9.1657,9.1767,9.1803,9.1803,9.1803,9.1803,9.1803,9.1803,9.1803,9.1803,9.1803,9.1803,9.1803,9.1803,9.2464,9.2905,9.2905,9.3639,9.441,9.5088,9.5235,9.5621,9.6318,9.6465,9.6465,9.6318,9.6318,9.6318,9.6318,9.6318,9.6392,9.6539,9.6539,9.6575,9.6685,9.6685,9.6685,9.6685,9.6685,9.6685,9.6685,9.6685,9.6685,9.6685,9.6685,9.6685,9.6685,9.6685,9.6685,9.6685,9.6685,9.6685,9.6685,9.6685,9.6685,9.6649,9.6392,9.6318,9.6318,9.6318,9.6318,9.6318,9.6318,9.6318,9.6318,9.6318,9.6318,9.6318,9.6318,9.6318,9.6318,9.6318,9.6451,9.6509,9.6509,9.6565,9.6611,9.6756,9.668,9.6965,9.7688,9.7757,9.8047,9.875,9.8788,9.8673,9.8442,9.8404,9.8404,9.8404,9.8404,9.8404,9.8404,9.8404,9.8404,9.8404,9.7673,9.7326,9.7288,9.6634,9.6288,8.4278,8.4903,8.5453,8.6261,8.7068,8.7766,8.8133,8.916,9.0134,9.0519,9.1253,9.1803,9.1803,9.1803,9.1803,9.1803,9.1803,9.1803,9.1803,9.1803,9.1803,9.1803,9.1803,9.1987,9.2464,9.2868,9.3272,9.3712,9.4483,9.5107,9.5455,9.5895,9.6318,9.6685,9.6685,9.6685,9.6685,9.6685,9.6685,9.6685,9.6685,9.6685,9.6685,9.6685,9.6685,9.6685,9.6685,9.6685,9.6685,9.6685,9.6685,9.6685,9.6685,9.6685,9.6685,9.6685,9.6685,9.6685,9.6685,9.6685,9.6685,9.6685,9.6685,9.6685,9.6685,9.6685,9.6685,9.6685,9.6685,9.6685,9.6685,9.6685,9.6685,9.6685,9.6685,9.6685,9.6685,9.6685,9.6685,9.6685,9.6685,9.6685,9.6685,9.6685,9.6685,9.6685,9.6658,9.6797,9.7187,9.721,9.7509,9.8253,9.8371,9.8502,9.8893,9.9312,9.9323,9.8808,9.8788,9.8788,9.8788,9.8788,9.8788,9.8788,9.8788,9.8788,9.8788,9.8404,9.8211,9.8173,9.7827,9.7634,8.4609,8.5306,8.604,8.7031,8.7729,8.8243,8.8426,8.9601,9.0665,9.0849,9.1363,9.1803,9.1803,9.1803,9.1803,9.1803,9.1803,9.1803,9.1803,9.1803,9.1877,9.206,9.2097,9.2427,9.3308,9.3565,9.3932,9.452,9.5327,9.5804,9.5804,9.6392,9.6685,9.6685,9.6685,9.6685,9.6685,9.6685,9.6685,9.6685,9.6685,9.6685,9.6685,9.6685,9.6685,9.6685,9.6685,9.6685,9.6685,9.6685,9.6685,9.6685,9.6685,9.6685,9.6685,9.6685,9.6685,9.6685,9.6685,9.6685,9.6685,9.6685,9.6685,9.6685,9.6685,9.6685,9.6685,9.6685,9.6685,9.6685,9.6685,9.6685,9.6685,9.6685,9.6685,9.6685,9.6685,9.6685,9.6685,9.6685,9.6685,9.6685,9.6685,9.6685,9.6685,9.6685,9.6685,9.6896,9.7475,9.7525,9.7847,9.8651,9.8905,9.9165,9.9509,10.0085,10.018,9.9423,9.9404,9.9404,9.9404,9.9404,9.9404,9.9404,9.9404,9.9404,9.9404,9.9211,9.9096,9.9096,9.8913,9.8788,8.527,8.5747,8.6151,8.7729,8.8169,8.839,8.9143,8.9987,9.0812,9.1546,9.1767,9.1803,9.1803,9.1803,9.1803,9.1803,9.1803,9.1803,9.1803,9.1803,9.2097,9.2905,9.3015,9.3308,9.4116,9.4887,9.5345,9.5418,9.6171,9.6612,9.6612,9.6685,9.6685,9.6685,9.6685,9.6685,9.6685,9.6685,9.6685,9.6685,9.6685,9.6685,9.6685,9.6685,9.6685,9.6685,9.6685,9.6685,9.6685,9.6685,9.6685,9.6685,9.6685,9.6685,9.6685,9.6685,9.6685,9.6685,9.6685,9.6685,9.6685,9.6685,9.6685,9.6685,9.6685,9.6685,9.6685,9.6685,9.6685,9.6685,9.6685,9.6685,9.6685,9.6685,9.6685,9.6685,9.6685,9.6685,9.6685,9.6685,9.6685,9.6685,9.6685,9.6685,9.6685,9.6685,9.6685,9.6705,9.6781,9.68,9.7064,9.7813,9.856,9.9576,10.1011,10.12,10.1201,10.1087,10.1087,10.1087,10.1087,10.1087,10.1087,10.1087,10.1087,10.1087,10.1087,10.0404,9.999,9.999,9.9183,9.8788,8.4627,8.5118,8.5754,8.6881,8.6964,8.7348,8.9606,9.0776,9.1217,9.0776,9.1267,9.1803,9.1803,9.1803,9.1803,9.1803,9.1803,9.1803,9.1803,9.2281,9.2721,9.3051,9.3529,9.4153,9.496,9.5308,9.5712,9.6208,9.6539,9.6685,9.6685,9.6685,9.6685,9.6685,9.6685,9.6685,9.6685,9.6685,9.6685,9.6685,9.6685,9.6685,9.6685,9.6685,9.6685,9.6685,9.6685,9.6685,9.6685,9.6685,9.6685,9.6685,9.6685,9.6685,9.6685,9.6685,9.6685,9.6685,9.6685,9.6685,9.6685,9.6685,9.6685,9.6685,9.6685,9.6685,9.6685,9.6685,9.6685,9.6685,9.6685,9.6685,9.6685,9.6685,9.6685,9.6685,9.6685,9.6685,9.6685,9.6685,9.6685,9.6685,9.6685,9.6685,9.6685,9.6685,9.6685,9.6685,9.6685,9.6685,9.6801,9.7101,9.7797,9.8674,9.9783,10.0316,10.0804,10.1298,10.1279,10.1279,10.1279,10.1279,10.1279,10.1279,10.1279,10.1279,10.1279,10.1019,10.0789,10.0789,10.0519,10.0404,8.4474,8.4774,8.5307,8.6116,8.6576,8.7467,8.9849,9.0864,9.1116,9.0657,9.0926,9.136,9.1712,9.1472,9.136,9.173,9.1803,9.1913,9.217,9.2721,9.3308,9.3822,9.4336,9.4997,9.5785,9.5859,9.6098,9.6649,9.6685,9.6685,9.6685,9.6685,9.6685,9.6685,9.6685,9.6685,9.6685,9.6685,9.6685,9.6685,9.6685,9.6685,9.6685,9.6685,9.6685,9.6685,9.6685,9.6685,9.6685,9.6685,9.6685,9.6685,9.6685,9.6685,9.6685,9.6685,9.6685,9.6685,9.6685,9.6685,9.6685,9.6685,9.6685,9.6685,9.6685,9.6685,9.6685,9.6685,9.6685,9.6685,9.6685,9.6685,9.6685,9.6685,9.6685,9.6685,9.6685,9.6685,9.6685,9.6685,9.6685,9.6685,9.6685,9.6685,9.6685,9.6685,9.6685,9.6685,9.6685,9.6685,9.68,9.7009,9.751,9.814,9.8949,9.9482,10.0122,10.0917,10.0997,10.1109,10.1317,10.1279,10.1279,10.1279,10.1279,10.1279,10.1279,10.1279,10.1279,10.1279,10.1279,10.1279,8.5079,8.5003,8.4888,8.5723,8.7341,8.8971,8.9825,9.0042,9.0416,9.1565,9.0849,9.0364,9.1583,9.0793,9.0404,9.162,9.1803,9.2097,9.2978,9.3125,9.3712,9.5308,9.5492,9.5822,9.6612,9.6685,9.6685,9.6685,9.6685,9.6685,9.6685,9.6685,9.6685,9.6685,9.6685,9.6685,9.6685,9.6685,9.6685,9.6685,9.6685,9.6685,9.6685,9.6685,9.6685,9.6685,9.6685,9.6685,9.6685,9.6685,9.6685,9.6685,9.6685,9.6685,9.6685,9.6685,9.6685,9.6685,9.6685,9.6722,9.6722,9.6722,9.6722,9.6722,9.6722,9.6722,9.6722,9.6722,9.6722,9.6722,9.6722,9.6722,9.6722,9.6685,9.6685,9.6685,9.6685,9.6685,9.6685,9.6685,9.6685,9.6685,9.6685,9.6685,9.6685,9.6685,9.6685,9.6685,9.6685,9.6685,9.699,9.7695,9.7813,9.8119,9.8949,9.9022,9.936,10.0198,10.0197,10.0505,10.1298,10.1279,10.1279,10.1279,10.1279,10.1279,10.1279,10.1279,10.1279,10.1279,10.1279,10.1279,8.3744,8.3596,8.404,8.6183,8.5893,8.6184,9.0302,9.0618,9.0123,9.0443,9.0264,9.0364,9.1583,9.1491,9.1398,9.173,9.2317,9.2794,9.3051,9.406,9.4978,9.5418,9.6025,9.6428,9.6685,9.6685,9.6685,9.6685,9.6685,9.6685,9.6685,9.6685,9.6685,9.6685,9.6685,9.6685,9.6685,9.6685,9.6685,9.6685,9.6685,9.6685,9.6685,9.6685,9.6685,9.6685,9.6685,9.6685,9.6685,9.6685,9.6685,9.6685,9.6685,9.6685,9.6685,9.6685,9.6685,9.6685,9.6685,9.7052,9.753,9.753,9.7933,9.8411,9.8411,9.8411,9.8411,9.8411,9.8411,9.8411,9.8411,9.8411,9.8117,9.6979,9.6685,9.6685,9.6685,9.6685,9.6685,9.6685,9.6685,9.6685,9.6685,9.6685,9.6685,9.6685,9.6685,9.6685,9.6685,9.6685,9.6763,9.699,9.8014,9.8757,9.8993,9.9973,10.0711,10.0997,10.1008,10.108,10.1317,10.1279,10.1279,10.1279,10.1279,10.1279,10.1279,10.1279,10.1279,10.1279,10.1279,10.1279,8.3159,8.3214,8.3805,8.5294,8.5156,8.5639,8.9492,9.0559,9.0716,9.0716,9.0344,9.04,9.1583,9.1416,9.123,9.1712,9.2537,9.3198,9.3529,9.4703,9.5602,9.5932,9.6392,9.6685,9.6685,9.6685,9.6685,9.6685,9.6685,9.6685,9.6685,9.6685,9.6685,9.6685,9.6685,9.6685,9.6685,9.6685,9.6685,9.6685,9.6685,9.6685,9.6685,9.6685,9.6685,9.6685,9.6685,9.6685,9.6685,9.6685,9.6685,9.6685,9.6685,9.6906,9.7163,9.7163,9.7383,9.764,9.764,9.797,9.8374,9.8374,9.8704,9.9108,9.9108,9.9108,9.9108,9.9108,9.9108,9.9108,9.9108,9.9108,9.8851,9.7897,9.764,9.764,9.764,9.764,9.764,9.764,9.764,9.764,9.764,9.764,9.764,9.764,9.764,9.764,9.764,9.764,9.764,9.764,9.8475,9.905,9.905,10.019,10.1013,10.1383,10.1712,10.1988,10.2318,10.1712,10.1279,10.1279,10.1279,10.1279,10.1279,10.1279,10.1279,10.1279,10.1279,10.1279,8.3055,8.3497,8.3989,8.3823,8.5204,8.6889,8.8088,9.0046,9.1638,9.1638,9.0905,9.0556,9.1602,9.0907,9.0539,9.173,9.2648,9.3492,9.4299,9.5107,9.5859,9.6612,9.6685,9.6685,9.6685,9.6685,9.6685,9.6685,9.6685,9.6685,9.6685,9.6685,9.6685,9.6685,9.6685,9.6685,9.6685,9.6685,9.6685,9.6685,9.6685,9.6685,9.6685,9.6685,9.6685,9.6685,9.6685,9.6722,9.6795,9.6795,9.6832,9.6906,9.6906,9.7383,9.8007,9.8007,9.8484,9.9108,9.9108,9.9125,9.9218,9.9218,9.9255,9.9328,9.9328,9.9328,9.9328,9.9328,9.9328,9.9328,9.9328,9.9328,9.9328,9.9328,9.9218,9.9108,9.9108,9.9108,9.9108,9.9108,9.9108,9.9108,9.9108,9.9108,9.9108,9.9108,9.9108,9.9108,9.9108,9.9108,9.9108,9.9108,9.9186,9.9208,9.9208,9.9922,10.0697,10.1504,10.2292,10.3091,10.3885,10.2404,10.151,10.151,10.151,10.151,10.151,10.151,10.151,10.151,10.151,10.151,8.2654,8.3058,8.3978,8.5414,8.6773,8.8133,8.9348,9.0006,9.0384,9.0384,9.0945,9.1528,9.173,9.1602,9.1711,9.2684,9.3492,9.4336,9.5144,9.5951,9.6502,9.6685,9.6685,9.6685,9.6685,9.6685,9.6685,9.6685,9.6685,9.6685,9.6685,9.6685,9.6685,9.6685,9.6685,9.6685,9.6685,9.6685,9.6685,9.6685,9.6685,9.6685,9.6685,9.6685,9.6685,9.6685,9.6685,9.7052,9.764,9.764,9.8007,9.8594,9.8594,9.8704,9.8851,9.8851,9.8961,9.9108,9.9108,9.9512,9.9989,9.9989,10.0503,10.098,10.098,10.098,10.098,10.098,10.098,10.098,10.098,10.098,10.098,10.098,9.9989,9.9108,9.9108,9.9108,9.9108,9.9108,9.9108,9.9108,9.9108,9.9108,9.9108,9.9108,9.9108,9.9108,9.9108,9.9108,9.9108,9.9108,9.9668,9.9993,9.9993,10.0718,10.1504,10.2294,10.2487,10.2979,10.3885,10.3482,10.3289,10.3289,10.3289,10.3289,10.3289,10.3289,10.3289,10.3289,10.3289,10.3289,8.2938,8.3619,8.4514,8.5309,8.6865,8.8357,8.9028,9.0083,9.0868,9.0868,9.1379,9.1803,9.1803,9.2134,9.2574,9.3015,9.4116,9.5034,9.5418,9.6208,9.6685,9.6685,9.6685,9.6685,9.6685,9.6685,9.6685,9.6685,9.6685,9.6685,9.6685,9.6685,9.6685,9.6685,9.6685,9.6685,9.6685,9.6685,9.6685,9.6685,9.6685,9.6906,9.7273,9.7273,9.7273,9.7309,9.7676,9.808,9.8484,9.8484,9.8741,9.9108,9.9108,9.9365,9.9659,9.9659,9.9916,10.0209,10.0209,10.0503,10.0927,10.0927,10.122,10.1514,10.1514,10.1514,10.1514,10.1514,10.1514,10.1514,10.1514,10.1514,10.1514,10.1514,10.0927,10.0209,10.0209,10.0209,10.0209,10.0209,10.0209,10.0209,10.0209,10.0209,10.0209,10.0209,10.0209,10.0209,10.0209,10.0209,10.0209,10.0209,10.0604,10.0889,10.0889,10.16,10.2182,10.2614,10.2995,10.3603,10.4503,10.4499,10.4287,10.3905,10.3905,10.3905,10.3905,10.3905,10.3905,10.3905,10.3905,10.3905,8.3396,8.4293,8.5045,8.4956,8.6424,8.7952,8.8214,8.9924,9.1472,9.1472,9.1657,9.184,9.1987,9.2611,9.3198,9.3492,9.463,9.5528,9.5675,9.6282,9.6685,9.6685,9.6685,9.6685,9.6685,9.6685,9.6685,9.6685,9.6685,9.6685,9.6685,9.6685,9.6685,9.6685,9.6685,9.6685,9.6685,9.6685,9.6759,9.6906,9.7052,9.7456,9.8117,9.8227,9.8227,9.8117,9.8814,9.9162,9.9328,9.9328,9.9402,9.9512,9.9512,9.9916,10.0503,10.0503,10.0907,10.1514,10.1514,10.1514,10.1514,10.1514,10.1514,10.1514,10.1514,10.1514,10.1514,10.1514,10.1514,10.1514,10.1514,10.1514,10.1514,10.1514,10.1514,10.1514,10.1514,10.1514,10.1514,10.1514,10.1514,10.1514,10.1514,10.1514,10.1514,10.1514,10.1514,10.1514,10.1514,10.1514,10.1514,10.1514,10.1514,10.1514,10.1514,10.211,10.2607,10.2693,10.3409,10.41,10.5011,10.5012,10.4707,10.4097,10.4287,10.4289,10.4289,10.4289,10.4289,10.4289,10.4289,10.4289,8.3306,8.4096,8.4938,8.5962,8.6449,8.6913,8.7975,8.9263,9.0244,9.0244,9.106,9.2024,9.2794,9.3015,9.3565,9.4941,9.5345,9.5749,9.6428,9.6649,9.6685,9.6685,9.6685,9.6685,9.6685,9.6685,9.6685,9.6685,9.6685,9.6685,9.6685,9.6685,9.6685,9.6685,9.6685,9.6685,9.6685,9.6685,9.7052,9.775,9.8447,9.8851,9.8961,9.9659,9.9585,9.8961,9.9071,9.9512,10.0099,10.0099,10.0596,10.122,10.122,10.12,10.131,10.131,10.1404,10.1514,10.1514,10.1514,10.1514,10.1514,10.1514,10.1514,10.1514,10.1514,10.1514,10.1514,10.1514,10.1514,10.1514,10.1514,10.1514,10.1514,10.1514,10.1514,10.1514,10.1514,10.1514,10.1514,10.1514,10.1514,10.1514,10.1514,10.1514,10.1514,10.1514,10.1514,10.1514,10.1514,10.1514,10.1514,10.1514,10.1514,10.1514,10.1597,10.1993,10.2695,10.2779,10.331,10.4108,10.4176,10.4387,10.5001,10.569,10.6097,10.6097,10.6097,10.6097,10.6097,10.6097,10.6097,8.393,8.4343,8.4739,8.53,8.5912,8.672,8.7929,8.9121,9.0168,9.0888,9.1838,9.2648,9.3015,9.3455,9.4153,9.5308,9.5859,9.6318,9.6649,9.6685,9.6685,9.6685,9.6685,9.6685,9.6685,9.6685,9.6685,9.6685,9.6685,9.6685,9.6685,9.6685,9.6685,9.6685,9.6685,9.6906,9.7346,9.7346,9.7787,9.8594,9.9402,9.9769,9.9805,10.0613,10.0503,9.9805,10.0209,10.0613,10.1,10.1,10.122,10.1514,10.1514,10.1514,10.1514,10.1514,10.1514,10.1514,10.1514,10.1514,10.1514,10.1514,10.1514,10.1514,10.1514,10.1514,10.1514,10.1514,10.1514,10.1514,10.1514,10.1514,10.1514,10.1514,10.1514,10.1514,10.1514,10.1514,10.1514,10.1514,10.1514,10.1514,10.1514,10.1514,10.1514,10.1514,10.1514,10.1514,10.1514,10.1514,10.1514,10.1514,10.1514,10.1514,10.1514,10.1514,10.1714,10.2014,10.1996,10.2407,10.3185,10.331,10.3715,10.4487,10.5319,10.5892,10.6395,10.6395,10.6395,10.6395,10.6395,10.6395,8.4444,8.4614,8.4614,8.4614,8.5515,8.6623,8.7538,8.8942,9.0256,9.1026,9.222,9.3105,9.3226,9.3983,9.4887,9.5694,9.6318,9.6685,9.6685,9.6685,9.6685,9.6685,9.6685,9.6685,9.6685,9.6685,9.6685,9.6685,9.6685,9.6685,9.6685,9.6685,9.6685,9.6685,9.6906,9.7273,9.7897,9.832,9.8814,9.9402,10.0209,10.0613,10.0613,10.12,10.122,10.0613,10.12,10.1514,10.1514,10.1514,10.1514,10.1514,10.1514,10.1514,10.1514,10.1514,10.1514,10.1514,10.1514,10.1514,10.1514,10.1514,10.1514,10.1494,10.1677,10.1788,10.1788,10.2101,10.2081,10.2081,10.2081,10.2081,10.2081,10.2081,10.2081,10.1991,10.1587,10.1514,10.1514,10.1514,10.1514,10.1514,10.1514,10.1514,10.1514,10.1514,10.1514,10.1514,10.1514,10.1514,10.1514,10.1514,10.1514,10.1514,10.1514,10.1514,10.1514,10.1514,10.1514,10.1798,10.2389,10.2388,10.2903,10.3995,10.441,10.5091,10.6107,10.6107,10.6182,10.6395,10.6395,10.6395,8.458,8.4614,8.4614,8.4614,8.5515,8.6414,8.6488,8.8371,8.997,8.9596,9.1433,9.3191,9.3525,9.4611,9.5694,9.6502,9.6685,9.6685,9.6685,9.6685,9.6685,9.6685,9.6685,9.6685,9.6685,9.6685,9.6685,9.6685,9.6685,9.6685,9.6685,9.6685,9.6685,9.6685,9.7419,9.786,9.7916,9.9402,10.0209,10.0209,10.111,10.1384,10.1384,10.1514,10.1514,10.1384,10.1514,10.1514,10.1514,10.1514,10.1514,10.1514,10.1514,10.1514,10.1514,10.1514,10.1514,10.1514,10.1514,10.1514,10.1514,10.1514,10.1514,10.1604,10.2412,10.2595,10.2815,10.3586,10.3806,10.3806,10.3806,10.3806,10.3806,10.3806,10.3806,10.3423,10.1808,10.1514,10.1514,10.1514,10.1514,10.1514,10.1514,10.1514,10.1514,10.1514,10.1514,10.1514,10.1514,10.1514,10.1514,10.1514,10.1514,10.1514,10.1514,10.1514,10.1514,10.1514,10.1514,10.1497,10.1594,10.1594,10.2297,10.3995,10.3185,10.3602,10.532,10.532,10.5701,10.6395,10.6395,10.6395,8.4614,8.4614,8.4614,8.4614,8.4917,8.5668,8.7222,8.7631,8.8493,9.1227,9.2268,9.3154,9.4561,9.5169,9.5749,9.6575,9.6685,9.6685,9.6685,9.6685,9.6685,9.6685,9.6685,9.6685,9.6685,9.6685,9.6685,9.6685,9.6685,9.6685,9.6685,9.7199,9.7456,9.7456,9.8264,9.8924,9.9438,10.0503,10.111,10.111,10.1404,10.1514,10.1514,10.1514,10.1514,10.1514,10.1514,10.1514,10.1514,10.1514,10.1514,10.1514,10.1514,10.1514,10.1514,10.1514,10.1514,10.1587,10.2081,10.2301,10.2375,10.2909,10.2999,10.3109,10.3403,10.3513,10.3513,10.3806,10.388,10.388,10.388,10.388,10.388,10.388,10.388,10.3696,10.3203,10.2999,10.2999,10.2999,10.2999,10.2999,10.2999,10.2999,10.2999,10.2999,10.2999,10.2999,10.2999,10.2999,10.2999,10.2999,10.2999,10.2999,10.2999,10.2999,10.2999,10.2999,10.2999,10.2999,10.2999,10.2999,10.3288,10.3891,10.3606,10.3978,10.518,10.518,10.5306,10.5613,10.6199,10.6395,8.4614,8.4614,8.4614,8.4614,8.4614,8.5214,8.7631,8.7796,8.8472,9.2106,9.3217,9.3861,9.5055,9.5591,9.6098,9.6612,9.6685,9.6685,9.6685,9.6685,9.6685,9.6685,9.6685,9.6685,9.6685,9.6685,9.6685,9.6685,9.6685,9.6832,9.7089,9.7603,9.8173,9.8668,9.9218,9.9879,10.0686,10.12,10.1514,10.1514,10.1514,10.1514,10.1514,10.1514,10.1514,10.1514,10.1514,10.1514,10.1514,10.1514,10.1514,10.1514,10.1514,10.1698,10.1898,10.1898,10.2101,10.2395,10.2889,10.3109,10.3182,10.3696,10.388,10.4011,10.421,10.432,10.4394,10.4687,10.4687,10.4687,10.4687,10.4687,10.4687,10.4687,10.4687,10.4687,10.4687,10.4284,10.388,10.388,10.388,10.388,10.388,10.388,10.388,10.388,10.388,10.388,10.388,10.388,10.388,10.388,10.388,10.388,10.388,10.388,10.388,10.388,10.388,10.388,10.388,10.388,10.4007,10.4295,10.3991,10.4282,10.5191,10.5191,10.5283,10.5586,10.6392,10.6984,0.0,0.0,0.0,8.4614,8.4614,8.5248,8.7585,8.8793,8.9969,9.2006,9.3982,9.5272,9.4931,9.5887,9.6685,9.6685,9.6685,9.6685,9.6685,9.6685,9.6685,9.6685,9.6685,9.6685,9.6685,9.6685,9.6685,9.6685,9.6722,9.7089,9.786,9.7953,9.8704,10.0283,10.0319,10.0686,10.1514,10.1514,10.1514,10.1514,10.1514,10.1514,10.1514,10.1514,10.1514,10.1514,10.1514,10.1514,10.1514,10.1514,10.1514,10.1514,10.1514,10.2008,10.2705,10.2705,10.3219,10.388,10.388,10.388,10.3917,10.4011,10.399,10.41,10.4908,10.5107,10.529,10.6192,10.6376,10.6376,10.6376,10.6376,10.6376,10.6376,10.6376,10.6376,10.6376,10.5091,10.399,10.399,10.399,10.399,10.399,10.399,10.399,10.399,10.399,10.399,10.399,10.399,10.399,10.399,10.399,10.399,10.399,10.399,10.399,10.399,10.399,10.399,10.399,10.399,10.4403,10.5209,10.4406,10.4386,10.519,10.5226,10.5592,10.6415,10.7206,10.8114,8.4614,0.0,0.0,0.0,0.0,0.0,8.6561,8.6839,8.7909,9.1692,9.2655,9.351,9.5761,9.6455,9.6685,9.6685,9.6685,9.6685,9.6685,9.6685,9.6685,9.6685,9.6685,9.6685,9.6685,9.6685,9.6685,9.6685,9.7236,9.7676,9.7897,9.8998,10.0099,10.109,10.122,10.1294,10.1514,10.1514,10.1514,10.1514,10.1514,10.1514,10.1514,10.1514,10.1514,10.1514,10.1514,10.1788,10.2301,10.1677,10.1788,10.2412,10.2412,10.2889,10.3586,10.3586,10.3696,10.399,10.4614,10.4798,10.4908,10.5495,10.5678,10.5715,10.6009,10.6009,10.6082,10.6302,10.6376,10.6376,10.6376,10.6376,10.6376,10.6376,10.6376,10.6376,10.6376,10.6009,10.5678,10.5678,10.5678,10.5678,10.5678,10.5678,10.5678,10.5678,10.5678,10.5678,10.5678,10.5678,10.5678,10.5678,10.5678,10.5678,10.5678,10.5678,10.5678,10.5678,10.5678,10.5678,10.5678,10.5678,10.5788,10.6075,10.5788,10.5788,10.6096,10.6105,10.5897,10.5597,10.7003,10.7699,8.4614,8.4614,8.4614,8.4614,0.0,0.0,8.721,8.7383,8.8345,9.2827,9.3373,9.3797,9.6248,9.6685,9.6685,9.6685,9.6685,9.6685,9.6685,9.6685,9.6685,9.6685,9.6685,9.6685,9.6685,9.6685,9.6685,9.6685,9.7456,9.819,9.8851,10.0099,10.098,10.1514,10.1514,10.1514,10.1514,10.1514,10.1514,10.1514,10.1514,10.1514,10.1514,10.1514,10.1698,10.2008,10.2008,10.2485,10.3182,10.2705,10.2779,10.3219,10.3219,10.3696,10.4394,10.4394,10.4614,10.4981,10.5495,10.5584,10.5715,10.6192,10.6376,10.6376,10.6376,10.6376,10.6376,10.6376,10.6376,10.6376,10.6376,10.6376,10.6376,10.6376,10.6376,10.6376,10.6376,10.6376,10.6376,10.6376,10.6376,10.6376,10.6376,10.6376,10.6376,10.6376,10.6376,10.6376,10.6376,10.6376,10.6376,10.6376,10.6376,10.6376,10.6376,10.6376,10.6376,10.6376,10.6376,10.6376,10.6376,10.6376,10.6376,10.6376,10.6376,10.6627,10.6891,10.6605,10.632,10.6175,10.7225,10.7812,0.0,0.0,0.0,8.4614,8.4647,0.0,8.8403,8.8882,8.9881,9.4021,9.4617,9.4763,9.6027,9.6262,9.6262,9.6262,9.6397,9.655,9.6666,9.6685,9.6685,9.6685,9.6685,9.6685,9.6685,9.6685,9.6722,9.6832,9.764,9.8814,10.0413,10.109,10.1514,10.1514,10.1514,10.1514,10.1514,10.1514,10.1514,10.1514,10.1514,10.1514,10.1514,10.1624,10.2008,10.2705,10.2815,10.3293,10.399,10.399,10.399,10.399,10.399,10.4504,10.518,10.518,10.5715,10.6376,10.6376,10.6376,10.6376,10.6376,10.6376,10.6376,10.6376,10.6376,10.6376,10.6376,10.6376,10.6376,10.6376,10.6376,10.6376,10.6376,10.6376,10.6376,10.6376,10.6376,10.6376,10.6376,10.6376,10.6376,10.6376,10.6376,10.6376,10.6376,10.6376,10.6376,10.6376,10.6376,10.6376,10.6376,10.6376,10.6376,10.6376,10.6376,10.6376,10.6376,10.6376,10.6376,10.6376,10.6376,10.6376,10.6376,10.6376,10.68,10.7516,10.6706,10.6807,10.7591,10.7591,10.8024,8.4614,8.4614,8.4614,8.4614,8.508,0.0,8.6374,8.7386,8.8689,9.0602,9.1414,9.2137,9.3409,9.3638,9.3638,9.3638,9.4489,9.5508,9.657,9.6685,9.6685,9.6685,9.6685,9.6685,9.6685,9.6685,9.6979,9.7603,9.8998,10.0302,10.122,10.1404,10.1514,10.1514,10.1514,10.1514,10.1514,10.1514,10.1514,10.1514,10.1514,10.1514,10.1514,10.2191,10.2595,10.2705,10.3403,10.41,10.4908,10.4908,10.4908,10.4908,10.4908,10.5385,10.6119,10.6119,10.6302,10.6376,10.6376,10.6376,10.6376,10.6376,10.6376,10.6376,10.6376,10.6376,10.6376,10.6376,10.6376,10.6376,10.6376,10.6376,10.6376,10.6376,10.6376,10.6376,10.6376,10.6376,10.6376,10.6376,10.6376,10.6376,10.6376,10.6376,10.6376,10.6376,10.6376,10.6376,10.6376,10.6376,10.6376,10.6376,10.6376,10.6376,10.6376,10.6376,10.6376,10.6376,10.6376,10.6376,10.6376,10.6376,10.6376,10.6376,10.6376,10.6502,10.6599,10.6502,10.6807,10.7591,10.7591,10.7701,8.4614,8.4614,8.4614,8.4614,8.5215,0.0,0.0,8.7653,8.8654,9.0937,9.1195,9.1398,9.2659,9.2896,9.2896,9.2896,9.3967,9.4806,9.4806,9.5907,9.6685,9.6685,9.6685,9.6685,9.6685,9.7052,9.7787,9.8998,9.9842,10.0706,10.1514,10.1514,10.1514,10.1514,10.1514,10.1514,10.1514,10.1514,10.1514,10.1514,10.1514,10.1677,10.2081,10.2522,10.3089,10.3896,10.432,10.5018,10.5715,10.5715,10.5715,10.5715,10.5715,10.6009,10.6376,10.6376,10.6376,10.6376,10.6376,10.6376,10.6376,10.6376,10.6376,10.6376,10.6376,10.6376,10.6376,10.6376,10.6376,10.6376,10.6376,10.6376,10.6376,10.6376,10.6376,10.6376,10.6376,10.6376,10.6376,10.6376,10.6376,10.6376,10.6376,10.6376,10.6376,10.6376,10.6376,10.6376,10.6376,10.6376,10.6376,10.6376,10.6376,10.6376,10.6376,10.6376,10.6376,10.6376,10.6376,10.6376,10.6376,10.6376,10.6376,10.6376,10.6376,10.6376,10.6376,10.6376,10.6595,10.6973,10.6973,10.6973,8.4614,8.4715,8.4817,8.4817,8.552,8.6656,0.0,0.0,0.0,9.1626,9.1372,9.0971,9.1954,9.2175,9.2175,9.2175,9.3224,9.3719,9.2683,9.4511,9.5967,9.5967,9.6397,9.6608,9.6358,9.7199,9.845,10.0209,10.0192,10.0501,10.1494,10.1514,10.1514,10.1514,10.1514,10.1514,10.1514,10.1514,10.1514,10.1514,10.1698,10.2081,10.2705,10.2999,10.3917,10.5107,10.5311,10.5715,10.6376,10.6376,10.6376,10.6376,10.6376,10.6376,10.6376,10.6376,10.6376,10.6376,10.6376,10.6376,10.6376,10.6376,10.6376,10.6376,10.6376,10.6376,10.6376,10.6376,10.6376,10.6376,10.6376,10.6376,10.6376,10.6376,10.6376,10.6376,10.6376,10.6376,10.6376,10.6376,10.6376,10.6376,10.6376,10.6376,10.6376,10.6376,10.6376,10.6376,10.6376,10.6376,10.6376,10.6376,10.6376,10.6376,10.6376,10.6376,10.6376,10.6376,10.6376,10.6376,10.6376,10.6376,10.6376,10.6376,10.6376,10.6376,10.6376,10.6376,10.6376,10.6376,10.6376,10.6376,8.4614,8.5114,8.5655,8.5655,8.6704,8.7808,8.8041,0.0,8.9082,8.9449,0.0,8.9345,8.9504,0.0,0.0,8.9532,9.0614,9.1398,9.1245,9.2418,9.3317,9.3317,9.5306,9.6242,9.5118,9.6314,9.8045,10.0093,9.9851,10.0086,10.1417,10.1514,10.1514,10.1514,10.1514,10.1514,10.1514,10.1514,10.1514,10.1514,10.2191,10.2595,10.2685,10.421,10.4887,10.5107,10.5899,10.6302,10.6376,10.6376,10.6376,10.6376,10.6376,10.6376,10.6376,10.6376,10.6376,10.6376,10.6376,10.6376,10.6376,10.6376,10.6376,10.6376,10.6376,10.6376,10.6376,10.6376,10.6376,10.6376,10.6376,10.6376,10.6376,10.6376,10.6376,10.6376,10.6376,10.6376,10.6376,10.6376,10.6376,10.6376,10.6376,10.6376,10.6376,10.6376,10.6376,10.6376,10.6376,10.6376,10.6376,10.6376,10.6376,10.6376,10.6376,10.6376,10.6376,10.6376,10.6376,10.6376,10.6376,10.6376,10.6376,10.6376,10.6376,10.6376,10.6376,10.6376,10.6376,10.6376,10.6376,10.6376,8.5933,8.6196,8.6433,8.6433,8.7245,8.7989,8.7989,8.8564,8.91,8.91,0.0,0.0,0.0,0.0,0.0,0.0,9.017,9.0736,8.9982,9.164,9.2896,9.2896,9.3855,9.4651,9.4992,9.6729,9.8338,9.9729,9.9642,10.0101,10.1417,10.1514,10.1514,10.1514,10.1514,10.1514,10.1514,10.1514,10.1314,10.1001,10.1306,10.1605,10.171,10.2417,10.3393,10.4694,10.5008,10.5604,10.6376,10.6376,10.6376,10.6376,10.6376,10.6376,10.6376,10.6376,10.6376,10.6376,10.6376,10.6376,10.6376,10.6376,10.6376,10.6376,10.6376,10.6376,10.6376,10.6376,10.6376,10.6376,10.6376,10.6376,10.6376,10.6376,10.6376,10.6376,10.6376,10.6376,10.6376,10.6376,10.6376,10.6376,10.6376,10.6376,10.6376,10.6376,10.6376,10.6376,10.6376,10.6376,10.6376,10.6376,10.6376,10.6376,10.6376,10.6376,10.6376,10.6376,10.6376,10.6376,10.6376,10.6376,10.6376,10.6376,10.6376,10.6376,10.6376,10.6376,10.6376,10.6376,10.6376,10.6376,8.6907,8.7076,8.7211,8.7211,8.7753,8.8294,8.8294,8.8728,8.91,8.91,8.91,0.0,0.0,0.0,8.91,8.91,0.0,9.0143,8.924,9.0684,9.1865,9.1865,9.2151,9.3114,9.5032,9.6234,9.7617,9.938,9.8808,9.9303,10.1376,10.0793,10.0603,10.0897,10.0991,10.0808,10.0418,10.1006,10.0885,10.0074,10.0505,10.0813,10.0987,10.12,10.2413,10.4297,10.4297,10.5122,10.6376,10.6376,10.6376,10.6376,10.6376,10.6376,10.6376,10.6376,10.6376,10.6376,10.6376,10.6376,10.6376,10.6376,10.6376,10.6376,10.6376,10.6376,10.6376,10.6376,10.6376,10.6507,10.6691,10.6706,10.6801,10.7,10.7073,10.7073,10.7073,10.7073,10.7073,10.7073,10.7073,10.7,10.6801,10.6486,10.6376,10.6376,10.6376,10.6376,10.6376,10.6376,10.6376,10.6376,10.6376,10.6376,10.6376,10.6376,10.6376,10.6376,10.6376,10.6376,10.6376,10.6376,10.6376,10.6376,10.6376,10.6376,10.6376,10.6376,10.6376,10.6376,10.6376,10.6376,8.6907,8.7414,8.7955,8.7955,8.8497,8.9066,8.9066,8.91,8.91,8.91,8.91,8.91,8.91,8.91,8.91,0.0,8.9128,0.0,0.0,8.9184,8.924,8.924,9.0296,9.2133,9.4935,9.4098,9.5085,9.9172,9.7108,9.736,10.1295,9.9052,9.8241,9.952,9.9565,9.896,9.7622,9.962,9.9991,9.8763,10.0286,10.1004,10.0987,10.1792,10.2913,10.4297,10.4297,10.5122,10.6376,10.6376,10.6376,10.6376,10.6376,10.6376,10.6376,10.6376,10.6376,10.6376,10.6376,10.6376,10.6376,10.6376,10.6376,10.6376,10.6376,10.6376,10.6376,10.6376,10.6376,10.6617,10.7388,10.7609,10.7792,10.8505,10.8688,10.8688,10.8688,10.8688,10.8688,10.8688,10.8688,10.8505,10.7719,10.6911,10.6376,10.6376,10.6376,10.6376,10.6376,10.6376,10.6376,10.6376,10.6376,10.6376,10.6376,10.6376,10.6376,10.6376,10.6376,10.6376,10.6376,10.6376,10.6376,10.6376,10.6376,10.6376,10.6376,10.6376,10.6376,10.6376,10.6376,10.6376,8.8361,8.8531,8.8734,8.8734,8.8931,8.91,8.91,8.91,8.91,8.91,8.91,8.91,8.91,8.91,8.91,0.0,8.91,8.91,0.0,8.91,8.91,8.91,9.0689,9.2008,9.2562,9.426,9.613,9.8014,9.736,9.7794,10.0115,9.8479,9.7696,9.8169,9.8193,9.8225,9.8288,9.8994,9.9183,9.882,9.9344,9.9403,9.9013,9.9288,10.0185,10.1486,10.1486,10.2301,10.3699,10.4601,10.4995,10.5122,10.6004,10.6376,10.6376,10.6376,10.6376,10.6376,10.6376,10.6376,10.6376,10.6376,10.6376,10.6376,10.6376,10.6801,10.7205,10.7205,10.7609,10.8101,10.8285,10.8395,10.8505,10.8688,10.8799,10.8799,10.8799,10.8799,10.8799,10.8799,10.8799,10.8688,10.8395,10.8175,10.7587,10.6617,10.6376,10.6376,10.6376,10.6376,10.6376,10.6376,10.6376,10.6376,10.6376,10.6376,10.6376,10.6376,10.6376,10.6376,10.6376,10.6376,10.6376,10.6376,10.6376,10.6376,10.6376,10.6376,10.6376,10.6376,10.6376,10.6376,8.91,8.91,8.91,8.91,8.91,8.91,8.91,8.91,8.91,8.91,8.91,8.91,8.91,8.91,8.91,8.91,8.91,8.91,0.0,8.91,8.91,8.91,9.0502,9.1631,9.1978,9.3834,9.5678,9.7389,9.6622,9.6905,9.8691,9.7083,9.6345,9.6767,9.6767,9.6956,9.7267,9.8016,9.834,9.8204,9.845,9.8394,9.8003,9.8003,9.8749,10.01,10.01,10.0897,10.2311,10.3209,10.382,10.4427,10.5279,10.5997,10.6376,10.6376,10.6376,10.6376,10.6376,10.6376,10.6376,10.6376,10.6617,10.678,10.678,10.7425,10.7991,10.7991,10.8395,10.8909,10.9202,10.9202,10.9312,10.9606,10.9679,10.9679,10.9679,10.9679,10.9679,10.9679,10.9679,10.9606,10.9276,10.9202,10.8799,10.7498,10.7315,10.7205,10.6911,10.678,10.6706,10.6413,10.6376,10.6376,10.6376,10.6376,10.6376,10.6376,10.6376,10.6376,10.6376,10.6376,10.6486,10.678,10.6486,10.6486,10.678,10.6486,10.6376,10.6376,10.6376,10.6376]}]]